<?xml version="1.0" encoding="UTF-8" standalone="no" ?>
<gpx xmlns="http://www.topografix.com/GPX/1/1" xmlns:xsi="http://www.w3.org/2001/XMLSchema-instance" xsi:schemaLocation="http://www.topografix.com/GPX/1/1 http://www.topografix.com/GPX/1/1/gpx.xsd" version="1.1" creator="VisuGPX - https://www.visugpx.com">
  <metadata>
    <name>Le Grammont depuis Novel (la Planche)</name>
    <desc><![CDATA[Belle et grande boucle sauvage pour accéder au sommet du Grammont, superbe belvédère helvétique sur le Léman !]]></desc>
  </metadata>
  <trk>
    <name><![CDATA[2014-10-04 17:58:47]]></name>
    <trkseg>
      <trkpt lat="46.36215" lon="6.76841">
        <ele>1209.48</ele>
        <time>2014-10-04T07:25:31Z</time>
      </trkpt>
      <trkpt lat="46.36213" lon="6.76852">
        <ele>1211.4</ele>
        <time>2014-10-04T07:25:38Z</time>
      </trkpt>
      <trkpt lat="46.36212" lon="6.76855">
        <ele>1210.44</ele>
        <time>2014-10-04T07:25:40Z</time>
      </trkpt>
      <trkpt lat="46.362" lon="6.76869">
        <ele>1212.84</ele>
        <time>2014-10-04T07:25:59Z</time>
      </trkpt>
      <trkpt lat="46.36187" lon="6.76886">
        <ele>1215.72</ele>
        <time>2014-10-04T07:26:17Z</time>
      </trkpt>
      <trkpt lat="46.36186" lon="6.76908">
        <ele>1217.17</ele>
        <time>2014-10-04T07:26:32Z</time>
      </trkpt>
      <trkpt lat="46.36176" lon="6.76924">
        <ele>1218.61</ele>
        <time>2014-10-04T07:26:46Z</time>
      </trkpt>
      <trkpt lat="46.36168" lon="6.76939">
        <ele>1219.09</ele>
        <time>2014-10-04T07:27:02Z</time>
      </trkpt>
      <trkpt lat="46.36155" lon="6.76949">
        <ele>1219.09</ele>
        <time>2014-10-04T07:27:12Z</time>
      </trkpt>
      <trkpt lat="46.36151" lon="6.76958">
        <ele>1219.09</ele>
        <time>2014-10-04T07:27:21Z</time>
      </trkpt>
      <trkpt lat="46.36148" lon="6.76958">
        <ele>1219.09</ele>
        <time>2014-10-04T07:27:25Z</time>
      </trkpt>
      <trkpt lat="46.3614" lon="6.76958">
        <ele>1220.05</ele>
        <time>2014-10-04T07:27:35Z</time>
      </trkpt>
      <trkpt lat="46.36131" lon="6.76959">
        <ele>1218.61</ele>
        <time>2014-10-04T07:27:45Z</time>
      </trkpt>
      <trkpt lat="46.36127" lon="6.76959">
        <ele>1217.65</ele>
        <time>2014-10-04T07:27:49Z</time>
      </trkpt>
      <trkpt lat="46.36115" lon="6.76962">
        <ele>1214.76</ele>
        <time>2014-10-04T07:28:04Z</time>
      </trkpt>
      <trkpt lat="46.36108" lon="6.76963">
        <ele>1213.32</ele>
        <time>2014-10-04T07:28:23Z</time>
      </trkpt>
      <trkpt lat="46.36105" lon="6.7696">
        <ele>1213.32</ele>
        <time>2014-10-04T07:28:42Z</time>
      </trkpt>
      <trkpt lat="46.36102" lon="6.76957">
        <ele>1212.84</ele>
        <time>2014-10-04T07:29:00Z</time>
      </trkpt>
      <trkpt lat="46.36095" lon="6.76948">
        <ele>1212.84</ele>
        <time>2014-10-04T07:29:18Z</time>
      </trkpt>
      <trkpt lat="46.36094" lon="6.76946">
        <ele>1212.84</ele>
        <time>2014-10-04T07:29:20Z</time>
      </trkpt>
      <trkpt lat="46.36074" lon="6.76946">
        <ele>1212.84</ele>
        <time>2014-10-04T07:29:34Z</time>
      </trkpt>
      <trkpt lat="46.36066" lon="6.76956">
        <ele>1214.28</ele>
        <time>2014-10-04T07:29:47Z</time>
      </trkpt>
      <trkpt lat="46.36064" lon="6.76972">
        <ele>1214.28</ele>
        <time>2014-10-04T07:29:56Z</time>
      </trkpt>
      <trkpt lat="46.36062" lon="6.7698">
        <ele>1214.28</ele>
        <time>2014-10-04T07:30:01Z</time>
      </trkpt>
      <trkpt lat="46.36052" lon="6.76989">
        <ele>1214.28</ele>
        <time>2014-10-04T07:30:14Z</time>
      </trkpt>
      <trkpt lat="46.36049" lon="6.76987">
        <ele>1214.76</ele>
        <time>2014-10-04T07:30:20Z</time>
      </trkpt>
      <trkpt lat="46.36046" lon="6.76986">
        <ele>1214.76</ele>
        <time>2014-10-04T07:30:22Z</time>
      </trkpt>
      <trkpt lat="46.36041" lon="6.76979">
        <ele>1215.72</ele>
        <time>2014-10-04T07:30:29Z</time>
      </trkpt>
      <trkpt lat="46.36034" lon="6.7696">
        <ele>1218.13</ele>
        <time>2014-10-04T07:30:44Z</time>
      </trkpt>
      <trkpt lat="46.36028" lon="6.76944">
        <ele>1219.09</ele>
        <time>2014-10-04T07:30:57Z</time>
      </trkpt>
      <trkpt lat="46.36023" lon="6.76931">
        <ele>1221.01</ele>
        <time>2014-10-04T07:31:09Z</time>
      </trkpt>
      <trkpt lat="46.36017" lon="6.7692">
        <ele>1222.45</ele>
        <time>2014-10-04T07:31:20Z</time>
      </trkpt>
      <trkpt lat="46.36008" lon="6.76909">
        <ele>1224.38</ele>
        <time>2014-10-04T07:31:32Z</time>
      </trkpt>
      <trkpt lat="46.35997" lon="6.76896">
        <ele>1225.34</ele>
        <time>2014-10-04T07:31:45Z</time>
      </trkpt>
      <trkpt lat="46.35995" lon="6.76893">
        <ele>1225.82</ele>
        <time>2014-10-04T07:31:48Z</time>
      </trkpt>
      <trkpt lat="46.35984" lon="6.76881">
        <ele>1227.26</ele>
        <time>2014-10-04T07:32:01Z</time>
      </trkpt>
      <trkpt lat="46.35973" lon="6.76867">
        <ele>1228.7</ele>
        <time>2014-10-04T07:32:15Z</time>
      </trkpt>
      <trkpt lat="46.3596" lon="6.76853">
        <ele>1230.62</ele>
        <time>2014-10-04T07:32:30Z</time>
      </trkpt>
      <trkpt lat="46.35956" lon="6.7685">
        <ele>1231.11</ele>
        <time>2014-10-04T07:32:35Z</time>
      </trkpt>
      <trkpt lat="46.3595" lon="6.76842">
        <ele>1231.59</ele>
        <time>2014-10-04T07:32:43Z</time>
      </trkpt>
      <trkpt lat="46.35941" lon="6.76828">
        <ele>1232.07</ele>
        <time>2014-10-04T07:32:55Z</time>
      </trkpt>
      <trkpt lat="46.35931" lon="6.7683">
        <ele>1233.03</ele>
        <time>2014-10-04T07:33:08Z</time>
      </trkpt>
      <trkpt lat="46.35931" lon="6.76836">
        <ele>1234.95</ele>
        <time>2014-10-04T07:33:11Z</time>
      </trkpt>
      <trkpt lat="46.35923" lon="6.76855">
        <ele>1234.95</ele>
        <time>2014-10-04T07:33:25Z</time>
      </trkpt>
      <trkpt lat="46.35914" lon="6.76866">
        <ele>1236.87</ele>
        <time>2014-10-04T07:33:37Z</time>
      </trkpt>
      <trkpt lat="46.35909" lon="6.76874">
        <ele>1237.83</ele>
        <time>2014-10-04T07:33:45Z</time>
      </trkpt>
      <trkpt lat="46.359" lon="6.7688">
        <ele>1240.24</ele>
        <time>2014-10-04T07:33:59Z</time>
      </trkpt>
      <trkpt lat="46.35891" lon="6.76887">
        <ele>1242.16</ele>
        <time>2014-10-04T07:34:14Z</time>
      </trkpt>
      <trkpt lat="46.35881" lon="6.76891">
        <ele>1244.56</ele>
        <time>2014-10-04T07:34:29Z</time>
      </trkpt>
      <trkpt lat="46.35868" lon="6.76894">
        <ele>1247.45</ele>
        <time>2014-10-04T07:34:44Z</time>
      </trkpt>
      <trkpt lat="46.35866" lon="6.76895">
        <ele>1247.93</ele>
        <time>2014-10-04T07:34:49Z</time>
      </trkpt>
      <trkpt lat="46.35854" lon="6.76896">
        <ele>1249.85</ele>
        <time>2014-10-04T07:35:02Z</time>
      </trkpt>
      <trkpt lat="46.35844" lon="6.76894">
        <ele>1251.29</ele>
        <time>2014-10-04T07:35:13Z</time>
      </trkpt>
      <trkpt lat="46.35838" lon="6.76894">
        <ele>1253.22</ele>
        <time>2014-10-04T07:35:25Z</time>
      </trkpt>
      <trkpt lat="46.35825" lon="6.76888">
        <ele>1255.14</ele>
        <time>2014-10-04T07:35:38Z</time>
      </trkpt>
      <trkpt lat="46.35819" lon="6.76884">
        <ele>1257.54</ele>
        <time>2014-10-04T07:35:49Z</time>
      </trkpt>
      <trkpt lat="46.35814" lon="6.76873">
        <ele>1258.98</ele>
        <time>2014-10-04T07:36:01Z</time>
      </trkpt>
      <trkpt lat="46.35809" lon="6.76862">
        <ele>1259.94</ele>
        <time>2014-10-04T07:36:11Z</time>
      </trkpt>
      <trkpt lat="46.35806" lon="6.76853">
        <ele>1260.91</ele>
        <time>2014-10-04T07:36:19Z</time>
      </trkpt>
      <trkpt lat="46.35798" lon="6.76847">
        <ele>1261.87</ele>
        <time>2014-10-04T07:36:32Z</time>
      </trkpt>
      <trkpt lat="46.3579" lon="6.76843">
        <ele>1263.79</ele>
        <time>2014-10-04T07:36:43Z</time>
      </trkpt>
      <trkpt lat="46.35776" lon="6.76841">
        <ele>1264.75</ele>
        <time>2014-10-04T07:36:58Z</time>
      </trkpt>
      <trkpt lat="46.35764" lon="6.76841">
        <ele>1266.67</ele>
        <time>2014-10-04T07:37:13Z</time>
      </trkpt>
      <trkpt lat="46.35754" lon="6.7684">
        <ele>1268.6</ele>
        <time>2014-10-04T07:37:26Z</time>
      </trkpt>
      <trkpt lat="46.35746" lon="6.76844">
        <ele>1271</ele>
        <time>2014-10-04T07:37:39Z</time>
      </trkpt>
      <trkpt lat="46.3574" lon="6.76842">
        <ele>1272.44</ele>
        <time>2014-10-04T07:37:51Z</time>
      </trkpt>
      <trkpt lat="46.35728" lon="6.76839">
        <ele>1273.88</ele>
        <time>2014-10-04T07:38:05Z</time>
      </trkpt>
      <trkpt lat="46.3572" lon="6.76843">
        <ele>1275.33</ele>
        <time>2014-10-04T07:38:17Z</time>
      </trkpt>
      <trkpt lat="46.35719" lon="6.76843">
        <ele>1275.81</ele>
        <time>2014-10-04T07:38:19Z</time>
      </trkpt>
      <trkpt lat="46.35709" lon="6.76847">
        <ele>1277.73</ele>
        <time>2014-10-04T07:38:34Z</time>
      </trkpt>
      <trkpt lat="46.35704" lon="6.76857">
        <ele>1279.17</ele>
        <time>2014-10-04T07:38:45Z</time>
      </trkpt>
      <trkpt lat="46.35698" lon="6.76866">
        <ele>1281.57</ele>
        <time>2014-10-04T07:38:58Z</time>
      </trkpt>
      <trkpt lat="46.35694" lon="6.76871">
        <ele>1283.5</ele>
        <time>2014-10-04T07:39:10Z</time>
      </trkpt>
      <trkpt lat="46.3569" lon="6.76878">
        <ele>1285.42</ele>
        <time>2014-10-04T07:39:24Z</time>
      </trkpt>
      <trkpt lat="46.35684" lon="6.76886">
        <ele>1286.86</ele>
        <time>2014-10-04T07:39:36Z</time>
      </trkpt>
      <trkpt lat="46.35676" lon="6.76885">
        <ele>1288.78</ele>
        <time>2014-10-04T07:39:48Z</time>
      </trkpt>
      <trkpt lat="46.35671" lon="6.76891">
        <ele>1290.23</ele>
        <time>2014-10-04T07:40:00Z</time>
      </trkpt>
      <trkpt lat="46.35663" lon="6.76895">
        <ele>1292.15</ele>
        <time>2014-10-04T07:40:14Z</time>
      </trkpt>
      <trkpt lat="46.35656" lon="6.76903">
        <ele>1294.55</ele>
        <time>2014-10-04T07:40:28Z</time>
      </trkpt>
      <trkpt lat="46.35648" lon="6.76908">
        <ele>1296.96</ele>
        <time>2014-10-04T07:40:44Z</time>
      </trkpt>
      <trkpt lat="46.35642" lon="6.76915">
        <ele>1299.84</ele>
        <time>2014-10-04T07:41:01Z</time>
      </trkpt>
      <trkpt lat="46.35632" lon="6.76916">
        <ele>1302.72</ele>
        <time>2014-10-04T07:41:15Z</time>
      </trkpt>
      <trkpt lat="46.35628" lon="6.76925">
        <ele>1305.13</ele>
        <time>2014-10-04T07:41:31Z</time>
      </trkpt>
      <trkpt lat="46.35632" lon="6.76937">
        <ele>1307.53</ele>
        <time>2014-10-04T07:41:45Z</time>
      </trkpt>
      <trkpt lat="46.35631" lon="6.76946">
        <ele>1309.93</ele>
        <time>2014-10-04T07:42:00Z</time>
      </trkpt>
      <trkpt lat="46.35636" lon="6.76954">
        <ele>1311.38</ele>
        <time>2014-10-04T07:42:12Z</time>
      </trkpt>
      <trkpt lat="46.35628" lon="6.76958">
        <ele>1314.26</ele>
        <time>2014-10-04T07:42:26Z</time>
      </trkpt>
      <trkpt lat="46.3562" lon="6.76961">
        <ele>1316.18</ele>
        <time>2014-10-04T07:42:39Z</time>
      </trkpt>
      <trkpt lat="46.35616" lon="6.76969">
        <ele>1318.1</ele>
        <time>2014-10-04T07:42:52Z</time>
      </trkpt>
      <trkpt lat="46.35612" lon="6.76975">
        <ele>1320.51</ele>
        <time>2014-10-04T07:43:06Z</time>
      </trkpt>
      <trkpt lat="46.35609" lon="6.76986">
        <ele>1323.39</ele>
        <time>2014-10-04T07:43:21Z</time>
      </trkpt>
      <trkpt lat="46.356" lon="6.76986">
        <ele>1325.31</ele>
        <time>2014-10-04T07:43:34Z</time>
      </trkpt>
      <trkpt lat="46.35592" lon="6.7699">
        <ele>1327.72</ele>
        <time>2014-10-04T07:43:48Z</time>
      </trkpt>
      <trkpt lat="46.35584" lon="6.7699">
        <ele>1330.12</ele>
        <time>2014-10-04T07:44:03Z</time>
      </trkpt>
      <trkpt lat="46.35577" lon="6.76992">
        <ele>1332.52</ele>
        <time>2014-10-04T07:44:18Z</time>
      </trkpt>
      <trkpt lat="46.3558" lon="6.76995">
        <ele>1332.52</ele>
        <time>2014-10-04T07:44:31Z</time>
      </trkpt>
      <trkpt lat="46.35581" lon="6.76994">
        <ele>1333.01</ele>
        <time>2014-10-04T07:44:46Z</time>
      </trkpt>
      <trkpt lat="46.3558" lon="6.76992">
        <ele>1333.01</ele>
        <time>2014-10-04T07:45:04Z</time>
      </trkpt>
      <trkpt lat="46.35583" lon="6.76991">
        <ele>1333.01</ele>
        <time>2014-10-04T07:45:28Z</time>
      </trkpt>
      <trkpt lat="46.35586" lon="6.7699">
        <ele>1333.01</ele>
        <time>2014-10-04T07:45:54Z</time>
      </trkpt>
      <trkpt lat="46.35588" lon="6.76988">
        <ele>1333.01</ele>
        <time>2014-10-04T07:46:19Z</time>
      </trkpt>
      <trkpt lat="46.35582" lon="6.7699">
        <ele>1333.01</ele>
        <time>2014-10-04T07:46:43Z</time>
      </trkpt>
      <trkpt lat="46.35583" lon="6.7699">
        <ele>1333.01</ele>
        <time>2014-10-04T07:47:00Z</time>
      </trkpt>
      <trkpt lat="46.35582" lon="6.76991">
        <ele>1333.01</ele>
        <time>2014-10-04T07:47:34Z</time>
      </trkpt>
      <trkpt lat="46.35593" lon="6.76992">
        <ele>1333.01</ele>
        <time>2014-10-04T07:48:10Z</time>
      </trkpt>
      <trkpt lat="46.35586" lon="6.76987">
        <ele>1333.01</ele>
        <time>2014-10-04T07:48:35Z</time>
      </trkpt>
      <trkpt lat="46.35577" lon="6.76988">
        <ele>1333.01</ele>
        <time>2014-10-04T07:48:59Z</time>
      </trkpt>
      <trkpt lat="46.35579" lon="6.7699">
        <ele>1333.01</ele>
        <time>2014-10-04T07:49:16Z</time>
      </trkpt>
      <trkpt lat="46.35578" lon="6.76989">
        <ele>1333.01</ele>
        <time>2014-10-04T07:49:36Z</time>
      </trkpt>
      <trkpt lat="46.35579" lon="6.76991">
        <ele>1333.01</ele>
        <time>2014-10-04T07:49:58Z</time>
      </trkpt>
      <trkpt lat="46.35581" lon="6.76987">
        <ele>1333.01</ele>
        <time>2014-10-04T07:50:22Z</time>
      </trkpt>
      <trkpt lat="46.35573" lon="6.77001">
        <ele>1333.49</ele>
        <time>2014-10-04T07:50:39Z</time>
      </trkpt>
      <trkpt lat="46.35569" lon="6.77015">
        <ele>1335.41</ele>
        <time>2014-10-04T07:50:53Z</time>
      </trkpt>
      <trkpt lat="46.35572" lon="6.77033">
        <ele>1335.89</ele>
        <time>2014-10-04T07:51:06Z</time>
      </trkpt>
      <trkpt lat="46.35577" lon="6.77046">
        <ele>1333.01</ele>
        <time>2014-10-04T07:51:17Z</time>
      </trkpt>
      <trkpt lat="46.35584" lon="6.77059">
        <ele>1332.52</ele>
        <time>2014-10-04T07:51:30Z</time>
      </trkpt>
      <trkpt lat="46.35589" lon="6.77065">
        <ele>1333.97</ele>
        <time>2014-10-04T07:51:42Z</time>
      </trkpt>
      <trkpt lat="46.35585" lon="6.77066">
        <ele>1335.89</ele>
        <time>2014-10-04T07:51:53Z</time>
      </trkpt>
      <trkpt lat="46.35576" lon="6.77059">
        <ele>1338.77</ele>
        <time>2014-10-04T07:52:07Z</time>
      </trkpt>
      <trkpt lat="46.35567" lon="6.77057">
        <ele>1340.7</ele>
        <time>2014-10-04T07:52:21Z</time>
      </trkpt>
      <trkpt lat="46.35562" lon="6.77048">
        <ele>1343.1</ele>
        <time>2014-10-04T07:52:33Z</time>
      </trkpt>
      <trkpt lat="46.35554" lon="6.77049">
        <ele>1345.98</ele>
        <time>2014-10-04T07:52:47Z</time>
      </trkpt>
      <trkpt lat="46.35547" lon="6.77053">
        <ele>1348.39</ele>
        <time>2014-10-04T07:52:59Z</time>
      </trkpt>
      <trkpt lat="46.35543" lon="6.77059">
        <ele>1351.27</ele>
        <time>2014-10-04T07:53:13Z</time>
      </trkpt>
      <trkpt lat="46.35537" lon="6.77062">
        <ele>1354.15</ele>
        <time>2014-10-04T07:53:27Z</time>
      </trkpt>
      <trkpt lat="46.35532" lon="6.77065">
        <ele>1357.04</ele>
        <time>2014-10-04T07:53:42Z</time>
      </trkpt>
      <trkpt lat="46.35524" lon="6.77068">
        <ele>1359.92</ele>
        <time>2014-10-04T07:53:56Z</time>
      </trkpt>
      <trkpt lat="46.35517" lon="6.77073">
        <ele>1362.33</ele>
        <time>2014-10-04T07:54:08Z</time>
      </trkpt>
      <trkpt lat="46.35513" lon="6.77081">
        <ele>1365.21</ele>
        <time>2014-10-04T07:54:22Z</time>
      </trkpt>
      <trkpt lat="46.35507" lon="6.77084">
        <ele>1367.61</ele>
        <time>2014-10-04T07:54:36Z</time>
      </trkpt>
      <trkpt lat="46.355" lon="6.77085">
        <ele>1370.02</ele>
        <time>2014-10-04T07:54:50Z</time>
      </trkpt>
      <trkpt lat="46.35497" lon="6.77093">
        <ele>1371.94</ele>
        <time>2014-10-04T07:55:03Z</time>
      </trkpt>
      <trkpt lat="46.35497" lon="6.77107">
        <ele>1374.34</ele>
        <time>2014-10-04T07:55:17Z</time>
      </trkpt>
      <trkpt lat="46.35494" lon="6.77114">
        <ele>1376.26</ele>
        <time>2014-10-04T07:55:29Z</time>
      </trkpt>
      <trkpt lat="46.35493" lon="6.77132">
        <ele>1377.71</ele>
        <time>2014-10-04T07:55:44Z</time>
      </trkpt>
      <trkpt lat="46.35489" lon="6.77141">
        <ele>1380.11</ele>
        <time>2014-10-04T07:55:58Z</time>
      </trkpt>
      <trkpt lat="46.35486" lon="6.77148">
        <ele>1382.51</ele>
        <time>2014-10-04T07:56:11Z</time>
      </trkpt>
      <trkpt lat="46.35481" lon="6.77155">
        <ele>1385.88</ele>
        <time>2014-10-04T07:56:24Z</time>
      </trkpt>
      <trkpt lat="46.35478" lon="6.77165">
        <ele>1387.8</ele>
        <time>2014-10-04T07:56:38Z</time>
      </trkpt>
      <trkpt lat="46.35474" lon="6.77175">
        <ele>1390.2</ele>
        <time>2014-10-04T07:56:50Z</time>
      </trkpt>
      <trkpt lat="46.35471" lon="6.77182">
        <ele>1392.13</ele>
        <time>2014-10-04T07:57:02Z</time>
      </trkpt>
      <trkpt lat="46.35465" lon="6.77186">
        <ele>1395.01</ele>
        <time>2014-10-04T07:57:18Z</time>
      </trkpt>
      <trkpt lat="46.35462" lon="6.77196">
        <ele>1396.93</ele>
        <time>2014-10-04T07:57:30Z</time>
      </trkpt>
      <trkpt lat="46.35461" lon="6.77206">
        <ele>1400.3</ele>
        <time>2014-10-04T07:57:45Z</time>
      </trkpt>
      <trkpt lat="46.35458" lon="6.77213">
        <ele>1402.22</ele>
        <time>2014-10-04T07:57:57Z</time>
      </trkpt>
      <trkpt lat="46.35456" lon="6.77221">
        <ele>1404.62</ele>
        <time>2014-10-04T07:58:12Z</time>
      </trkpt>
      <trkpt lat="46.35452" lon="6.7721">
        <ele>1407.99</ele>
        <time>2014-10-04T07:58:27Z</time>
      </trkpt>
      <trkpt lat="46.35445" lon="6.772">
        <ele>1410.39</ele>
        <time>2014-10-04T07:58:41Z</time>
      </trkpt>
      <trkpt lat="46.3544" lon="6.77211">
        <ele>1412.79</ele>
        <time>2014-10-04T07:58:55Z</time>
      </trkpt>
      <trkpt lat="46.35441" lon="6.77219">
        <ele>1415.2</ele>
        <time>2014-10-04T07:59:08Z</time>
      </trkpt>
      <trkpt lat="46.35437" lon="6.77231">
        <ele>1418.56</ele>
        <time>2014-10-04T07:59:22Z</time>
      </trkpt>
      <trkpt lat="46.35434" lon="6.77243">
        <ele>1420.49</ele>
        <time>2014-10-04T07:59:36Z</time>
      </trkpt>
      <trkpt lat="46.35431" lon="6.77253">
        <ele>1423.37</ele>
        <time>2014-10-04T07:59:49Z</time>
      </trkpt>
      <trkpt lat="46.35431" lon="6.77266">
        <ele>1425.77</ele>
        <time>2014-10-04T08:00:03Z</time>
      </trkpt>
      <trkpt lat="46.3543" lon="6.77279">
        <ele>1428.66</ele>
        <time>2014-10-04T08:00:18Z</time>
      </trkpt>
      <trkpt lat="46.35429" lon="6.77292">
        <ele>1431.06</ele>
        <time>2014-10-04T08:00:32Z</time>
      </trkpt>
      <trkpt lat="46.35421" lon="6.77299">
        <ele>1433.94</ele>
        <time>2014-10-04T08:00:48Z</time>
      </trkpt>
      <trkpt lat="46.35417" lon="6.77309">
        <ele>1437.31</ele>
        <time>2014-10-04T08:01:03Z</time>
      </trkpt>
      <trkpt lat="46.35417" lon="6.7731">
        <ele>1437.31</ele>
        <time>2014-10-04T08:01:04Z</time>
      </trkpt>
      <trkpt lat="46.35415" lon="6.77322">
        <ele>1439.71</ele>
        <time>2014-10-04T08:01:18Z</time>
      </trkpt>
      <trkpt lat="46.3541" lon="6.7733">
        <ele>1441.63</ele>
        <time>2014-10-04T08:01:30Z</time>
      </trkpt>
      <trkpt lat="46.35407" lon="6.77341">
        <ele>1444.52</ele>
        <time>2014-10-04T08:01:44Z</time>
      </trkpt>
      <trkpt lat="46.35405" lon="6.77351">
        <ele>1446.44</ele>
        <time>2014-10-04T08:01:57Z</time>
      </trkpt>
      <trkpt lat="46.35405" lon="6.77363">
        <ele>1448.84</ele>
        <time>2014-10-04T08:02:12Z</time>
      </trkpt>
      <trkpt lat="46.35403" lon="6.7737">
        <ele>1452.21</ele>
        <time>2014-10-04T08:02:27Z</time>
      </trkpt>
      <trkpt lat="46.35395" lon="6.77381">
        <ele>1455.57</ele>
        <time>2014-10-04T08:02:41Z</time>
      </trkpt>
      <trkpt lat="46.35392" lon="6.77394">
        <ele>1458.46</ele>
        <time>2014-10-04T08:02:55Z</time>
      </trkpt>
      <trkpt lat="46.35385" lon="6.77404">
        <ele>1461.34</ele>
        <time>2014-10-04T08:03:10Z</time>
      </trkpt>
      <trkpt lat="46.35381" lon="6.77417">
        <ele>1462.3</ele>
        <time>2014-10-04T08:03:22Z</time>
      </trkpt>
      <trkpt lat="46.35377" lon="6.77434">
        <ele>1463.26</ele>
        <time>2014-10-04T08:03:37Z</time>
      </trkpt>
      <trkpt lat="46.35377" lon="6.77436">
        <ele>1464.71</ele>
        <time>2014-10-04T08:03:52Z</time>
      </trkpt>
      <trkpt lat="46.35378" lon="6.77436">
        <ele>1464.71</ele>
        <time>2014-10-04T08:04:17Z</time>
      </trkpt>
      <trkpt lat="46.35381" lon="6.77439">
        <ele>1464.71</ele>
        <time>2014-10-04T08:04:45Z</time>
      </trkpt>
      <trkpt lat="46.35391" lon="6.77442">
        <ele>1464.71</ele>
        <time>2014-10-04T08:05:14Z</time>
      </trkpt>
      <trkpt lat="46.3539" lon="6.77441">
        <ele>1464.71</ele>
        <time>2014-10-04T08:05:40Z</time>
      </trkpt>
      <trkpt lat="46.3538" lon="6.77443">
        <ele>1464.71</ele>
        <time>2014-10-04T08:06:09Z</time>
      </trkpt>
      <trkpt lat="46.35377" lon="6.7745">
        <ele>1465.67</ele>
        <time>2014-10-04T08:06:35Z</time>
      </trkpt>
      <trkpt lat="46.35379" lon="6.77459">
        <ele>1467.59</ele>
        <time>2014-10-04T08:06:50Z</time>
      </trkpt>
      <trkpt lat="46.35379" lon="6.77469">
        <ele>1470.95</ele>
        <time>2014-10-04T08:07:05Z</time>
      </trkpt>
      <trkpt lat="46.35374" lon="6.77483">
        <ele>1472.88</ele>
        <time>2014-10-04T08:07:18Z</time>
      </trkpt>
      <trkpt lat="46.35371" lon="6.77498">
        <ele>1475.28</ele>
        <time>2014-10-04T08:07:33Z</time>
      </trkpt>
      <trkpt lat="46.35365" lon="6.77509">
        <ele>1478.16</ele>
        <time>2014-10-04T08:07:47Z</time>
      </trkpt>
      <trkpt lat="46.35362" lon="6.77519">
        <ele>1480.57</ele>
        <time>2014-10-04T08:08:01Z</time>
      </trkpt>
      <trkpt lat="46.35364" lon="6.77527">
        <ele>1483.93</ele>
        <time>2014-10-04T08:08:15Z</time>
      </trkpt>
      <trkpt lat="46.35365" lon="6.77538">
        <ele>1485.85</ele>
        <time>2014-10-04T08:08:29Z</time>
      </trkpt>
      <trkpt lat="46.35377" lon="6.77552">
        <ele>1488.74</ele>
        <time>2014-10-04T08:08:46Z</time>
      </trkpt>
      <trkpt lat="46.35379" lon="6.7756">
        <ele>1491.62</ele>
        <time>2014-10-04T08:09:01Z</time>
      </trkpt>
      <trkpt lat="46.35377" lon="6.77567">
        <ele>1494.03</ele>
        <time>2014-10-04T08:09:16Z</time>
      </trkpt>
      <trkpt lat="46.35373" lon="6.77573">
        <ele>1495.95</ele>
        <time>2014-10-04T08:09:29Z</time>
      </trkpt>
      <trkpt lat="46.35364" lon="6.77581">
        <ele>1497.39</ele>
        <time>2014-10-04T08:09:42Z</time>
      </trkpt>
      <trkpt lat="46.3536" lon="6.77589">
        <ele>1500.27</ele>
        <time>2014-10-04T08:09:55Z</time>
      </trkpt>
      <trkpt lat="46.35358" lon="6.77598">
        <ele>1502.2</ele>
        <time>2014-10-04T08:10:07Z</time>
      </trkpt>
      <trkpt lat="46.35358" lon="6.77607">
        <ele>1504.12</ele>
        <time>2014-10-04T08:10:21Z</time>
      </trkpt>
      <trkpt lat="46.35356" lon="6.77617">
        <ele>1506.52</ele>
        <time>2014-10-04T08:10:35Z</time>
      </trkpt>
      <trkpt lat="46.35354" lon="6.77626">
        <ele>1507.97</ele>
        <time>2014-10-04T08:10:47Z</time>
      </trkpt>
      <trkpt lat="46.35351" lon="6.77631">
        <ele>1510.37</ele>
        <time>2014-10-04T08:11:01Z</time>
      </trkpt>
      <trkpt lat="46.35348" lon="6.77637">
        <ele>1512.29</ele>
        <time>2014-10-04T08:11:15Z</time>
      </trkpt>
      <trkpt lat="46.35346" lon="6.77646">
        <ele>1514.69</ele>
        <time>2014-10-04T08:11:29Z</time>
      </trkpt>
      <trkpt lat="46.35345" lon="6.77655">
        <ele>1517.1</ele>
        <time>2014-10-04T08:11:42Z</time>
      </trkpt>
      <trkpt lat="46.35344" lon="6.77662">
        <ele>1519.5</ele>
        <time>2014-10-04T08:11:58Z</time>
      </trkpt>
      <trkpt lat="46.35347" lon="6.7767">
        <ele>1523.35</ele>
        <time>2014-10-04T08:12:13Z</time>
      </trkpt>
      <trkpt lat="46.35347" lon="6.77677">
        <ele>1525.27</ele>
        <time>2014-10-04T08:12:27Z</time>
      </trkpt>
      <trkpt lat="46.35346" lon="6.77683">
        <ele>1527.67</ele>
        <time>2014-10-04T08:12:40Z</time>
      </trkpt>
      <trkpt lat="46.35351" lon="6.77691">
        <ele>1530.08</ele>
        <time>2014-10-04T08:12:55Z</time>
      </trkpt>
      <trkpt lat="46.35347" lon="6.77698">
        <ele>1532.48</ele>
        <time>2014-10-04T08:13:09Z</time>
      </trkpt>
      <trkpt lat="46.35348" lon="6.77703">
        <ele>1534.88</ele>
        <time>2014-10-04T08:13:25Z</time>
      </trkpt>
      <trkpt lat="46.35348" lon="6.77712">
        <ele>1537.77</ele>
        <time>2014-10-04T08:13:38Z</time>
      </trkpt>
      <trkpt lat="46.35356" lon="6.77718">
        <ele>1540.65</ele>
        <time>2014-10-04T08:13:54Z</time>
      </trkpt>
      <trkpt lat="46.35368" lon="6.77723">
        <ele>1543.53</ele>
        <time>2014-10-04T08:14:10Z</time>
      </trkpt>
      <trkpt lat="46.35374" lon="6.77726">
        <ele>1546.42</ele>
        <time>2014-10-04T08:14:25Z</time>
      </trkpt>
      <trkpt lat="46.35378" lon="6.77732">
        <ele>1547.86</ele>
        <time>2014-10-04T08:14:37Z</time>
      </trkpt>
      <trkpt lat="46.35367" lon="6.77735">
        <ele>1549.3</ele>
        <time>2014-10-04T08:14:52Z</time>
      </trkpt>
      <trkpt lat="46.35363" lon="6.77741">
        <ele>1552.67</ele>
        <time>2014-10-04T08:15:08Z</time>
      </trkpt>
      <trkpt lat="46.35369" lon="6.77748">
        <ele>1554.59</ele>
        <time>2014-10-04T08:15:19Z</time>
      </trkpt>
      <trkpt lat="46.3538" lon="6.77759">
        <ele>1557.95</ele>
        <time>2014-10-04T08:15:34Z</time>
      </trkpt>
      <trkpt lat="46.35379" lon="6.7776">
        <ele>1558.92</ele>
        <time>2014-10-04T08:15:36Z</time>
      </trkpt>
      <trkpt lat="46.35367" lon="6.77765">
        <ele>1560.84</ele>
        <time>2014-10-04T08:15:50Z</time>
      </trkpt>
      <trkpt lat="46.35361" lon="6.77771">
        <ele>1563.24</ele>
        <time>2014-10-04T08:16:05Z</time>
      </trkpt>
      <trkpt lat="46.35352" lon="6.77775">
        <ele>1566.12</ele>
        <time>2014-10-04T08:16:20Z</time>
      </trkpt>
      <trkpt lat="46.35356" lon="6.77788">
        <ele>1569.01</ele>
        <time>2014-10-04T08:16:37Z</time>
      </trkpt>
      <trkpt lat="46.35365" lon="6.77803">
        <ele>1571.41</ele>
        <time>2014-10-04T08:16:53Z</time>
      </trkpt>
      <trkpt lat="46.3537" lon="6.77811">
        <ele>1573.82</ele>
        <time>2014-10-04T08:17:06Z</time>
      </trkpt>
      <trkpt lat="46.3537" lon="6.77819">
        <ele>1576.7</ele>
        <time>2014-10-04T08:17:19Z</time>
      </trkpt>
      <trkpt lat="46.35367" lon="6.77829">
        <ele>1579.1</ele>
        <time>2014-10-04T08:17:36Z</time>
      </trkpt>
      <trkpt lat="46.3536" lon="6.77829">
        <ele>1581.99</ele>
        <time>2014-10-04T08:17:51Z</time>
      </trkpt>
      <trkpt lat="46.3536" lon="6.77837">
        <ele>1584.87</ele>
        <time>2014-10-04T08:18:04Z</time>
      </trkpt>
      <trkpt lat="46.3536" lon="6.77845">
        <ele>1587.27</ele>
        <time>2014-10-04T08:18:18Z</time>
      </trkpt>
      <trkpt lat="46.35359" lon="6.77856">
        <ele>1589.2</ele>
        <time>2014-10-04T08:18:33Z</time>
      </trkpt>
      <trkpt lat="46.35353" lon="6.77864">
        <ele>1592.08</ele>
        <time>2014-10-04T08:18:47Z</time>
      </trkpt>
      <trkpt lat="46.35351" lon="6.77875">
        <ele>1594.48</ele>
        <time>2014-10-04T08:19:01Z</time>
      </trkpt>
      <trkpt lat="46.35351" lon="6.77885">
        <ele>1596.89</ele>
        <time>2014-10-04T08:19:15Z</time>
      </trkpt>
      <trkpt lat="46.35353" lon="6.77892">
        <ele>1599.77</ele>
        <time>2014-10-04T08:19:27Z</time>
      </trkpt>
      <trkpt lat="46.3535" lon="6.77901">
        <ele>1601.69</ele>
        <time>2014-10-04T08:19:40Z</time>
      </trkpt>
      <trkpt lat="46.3535" lon="6.77914">
        <ele>1604.58</ele>
        <time>2014-10-04T08:19:54Z</time>
      </trkpt>
      <trkpt lat="46.35346" lon="6.77927">
        <ele>1606.98</ele>
        <time>2014-10-04T08:20:09Z</time>
      </trkpt>
      <trkpt lat="46.3534" lon="6.77923">
        <ele>1608.9</ele>
        <time>2014-10-04T08:20:23Z</time>
      </trkpt>
      <trkpt lat="46.35337" lon="6.77918">
        <ele>1609.38</ele>
        <time>2014-10-04T08:20:37Z</time>
      </trkpt>
      <trkpt lat="46.35343" lon="6.77922">
        <ele>1609.86</ele>
        <time>2014-10-04T08:20:58Z</time>
      </trkpt>
      <trkpt lat="46.3535" lon="6.77924">
        <ele>1609.86</ele>
        <time>2014-10-04T08:21:23Z</time>
      </trkpt>
      <trkpt lat="46.35348" lon="6.77925">
        <ele>1610.35</ele>
        <time>2014-10-04T08:21:47Z</time>
      </trkpt>
      <trkpt lat="46.35352" lon="6.77932">
        <ele>1610.35</ele>
        <time>2014-10-04T08:22:10Z</time>
      </trkpt>
      <trkpt lat="46.3536" lon="6.77927">
        <ele>1611.31</ele>
        <time>2014-10-04T08:22:45Z</time>
      </trkpt>
      <trkpt lat="46.3535" lon="6.77931">
        <ele>1611.31</ele>
        <time>2014-10-04T08:23:06Z</time>
      </trkpt>
      <trkpt lat="46.35345" lon="6.77929">
        <ele>1609.86</ele>
        <time>2014-10-04T08:23:32Z</time>
      </trkpt>
      <trkpt lat="46.35349" lon="6.77928">
        <ele>1609.86</ele>
        <time>2014-10-04T08:23:55Z</time>
      </trkpt>
      <trkpt lat="46.35346" lon="6.77923">
        <ele>1611.31</ele>
        <time>2014-10-04T08:24:05Z</time>
      </trkpt>
      <trkpt lat="46.35344" lon="6.77919">
        <ele>1610.35</ele>
        <time>2014-10-04T08:24:33Z</time>
      </trkpt>
      <trkpt lat="46.35336" lon="6.77917">
        <ele>1611.79</ele>
        <time>2014-10-04T08:24:52Z</time>
      </trkpt>
      <trkpt lat="46.35335" lon="6.77916">
        <ele>1611.79</ele>
        <time>2014-10-04T08:24:53Z</time>
      </trkpt>
      <trkpt lat="46.35326" lon="6.77913">
        <ele>1614.67</ele>
        <time>2014-10-04T08:25:04Z</time>
      </trkpt>
      <trkpt lat="46.35323" lon="6.77903">
        <ele>1617.56</ele>
        <time>2014-10-04T08:25:16Z</time>
      </trkpt>
      <trkpt lat="46.35316" lon="6.77911">
        <ele>1620.44</ele>
        <time>2014-10-04T08:25:29Z</time>
      </trkpt>
      <trkpt lat="46.35312" lon="6.77924">
        <ele>1621.4</ele>
        <time>2014-10-04T08:25:44Z</time>
      </trkpt>
      <trkpt lat="46.35313" lon="6.77933">
        <ele>1624.77</ele>
        <time>2014-10-04T08:25:57Z</time>
      </trkpt>
      <trkpt lat="46.35312" lon="6.77946">
        <ele>1627.17</ele>
        <time>2014-10-04T08:26:11Z</time>
      </trkpt>
      <trkpt lat="46.35312" lon="6.77956">
        <ele>1629.57</ele>
        <time>2014-10-04T08:26:26Z</time>
      </trkpt>
      <trkpt lat="46.35317" lon="6.77964">
        <ele>1632.94</ele>
        <time>2014-10-04T08:26:41Z</time>
      </trkpt>
      <trkpt lat="46.35318" lon="6.77966">
        <ele>1634.38</ele>
        <time>2014-10-04T08:26:45Z</time>
      </trkpt>
      <trkpt lat="46.35326" lon="6.77975">
        <ele>1636.3</ele>
        <time>2014-10-04T08:26:59Z</time>
      </trkpt>
      <trkpt lat="46.35332" lon="6.77989">
        <ele>1639.19</ele>
        <time>2014-10-04T08:27:17Z</time>
      </trkpt>
      <trkpt lat="46.35332" lon="6.77998">
        <ele>1641.59</ele>
        <time>2014-10-04T08:27:31Z</time>
      </trkpt>
      <trkpt lat="46.35334" lon="6.78009">
        <ele>1644.95</ele>
        <time>2014-10-04T08:27:45Z</time>
      </trkpt>
      <trkpt lat="46.35333" lon="6.7802">
        <ele>1648.32</ele>
        <time>2014-10-04T08:28:01Z</time>
      </trkpt>
      <trkpt lat="46.3534" lon="6.78031">
        <ele>1650.24</ele>
        <time>2014-10-04T08:28:18Z</time>
      </trkpt>
      <trkpt lat="46.35346" lon="6.78047">
        <ele>1652.16</ele>
        <time>2014-10-04T08:28:33Z</time>
      </trkpt>
      <trkpt lat="46.35351" lon="6.78062">
        <ele>1655.05</ele>
        <time>2014-10-04T08:28:49Z</time>
      </trkpt>
      <trkpt lat="46.3536" lon="6.78074">
        <ele>1656.97</ele>
        <time>2014-10-04T08:29:04Z</time>
      </trkpt>
      <trkpt lat="46.35368" lon="6.78084">
        <ele>1659.85</ele>
        <time>2014-10-04T08:29:19Z</time>
      </trkpt>
      <trkpt lat="46.35376" lon="6.78094">
        <ele>1662.26</ele>
        <time>2014-10-04T08:29:33Z</time>
      </trkpt>
      <trkpt lat="46.35384" lon="6.78103">
        <ele>1665.62</ele>
        <time>2014-10-04T08:29:49Z</time>
      </trkpt>
      <trkpt lat="46.35383" lon="6.78113">
        <ele>1668.51</ele>
        <time>2014-10-04T08:30:03Z</time>
      </trkpt>
      <trkpt lat="46.35387" lon="6.78123">
        <ele>1671.39</ele>
        <time>2014-10-04T08:30:17Z</time>
      </trkpt>
      <trkpt lat="46.35394" lon="6.7813">
        <ele>1673.79</ele>
        <time>2014-10-04T08:30:31Z</time>
      </trkpt>
      <trkpt lat="46.35396" lon="6.78137">
        <ele>1676.68</ele>
        <time>2014-10-04T08:30:46Z</time>
      </trkpt>
      <trkpt lat="46.354" lon="6.78146">
        <ele>1679.08</ele>
        <time>2014-10-04T08:30:59Z</time>
      </trkpt>
      <trkpt lat="46.35404" lon="6.78155">
        <ele>1680.52</ele>
        <time>2014-10-04T08:31:12Z</time>
      </trkpt>
      <trkpt lat="46.35402" lon="6.78164">
        <ele>1683.89</ele>
        <time>2014-10-04T08:31:24Z</time>
      </trkpt>
      <trkpt lat="46.35402" lon="6.78175">
        <ele>1686.29</ele>
        <time>2014-10-04T08:31:38Z</time>
      </trkpt>
      <trkpt lat="46.35402" lon="6.78184">
        <ele>1688.69</ele>
        <time>2014-10-04T08:31:51Z</time>
      </trkpt>
      <trkpt lat="46.35408" lon="6.78192">
        <ele>1691.1</ele>
        <time>2014-10-04T08:32:05Z</time>
      </trkpt>
      <trkpt lat="46.35405" lon="6.78198">
        <ele>1693.02</ele>
        <time>2014-10-04T08:32:18Z</time>
      </trkpt>
      <trkpt lat="46.354" lon="6.78207">
        <ele>1694.46</ele>
        <time>2014-10-04T08:32:31Z</time>
      </trkpt>
      <trkpt lat="46.35399" lon="6.7822">
        <ele>1697.34</ele>
        <time>2014-10-04T08:32:46Z</time>
      </trkpt>
      <trkpt lat="46.35398" lon="6.78228">
        <ele>1699.27</ele>
        <time>2014-10-04T08:33:01Z</time>
      </trkpt>
      <trkpt lat="46.35394" lon="6.78227">
        <ele>1701.19</ele>
        <time>2014-10-04T08:33:08Z</time>
      </trkpt>
      <trkpt lat="46.3539" lon="6.78232">
        <ele>1705.04</ele>
        <time>2014-10-04T08:33:22Z</time>
      </trkpt>
      <trkpt lat="46.35392" lon="6.78244">
        <ele>1706.96</ele>
        <time>2014-10-04T08:33:38Z</time>
      </trkpt>
      <trkpt lat="46.35396" lon="6.78253">
        <ele>1709.84</ele>
        <time>2014-10-04T08:33:52Z</time>
      </trkpt>
      <trkpt lat="46.35403" lon="6.78263">
        <ele>1712.73</ele>
        <time>2014-10-04T08:34:07Z</time>
      </trkpt>
      <trkpt lat="46.35412" lon="6.7827">
        <ele>1716.09</ele>
        <time>2014-10-04T08:34:22Z</time>
      </trkpt>
      <trkpt lat="46.35416" lon="6.7828">
        <ele>1718.01</ele>
        <time>2014-10-04T08:34:36Z</time>
      </trkpt>
      <trkpt lat="46.3542" lon="6.78287">
        <ele>1719.94</ele>
        <time>2014-10-04T08:34:50Z</time>
      </trkpt>
      <trkpt lat="46.35424" lon="6.78293">
        <ele>1722.82</ele>
        <time>2014-10-04T08:35:04Z</time>
      </trkpt>
      <trkpt lat="46.3543" lon="6.78295">
        <ele>1725.22</ele>
        <time>2014-10-04T08:35:17Z</time>
      </trkpt>
      <trkpt lat="46.35436" lon="6.78295">
        <ele>1726.67</ele>
        <time>2014-10-04T08:35:28Z</time>
      </trkpt>
      <trkpt lat="46.35438" lon="6.78299">
        <ele>1729.07</ele>
        <time>2014-10-04T08:35:44Z</time>
      </trkpt>
      <trkpt lat="46.35432" lon="6.78306">
        <ele>1732.43</ele>
        <time>2014-10-04T08:35:58Z</time>
      </trkpt>
      <trkpt lat="46.35425" lon="6.7831">
        <ele>1734.36</ele>
        <time>2014-10-04T08:36:12Z</time>
      </trkpt>
      <trkpt lat="46.35419" lon="6.78312">
        <ele>1737.24</ele>
        <time>2014-10-04T08:36:27Z</time>
      </trkpt>
      <trkpt lat="46.35422" lon="6.78322">
        <ele>1739.64</ele>
        <time>2014-10-04T08:36:40Z</time>
      </trkpt>
      <trkpt lat="46.35418" lon="6.78326">
        <ele>1741.57</ele>
        <time>2014-10-04T08:36:54Z</time>
      </trkpt>
      <trkpt lat="46.35418" lon="6.78333">
        <ele>1744.93</ele>
        <time>2014-10-04T08:37:06Z</time>
      </trkpt>
      <trkpt lat="46.35419" lon="6.78337">
        <ele>1746.85</ele>
        <time>2014-10-04T08:37:11Z</time>
      </trkpt>
      <trkpt lat="46.35421" lon="6.78344">
        <ele>1747.81</ele>
        <time>2014-10-04T08:37:27Z</time>
      </trkpt>
      <trkpt lat="46.35421" lon="6.78344">
        <ele>1746.37</ele>
        <time>2014-10-04T08:37:32Z</time>
      </trkpt>
      <trkpt lat="46.35419" lon="6.7835">
        <ele>1744.45</ele>
        <time>2014-10-04T08:37:44Z</time>
      </trkpt>
      <trkpt lat="46.35418" lon="6.78347">
        <ele>1744.93</ele>
        <time>2014-10-04T08:38:03Z</time>
      </trkpt>
      <trkpt lat="46.35418" lon="6.78347">
        <ele>1744.93</ele>
        <time>2014-10-04T08:38:24Z</time>
      </trkpt>
      <trkpt lat="46.35419" lon="6.78347">
        <ele>1744.45</ele>
        <time>2014-10-04T08:38:48Z</time>
      </trkpt>
      <trkpt lat="46.35419" lon="6.78348">
        <ele>1745.89</ele>
        <time>2014-10-04T08:38:59Z</time>
      </trkpt>
      <trkpt lat="46.35418" lon="6.78347">
        <ele>1743.97</ele>
        <time>2014-10-04T08:39:02Z</time>
      </trkpt>
      <trkpt lat="46.35421" lon="6.78345">
        <ele>1743.49</ele>
        <time>2014-10-04T08:39:37Z</time>
      </trkpt>
      <trkpt lat="46.35421" lon="6.78345">
        <ele>1743.97</ele>
        <time>2014-10-04T08:40:04Z</time>
      </trkpt>
      <trkpt lat="46.3542" lon="6.78348">
        <ele>1743.97</ele>
        <time>2014-10-04T08:40:46Z</time>
      </trkpt>
      <trkpt lat="46.3542" lon="6.78346">
        <ele>1743.97</ele>
        <time>2014-10-04T08:41:22Z</time>
      </trkpt>
      <trkpt lat="46.35421" lon="6.78346">
        <ele>1744.45</ele>
        <time>2014-10-04T08:41:53Z</time>
      </trkpt>
      <trkpt lat="46.3542" lon="6.78346">
        <ele>1744.45</ele>
        <time>2014-10-04T08:42:27Z</time>
      </trkpt>
      <trkpt lat="46.35421" lon="6.78349">
        <ele>1746.85</ele>
        <time>2014-10-04T08:42:49Z</time>
      </trkpt>
      <trkpt lat="46.35421" lon="6.78349">
        <ele>1746.85</ele>
        <time>2014-10-04T08:43:06Z</time>
      </trkpt>
      <trkpt lat="46.3542" lon="6.78349">
        <ele>1746.85</ele>
        <time>2014-10-04T08:43:22Z</time>
      </trkpt>
      <trkpt lat="46.35419" lon="6.78349">
        <ele>1747.33</ele>
        <time>2014-10-04T08:43:39Z</time>
      </trkpt>
      <trkpt lat="46.35416" lon="6.78347">
        <ele>1745.89</ele>
        <time>2014-10-04T08:44:08Z</time>
      </trkpt>
      <trkpt lat="46.35416" lon="6.78349">
        <ele>1746.37</ele>
        <time>2014-10-04T08:44:34Z</time>
      </trkpt>
      <trkpt lat="46.35413" lon="6.78347">
        <ele>1746.37</ele>
        <time>2014-10-04T08:44:57Z</time>
      </trkpt>
      <trkpt lat="46.35415" lon="6.78349">
        <ele>1746.37</ele>
        <time>2014-10-04T08:45:26Z</time>
      </trkpt>
      <trkpt lat="46.3542" lon="6.78347">
        <ele>1746.85</ele>
        <time>2014-10-04T08:45:52Z</time>
      </trkpt>
      <trkpt lat="46.35417" lon="6.7835">
        <ele>1745.89</ele>
        <time>2014-10-04T08:46:09Z</time>
      </trkpt>
      <trkpt lat="46.35412" lon="6.78351">
        <ele>1744.93</ele>
        <time>2014-10-04T08:46:26Z</time>
      </trkpt>
      <trkpt lat="46.35414" lon="6.78359">
        <ele>1743.97</ele>
        <time>2014-10-04T08:46:38Z</time>
      </trkpt>
      <trkpt lat="46.35415" lon="6.78359">
        <ele>1743.49</ele>
        <time>2014-10-04T08:46:40Z</time>
      </trkpt>
      <trkpt lat="46.35417" lon="6.78368">
        <ele>1741.08</ele>
        <time>2014-10-04T08:46:49Z</time>
      </trkpt>
      <trkpt lat="46.35419" lon="6.78383">
        <ele>1737.24</ele>
        <time>2014-10-04T08:47:02Z</time>
      </trkpt>
      <trkpt lat="46.35419" lon="6.78396">
        <ele>1733.88</ele>
        <time>2014-10-04T08:47:13Z</time>
      </trkpt>
      <trkpt lat="46.35419" lon="6.78398">
        <ele>1733.88</ele>
        <time>2014-10-04T08:47:14Z</time>
      </trkpt>
      <trkpt lat="46.35423" lon="6.78403">
        <ele>1732.43</ele>
        <time>2014-10-04T08:47:21Z</time>
      </trkpt>
      <trkpt lat="46.35423" lon="6.78416">
        <ele>1729.07</ele>
        <time>2014-10-04T08:47:33Z</time>
      </trkpt>
      <trkpt lat="46.35426" lon="6.78427">
        <ele>1725.7</ele>
        <time>2014-10-04T08:47:44Z</time>
      </trkpt>
      <trkpt lat="46.35431" lon="6.78438">
        <ele>1722.82</ele>
        <time>2014-10-04T08:47:57Z</time>
      </trkpt>
      <trkpt lat="46.35435" lon="6.78446">
        <ele>1719.94</ele>
        <time>2014-10-04T08:48:09Z</time>
      </trkpt>
      <trkpt lat="46.35438" lon="6.78451">
        <ele>1718.49</ele>
        <time>2014-10-04T08:48:16Z</time>
      </trkpt>
      <trkpt lat="46.35444" lon="6.78462">
        <ele>1715.61</ele>
        <time>2014-10-04T08:48:29Z</time>
      </trkpt>
      <trkpt lat="46.35451" lon="6.78472">
        <ele>1712.25</ele>
        <time>2014-10-04T08:48:41Z</time>
      </trkpt>
      <trkpt lat="46.35454" lon="6.78482">
        <ele>1709.84</ele>
        <time>2014-10-04T08:48:51Z</time>
      </trkpt>
      <trkpt lat="46.35457" lon="6.78492">
        <ele>1707.44</ele>
        <time>2014-10-04T08:49:01Z</time>
      </trkpt>
      <trkpt lat="46.35459" lon="6.78507">
        <ele>1705.04</ele>
        <time>2014-10-04T08:49:13Z</time>
      </trkpt>
      <trkpt lat="46.35467" lon="6.78515">
        <ele>1701.19</ele>
        <time>2014-10-04T08:49:27Z</time>
      </trkpt>
      <trkpt lat="46.35471" lon="6.7853">
        <ele>1698.31</ele>
        <time>2014-10-04T08:49:40Z</time>
      </trkpt>
      <trkpt lat="46.35471" lon="6.78532">
        <ele>1698.31</ele>
        <time>2014-10-04T08:49:41Z</time>
      </trkpt>
      <trkpt lat="46.35472" lon="6.78548">
        <ele>1694.46</ele>
        <time>2014-10-04T08:49:54Z</time>
      </trkpt>
      <trkpt lat="46.35469" lon="6.78556">
        <ele>1692.06</ele>
        <time>2014-10-04T08:50:06Z</time>
      </trkpt>
      <trkpt lat="46.35467" lon="6.78557">
        <ele>1691.58</ele>
        <time>2014-10-04T08:50:08Z</time>
      </trkpt>
      <trkpt lat="46.35455" lon="6.78551">
        <ele>1688.69</ele>
        <time>2014-10-04T08:50:24Z</time>
      </trkpt>
      <trkpt lat="46.35449" lon="6.78562">
        <ele>1686.77</ele>
        <time>2014-10-04T08:50:37Z</time>
      </trkpt>
      <trkpt lat="46.35456" lon="6.78584">
        <ele>1683.41</ele>
        <time>2014-10-04T08:50:54Z</time>
      </trkpt>
      <trkpt lat="46.35458" lon="6.78593">
        <ele>1681.96</ele>
        <time>2014-10-04T08:51:01Z</time>
      </trkpt>
      <trkpt lat="46.35465" lon="6.78609">
        <ele>1678.6</ele>
        <time>2014-10-04T08:51:15Z</time>
      </trkpt>
      <trkpt lat="46.35472" lon="6.78618">
        <ele>1675.72</ele>
        <time>2014-10-04T08:51:26Z</time>
      </trkpt>
      <trkpt lat="46.35475" lon="6.78625">
        <ele>1673.79</ele>
        <time>2014-10-04T08:51:33Z</time>
      </trkpt>
      <trkpt lat="46.35481" lon="6.78644">
        <ele>1670.91</ele>
        <time>2014-10-04T08:51:48Z</time>
      </trkpt>
      <trkpt lat="46.35491" lon="6.78665">
        <ele>1669.47</ele>
        <time>2014-10-04T08:52:02Z</time>
      </trkpt>
      <trkpt lat="46.35496" lon="6.78669">
        <ele>1668.51</ele>
        <time>2014-10-04T08:52:08Z</time>
      </trkpt>
      <trkpt lat="46.355" lon="6.78671">
        <ele>1668.02</ele>
        <time>2014-10-04T08:52:13Z</time>
      </trkpt>
      <trkpt lat="46.35504" lon="6.78685">
        <ele>1666.58</ele>
        <time>2014-10-04T08:52:27Z</time>
      </trkpt>
      <trkpt lat="46.35506" lon="6.78687">
        <ele>1666.58</ele>
        <time>2014-10-04T08:52:29Z</time>
      </trkpt>
      <trkpt lat="46.3551" lon="6.78703">
        <ele>1665.62</ele>
        <time>2014-10-04T08:52:44Z</time>
      </trkpt>
      <trkpt lat="46.3551" lon="6.78706">
        <ele>1665.14</ele>
        <time>2014-10-04T08:52:46Z</time>
      </trkpt>
      <trkpt lat="46.35509" lon="6.78716">
        <ele>1663.22</ele>
        <time>2014-10-04T08:52:59Z</time>
      </trkpt>
      <trkpt lat="46.3551" lon="6.78718">
        <ele>1662.74</ele>
        <time>2014-10-04T08:53:00Z</time>
      </trkpt>
      <trkpt lat="46.35514" lon="6.78727">
        <ele>1661.3</ele>
        <time>2014-10-04T08:53:07Z</time>
      </trkpt>
      <trkpt lat="46.35523" lon="6.78737">
        <ele>1662.26</ele>
        <time>2014-10-04T08:53:17Z</time>
      </trkpt>
      <trkpt lat="46.35525" lon="6.78739">
        <ele>1660.81</ele>
        <time>2014-10-04T08:53:19Z</time>
      </trkpt>
      <trkpt lat="46.35528" lon="6.78745">
        <ele>1660.81</ele>
        <time>2014-10-04T08:53:25Z</time>
      </trkpt>
      <trkpt lat="46.35529" lon="6.78751">
        <ele>1659.85</ele>
        <time>2014-10-04T08:53:29Z</time>
      </trkpt>
      <trkpt lat="46.35529" lon="6.78756">
        <ele>1659.37</ele>
        <time>2014-10-04T08:53:32Z</time>
      </trkpt>
      <trkpt lat="46.35531" lon="6.78763">
        <ele>1659.37</ele>
        <time>2014-10-04T08:53:36Z</time>
      </trkpt>
      <trkpt lat="46.3554" lon="6.78776">
        <ele>1656.97</ele>
        <time>2014-10-04T08:53:48Z</time>
      </trkpt>
      <trkpt lat="46.3555" lon="6.78792">
        <ele>1656.49</ele>
        <time>2014-10-04T08:54:02Z</time>
      </trkpt>
      <trkpt lat="46.35557" lon="6.78803">
        <ele>1655.53</ele>
        <time>2014-10-04T08:54:13Z</time>
      </trkpt>
      <trkpt lat="46.35562" lon="6.78809">
        <ele>1655.53</ele>
        <time>2014-10-04T08:54:19Z</time>
      </trkpt>
      <trkpt lat="46.35568" lon="6.78818">
        <ele>1656.97</ele>
        <time>2014-10-04T08:54:31Z</time>
      </trkpt>
      <trkpt lat="46.35571" lon="6.78829">
        <ele>1659.37</ele>
        <time>2014-10-04T08:54:43Z</time>
      </trkpt>
      <trkpt lat="46.35572" lon="6.78849">
        <ele>1659.37</ele>
        <time>2014-10-04T08:54:59Z</time>
      </trkpt>
      <trkpt lat="46.35572" lon="6.78863">
        <ele>1660.33</ele>
        <time>2014-10-04T08:55:11Z</time>
      </trkpt>
      <trkpt lat="46.35573" lon="6.78864">
        <ele>1660.33</ele>
        <time>2014-10-04T08:55:12Z</time>
      </trkpt>
      <trkpt lat="46.3557" lon="6.78884">
        <ele>1663.7</ele>
        <time>2014-10-04T08:55:27Z</time>
      </trkpt>
      <trkpt lat="46.35568" lon="6.78894">
        <ele>1665.14</ele>
        <time>2014-10-04T08:55:38Z</time>
      </trkpt>
      <trkpt lat="46.35568" lon="6.78905">
        <ele>1665.14</ele>
        <time>2014-10-04T08:55:44Z</time>
      </trkpt>
      <trkpt lat="46.35569" lon="6.78908">
        <ele>1665.14</ele>
        <time>2014-10-04T08:55:47Z</time>
      </trkpt>
      <trkpt lat="46.35568" lon="6.7892">
        <ele>1665.14</ele>
        <time>2014-10-04T08:55:54Z</time>
      </trkpt>
      <trkpt lat="46.35567" lon="6.7893">
        <ele>1665.14</ele>
        <time>2014-10-04T08:56:00Z</time>
      </trkpt>
      <trkpt lat="46.35567" lon="6.78935">
        <ele>1665.14</ele>
        <time>2014-10-04T08:56:04Z</time>
      </trkpt>
      <trkpt lat="46.35564" lon="6.78944">
        <ele>1666.1</ele>
        <time>2014-10-04T08:56:09Z</time>
      </trkpt>
      <trkpt lat="46.35566" lon="6.78954">
        <ele>1666.58</ele>
        <time>2014-10-04T08:56:17Z</time>
      </trkpt>
      <trkpt lat="46.35569" lon="6.78963">
        <ele>1666.58</ele>
        <time>2014-10-04T08:56:23Z</time>
      </trkpt>
      <trkpt lat="46.35571" lon="6.7897">
        <ele>1666.58</ele>
        <time>2014-10-04T08:56:28Z</time>
      </trkpt>
      <trkpt lat="46.35574" lon="6.78978">
        <ele>1666.58</ele>
        <time>2014-10-04T08:56:34Z</time>
      </trkpt>
      <trkpt lat="46.35579" lon="6.78997">
        <ele>1667.06</ele>
        <time>2014-10-04T08:56:47Z</time>
      </trkpt>
      <trkpt lat="46.35582" lon="6.7901">
        <ele>1667.54</ele>
        <time>2014-10-04T08:56:56Z</time>
      </trkpt>
      <trkpt lat="46.35581" lon="6.79028">
        <ele>1664.66</ele>
        <time>2014-10-04T08:57:11Z</time>
      </trkpt>
      <trkpt lat="46.35577" lon="6.79038">
        <ele>1662.26</ele>
        <time>2014-10-04T08:57:24Z</time>
      </trkpt>
      <trkpt lat="46.35576" lon="6.79043">
        <ele>1661.78</ele>
        <time>2014-10-04T08:57:28Z</time>
      </trkpt>
      <trkpt lat="46.35575" lon="6.79045">
        <ele>1661.3</ele>
        <time>2014-10-04T08:57:30Z</time>
      </trkpt>
      <trkpt lat="46.3557" lon="6.79061">
        <ele>1658.89</ele>
        <time>2014-10-04T08:57:43Z</time>
      </trkpt>
      <trkpt lat="46.35563" lon="6.79075">
        <ele>1655.53</ele>
        <time>2014-10-04T08:57:56Z</time>
      </trkpt>
      <trkpt lat="46.35562" lon="6.79078">
        <ele>1655.53</ele>
        <time>2014-10-04T08:57:59Z</time>
      </trkpt>
      <trkpt lat="46.35557" lon="6.79086">
        <ele>1654.09</ele>
        <time>2014-10-04T08:58:08Z</time>
      </trkpt>
      <trkpt lat="46.35546" lon="6.79097">
        <ele>1653.6</ele>
        <time>2014-10-04T08:58:24Z</time>
      </trkpt>
      <trkpt lat="46.35546" lon="6.79098">
        <ele>1653.6</ele>
        <time>2014-10-04T08:58:25Z</time>
      </trkpt>
      <trkpt lat="46.35533" lon="6.79106">
        <ele>1653.6</ele>
        <time>2014-10-04T08:58:41Z</time>
      </trkpt>
      <trkpt lat="46.3553" lon="6.79109">
        <ele>1653.6</ele>
        <time>2014-10-04T08:58:48Z</time>
      </trkpt>
      <trkpt lat="46.35515" lon="6.79112">
        <ele>1653.12</ele>
        <time>2014-10-04T08:59:03Z</time>
      </trkpt>
      <trkpt lat="46.35508" lon="6.79115">
        <ele>1653.12</ele>
        <time>2014-10-04T08:59:17Z</time>
      </trkpt>
      <trkpt lat="46.35503" lon="6.79119">
        <ele>1653.12</ele>
        <time>2014-10-04T08:59:29Z</time>
      </trkpt>
      <trkpt lat="46.35503" lon="6.79127">
        <ele>1653.12</ele>
        <time>2014-10-04T08:59:34Z</time>
      </trkpt>
      <trkpt lat="46.35504" lon="6.79135">
        <ele>1652.64</ele>
        <time>2014-10-04T08:59:39Z</time>
      </trkpt>
      <trkpt lat="46.355" lon="6.79159">
        <ele>1651.2</ele>
        <time>2014-10-04T08:59:53Z</time>
      </trkpt>
      <trkpt lat="46.355" lon="6.79172">
        <ele>1650.72</ele>
        <time>2014-10-04T09:00:02Z</time>
      </trkpt>
      <trkpt lat="46.35503" lon="6.79204">
        <ele>1650.24</ele>
        <time>2014-10-04T09:00:19Z</time>
      </trkpt>
      <trkpt lat="46.35506" lon="6.79213">
        <ele>1650.24</ele>
        <time>2014-10-04T09:00:26Z</time>
      </trkpt>
      <trkpt lat="46.35514" lon="6.79229">
        <ele>1650.24</ele>
        <time>2014-10-04T09:00:41Z</time>
      </trkpt>
      <trkpt lat="46.35516" lon="6.79243">
        <ele>1650.24</ele>
        <time>2014-10-04T09:00:53Z</time>
      </trkpt>
      <trkpt lat="46.35518" lon="6.79255">
        <ele>1648.8</ele>
        <time>2014-10-04T09:01:05Z</time>
      </trkpt>
      <trkpt lat="46.35519" lon="6.79266">
        <ele>1646.88</ele>
        <time>2014-10-04T09:01:18Z</time>
      </trkpt>
      <trkpt lat="46.3552" lon="6.79281">
        <ele>1646.88</ele>
        <time>2014-10-04T09:01:30Z</time>
      </trkpt>
      <trkpt lat="46.35519" lon="6.79295">
        <ele>1646.88</ele>
        <time>2014-10-04T09:01:44Z</time>
      </trkpt>
      <trkpt lat="46.35519" lon="6.79297">
        <ele>1646.88</ele>
        <time>2014-10-04T09:01:46Z</time>
      </trkpt>
      <trkpt lat="46.35518" lon="6.79313">
        <ele>1648.32</ele>
        <time>2014-10-04T09:01:59Z</time>
      </trkpt>
      <trkpt lat="46.35517" lon="6.79325">
        <ele>1649.76</ele>
        <time>2014-10-04T09:02:12Z</time>
      </trkpt>
      <trkpt lat="46.35521" lon="6.79336">
        <ele>1650.72</ele>
        <time>2014-10-04T09:02:24Z</time>
      </trkpt>
      <trkpt lat="46.35524" lon="6.79351">
        <ele>1651.68</ele>
        <time>2014-10-04T09:02:36Z</time>
      </trkpt>
      <trkpt lat="46.35517" lon="6.79363">
        <ele>1651.68</ele>
        <time>2014-10-04T09:02:49Z</time>
      </trkpt>
      <trkpt lat="46.35519" lon="6.7938">
        <ele>1654.57</ele>
        <time>2014-10-04T09:03:05Z</time>
      </trkpt>
      <trkpt lat="46.35522" lon="6.79391">
        <ele>1656.01</ele>
        <time>2014-10-04T09:03:17Z</time>
      </trkpt>
      <trkpt lat="46.35525" lon="6.79404">
        <ele>1658.41</ele>
        <time>2014-10-04T09:03:32Z</time>
      </trkpt>
      <trkpt lat="46.35532" lon="6.79412">
        <ele>1659.85</ele>
        <time>2014-10-04T09:03:46Z</time>
      </trkpt>
      <trkpt lat="46.3554" lon="6.79423">
        <ele>1661.3</ele>
        <time>2014-10-04T09:04:01Z</time>
      </trkpt>
      <trkpt lat="46.35545" lon="6.79429">
        <ele>1661.78</ele>
        <time>2014-10-04T09:04:09Z</time>
      </trkpt>
      <trkpt lat="46.35554" lon="6.79441">
        <ele>1662.74</ele>
        <time>2014-10-04T09:04:24Z</time>
      </trkpt>
      <trkpt lat="46.35562" lon="6.79446">
        <ele>1665.14</ele>
        <time>2014-10-04T09:04:38Z</time>
      </trkpt>
      <trkpt lat="46.35574" lon="6.79445">
        <ele>1665.62</ele>
        <time>2014-10-04T09:04:51Z</time>
      </trkpt>
      <trkpt lat="46.35579" lon="6.79452">
        <ele>1666.58</ele>
        <time>2014-10-04T09:05:03Z</time>
      </trkpt>
      <trkpt lat="46.35582" lon="6.79455">
        <ele>1667.06</ele>
        <time>2014-10-04T09:05:07Z</time>
      </trkpt>
      <trkpt lat="46.35593" lon="6.79464">
        <ele>1668.51</ele>
        <time>2014-10-04T09:05:22Z</time>
      </trkpt>
      <trkpt lat="46.35602" lon="6.79467">
        <ele>1670.43</ele>
        <time>2014-10-04T09:05:36Z</time>
      </trkpt>
      <trkpt lat="46.3561" lon="6.79477">
        <ele>1670.43</ele>
        <time>2014-10-04T09:05:52Z</time>
      </trkpt>
      <trkpt lat="46.3562" lon="6.79493">
        <ele>1670.43</ele>
        <time>2014-10-04T09:06:06Z</time>
      </trkpt>
      <trkpt lat="46.35626" lon="6.79506">
        <ele>1670.43</ele>
        <time>2014-10-04T09:06:20Z</time>
      </trkpt>
      <trkpt lat="46.35627" lon="6.79516">
        <ele>1671.87</ele>
        <time>2014-10-04T09:06:33Z</time>
      </trkpt>
      <trkpt lat="46.35628" lon="6.7953">
        <ele>1673.79</ele>
        <time>2014-10-04T09:06:47Z</time>
      </trkpt>
      <trkpt lat="46.35627" lon="6.7954">
        <ele>1676.68</ele>
        <time>2014-10-04T09:07:02Z</time>
      </trkpt>
      <trkpt lat="46.35631" lon="6.79548">
        <ele>1678.6</ele>
        <time>2014-10-04T09:07:16Z</time>
      </trkpt>
      <trkpt lat="46.35633" lon="6.79563">
        <ele>1680.52</ele>
        <time>2014-10-04T09:07:31Z</time>
      </trkpt>
      <trkpt lat="46.35635" lon="6.79574">
        <ele>1681</ele>
        <time>2014-10-04T09:07:45Z</time>
      </trkpt>
      <trkpt lat="46.35639" lon="6.79585">
        <ele>1681</ele>
        <time>2014-10-04T09:07:59Z</time>
      </trkpt>
      <trkpt lat="46.35642" lon="6.7959">
        <ele>1681.96</ele>
        <time>2014-10-04T09:08:11Z</time>
      </trkpt>
      <trkpt lat="46.35651" lon="6.7959">
        <ele>1684.37</ele>
        <time>2014-10-04T09:08:26Z</time>
      </trkpt>
      <trkpt lat="46.3566" lon="6.79595">
        <ele>1686.29</ele>
        <time>2014-10-04T09:08:41Z</time>
      </trkpt>
      <trkpt lat="46.35664" lon="6.79605">
        <ele>1688.21</ele>
        <time>2014-10-04T09:08:55Z</time>
      </trkpt>
      <trkpt lat="46.35666" lon="6.79615">
        <ele>1690.62</ele>
        <time>2014-10-04T09:09:08Z</time>
      </trkpt>
      <trkpt lat="46.35667" lon="6.79623">
        <ele>1692.54</ele>
        <time>2014-10-04T09:09:21Z</time>
      </trkpt>
      <trkpt lat="46.35667" lon="6.79633">
        <ele>1694.46</ele>
        <time>2014-10-04T09:09:36Z</time>
      </trkpt>
      <trkpt lat="46.35671" lon="6.79644">
        <ele>1696.86</ele>
        <time>2014-10-04T09:09:50Z</time>
      </trkpt>
      <trkpt lat="46.35672" lon="6.79653">
        <ele>1699.27</ele>
        <time>2014-10-04T09:10:03Z</time>
      </trkpt>
      <trkpt lat="46.35669" lon="6.79667">
        <ele>1701.19</ele>
        <time>2014-10-04T09:10:18Z</time>
      </trkpt>
      <trkpt lat="46.35672" lon="6.79682">
        <ele>1704.07</ele>
        <time>2014-10-04T09:10:35Z</time>
      </trkpt>
      <trkpt lat="46.35668" lon="6.79692">
        <ele>1706</ele>
        <time>2014-10-04T09:10:48Z</time>
      </trkpt>
      <trkpt lat="46.35663" lon="6.79707">
        <ele>1708.4</ele>
        <time>2014-10-04T09:11:03Z</time>
      </trkpt>
      <trkpt lat="46.35657" lon="6.79719">
        <ele>1711.76</ele>
        <time>2014-10-04T09:11:19Z</time>
      </trkpt>
      <trkpt lat="46.35651" lon="6.79734">
        <ele>1714.17</ele>
        <time>2014-10-04T09:11:36Z</time>
      </trkpt>
      <trkpt lat="46.35643" lon="6.79743">
        <ele>1716.09</ele>
        <time>2014-10-04T09:11:50Z</time>
      </trkpt>
      <trkpt lat="46.35638" lon="6.79755">
        <ele>1717.53</ele>
        <time>2014-10-04T09:12:03Z</time>
      </trkpt>
      <trkpt lat="46.35634" lon="6.79765">
        <ele>1719.94</ele>
        <time>2014-10-04T09:12:18Z</time>
      </trkpt>
      <trkpt lat="46.35635" lon="6.79777">
        <ele>1722.82</ele>
        <time>2014-10-04T09:12:32Z</time>
      </trkpt>
      <trkpt lat="46.35631" lon="6.7979">
        <ele>1725.22</ele>
        <time>2014-10-04T09:12:48Z</time>
      </trkpt>
      <trkpt lat="46.35625" lon="6.79801">
        <ele>1728.59</ele>
        <time>2014-10-04T09:13:03Z</time>
      </trkpt>
      <trkpt lat="46.35618" lon="6.7981">
        <ele>1730.99</ele>
        <time>2014-10-04T09:13:18Z</time>
      </trkpt>
      <trkpt lat="46.35611" lon="6.7982">
        <ele>1732.91</ele>
        <time>2014-10-04T09:13:32Z</time>
      </trkpt>
      <trkpt lat="46.35611" lon="6.79832">
        <ele>1735.8</ele>
        <time>2014-10-04T09:13:46Z</time>
      </trkpt>
      <trkpt lat="46.35607" lon="6.7984">
        <ele>1738.68</ele>
        <time>2014-10-04T09:14:01Z</time>
      </trkpt>
      <trkpt lat="46.35604" lon="6.79848">
        <ele>1742.05</ele>
        <time>2014-10-04T09:14:16Z</time>
      </trkpt>
      <trkpt lat="46.356" lon="6.7986">
        <ele>1744.93</ele>
        <time>2014-10-04T09:14:32Z</time>
      </trkpt>
      <trkpt lat="46.35598" lon="6.79874">
        <ele>1748.29</ele>
        <time>2014-10-04T09:14:48Z</time>
      </trkpt>
      <trkpt lat="46.35596" lon="6.79881">
        <ele>1751.18</ele>
        <time>2014-10-04T09:15:02Z</time>
      </trkpt>
      <trkpt lat="46.35594" lon="6.79888">
        <ele>1753.1</ele>
        <time>2014-10-04T09:15:16Z</time>
      </trkpt>
      <trkpt lat="46.3559" lon="6.79899">
        <ele>1756.47</ele>
        <time>2014-10-04T09:15:30Z</time>
      </trkpt>
      <trkpt lat="46.35587" lon="6.79909">
        <ele>1758.87</ele>
        <time>2014-10-04T09:15:44Z</time>
      </trkpt>
      <trkpt lat="46.35589" lon="6.79914">
        <ele>1761.27</ele>
        <time>2014-10-04T09:15:58Z</time>
      </trkpt>
      <trkpt lat="46.35596" lon="6.79914">
        <ele>1763.68</ele>
        <time>2014-10-04T09:16:11Z</time>
      </trkpt>
      <trkpt lat="46.35599" lon="6.79917">
        <ele>1766.08</ele>
        <time>2014-10-04T09:16:23Z</time>
      </trkpt>
      <trkpt lat="46.356" lon="6.7992">
        <ele>1767.04</ele>
        <time>2014-10-04T09:16:37Z</time>
      </trkpt>
      <trkpt lat="46.356" lon="6.79918">
        <ele>1767.04</ele>
        <time>2014-10-04T09:16:51Z</time>
      </trkpt>
      <trkpt lat="46.35602" lon="6.79919">
        <ele>1767.04</ele>
        <time>2014-10-04T09:17:10Z</time>
      </trkpt>
      <trkpt lat="46.35604" lon="6.79917">
        <ele>1767.52</ele>
        <time>2014-10-04T09:17:28Z</time>
      </trkpt>
      <trkpt lat="46.35603" lon="6.79917">
        <ele>1767.52</ele>
        <time>2014-10-04T09:17:47Z</time>
      </trkpt>
      <trkpt lat="46.35603" lon="6.79918">
        <ele>1766.56</ele>
        <time>2014-10-04T09:17:58Z</time>
      </trkpt>
      <trkpt lat="46.35603" lon="6.79917">
        <ele>1766.56</ele>
        <time>2014-10-04T09:18:23Z</time>
      </trkpt>
      <trkpt lat="46.35604" lon="6.79917">
        <ele>1766.56</ele>
        <time>2014-10-04T09:18:53Z</time>
      </trkpt>
      <trkpt lat="46.35603" lon="6.79918">
        <ele>1767.04</ele>
        <time>2014-10-04T09:19:26Z</time>
      </trkpt>
      <trkpt lat="46.35602" lon="6.79917">
        <ele>1768.48</ele>
        <time>2014-10-04T09:19:46Z</time>
      </trkpt>
      <trkpt lat="46.356" lon="6.79917">
        <ele>1768.48</ele>
        <time>2014-10-04T09:20:00Z</time>
      </trkpt>
      <trkpt lat="46.35601" lon="6.79916">
        <ele>1768.48</ele>
        <time>2014-10-04T09:20:29Z</time>
      </trkpt>
      <trkpt lat="46.35601" lon="6.79916">
        <ele>1768.48</ele>
        <time>2014-10-04T09:20:54Z</time>
      </trkpt>
      <trkpt lat="46.35602" lon="6.79916">
        <ele>1768.48</ele>
        <time>2014-10-04T09:21:15Z</time>
      </trkpt>
      <trkpt lat="46.356" lon="6.7992">
        <ele>1768.48</ele>
        <time>2014-10-04T09:21:35Z</time>
      </trkpt>
      <trkpt lat="46.35603" lon="6.79921">
        <ele>1768.96</ele>
        <time>2014-10-04T09:21:57Z</time>
      </trkpt>
      <trkpt lat="46.35601" lon="6.79924">
        <ele>1768.96</ele>
        <time>2014-10-04T09:22:26Z</time>
      </trkpt>
      <trkpt lat="46.356" lon="6.79923">
        <ele>1768.96</ele>
        <time>2014-10-04T09:22:40Z</time>
      </trkpt>
      <trkpt lat="46.35604" lon="6.7992">
        <ele>1768.96</ele>
        <time>2014-10-04T09:23:01Z</time>
      </trkpt>
      <trkpt lat="46.35602" lon="6.79919">
        <ele>1769.44</ele>
        <time>2014-10-04T09:23:23Z</time>
      </trkpt>
      <trkpt lat="46.35604" lon="6.79916">
        <ele>1769.92</ele>
        <time>2014-10-04T09:23:43Z</time>
      </trkpt>
      <trkpt lat="46.35604" lon="6.79914">
        <ele>1769.92</ele>
        <time>2014-10-04T09:24:04Z</time>
      </trkpt>
      <trkpt lat="46.35606" lon="6.79914">
        <ele>1769.92</ele>
        <time>2014-10-04T09:24:36Z</time>
      </trkpt>
      <trkpt lat="46.35605" lon="6.79914">
        <ele>1769.44</ele>
        <time>2014-10-04T09:24:56Z</time>
      </trkpt>
      <trkpt lat="46.35603" lon="6.79919">
        <ele>1769.92</ele>
        <time>2014-10-04T09:25:19Z</time>
      </trkpt>
      <trkpt lat="46.356" lon="6.79922">
        <ele>1769.92</ele>
        <time>2014-10-04T09:25:33Z</time>
      </trkpt>
      <trkpt lat="46.35602" lon="6.79919">
        <ele>1769.92</ele>
        <time>2014-10-04T09:25:56Z</time>
      </trkpt>
      <trkpt lat="46.35606" lon="6.79918">
        <ele>1769.92</ele>
        <time>2014-10-04T09:26:21Z</time>
      </trkpt>
      <trkpt lat="46.35602" lon="6.7992">
        <ele>1769.92</ele>
        <time>2014-10-04T09:26:38Z</time>
      </trkpt>
      <trkpt lat="46.35602" lon="6.79919">
        <ele>1770.41</ele>
        <time>2014-10-04T09:27:09Z</time>
      </trkpt>
      <trkpt lat="46.356" lon="6.79921">
        <ele>1770.41</ele>
        <time>2014-10-04T09:27:36Z</time>
      </trkpt>
      <trkpt lat="46.356" lon="6.79922">
        <ele>1770.41</ele>
        <time>2014-10-04T09:27:55Z</time>
      </trkpt>
      <trkpt lat="46.35602" lon="6.79925">
        <ele>1770.41</ele>
        <time>2014-10-04T09:28:21Z</time>
      </trkpt>
      <trkpt lat="46.35601" lon="6.7993">
        <ele>1770.41</ele>
        <time>2014-10-04T09:28:25Z</time>
      </trkpt>
      <trkpt lat="46.35601" lon="6.79932">
        <ele>1768.96</ele>
        <time>2014-10-04T09:28:27Z</time>
      </trkpt>
      <trkpt lat="46.35599" lon="6.79948">
        <ele>1767.04</ele>
        <time>2014-10-04T09:28:38Z</time>
      </trkpt>
      <trkpt lat="46.35602" lon="6.79963">
        <ele>1765.6</ele>
        <time>2014-10-04T09:28:52Z</time>
      </trkpt>
      <trkpt lat="46.35604" lon="6.79967">
        <ele>1765.12</ele>
        <time>2014-10-04T09:28:55Z</time>
      </trkpt>
      <trkpt lat="46.35609" lon="6.79984">
        <ele>1763.68</ele>
        <time>2014-10-04T09:29:07Z</time>
      </trkpt>
      <trkpt lat="46.35613" lon="6.80004">
        <ele>1762.71</ele>
        <time>2014-10-04T09:29:21Z</time>
      </trkpt>
      <trkpt lat="46.35616" lon="6.80017">
        <ele>1762.23</ele>
        <time>2014-10-04T09:29:35Z</time>
      </trkpt>
      <trkpt lat="46.35621" lon="6.80027">
        <ele>1762.71</ele>
        <time>2014-10-04T09:29:49Z</time>
      </trkpt>
      <trkpt lat="46.35631" lon="6.80039">
        <ele>1763.68</ele>
        <time>2014-10-04T09:30:03Z</time>
      </trkpt>
      <trkpt lat="46.35636" lon="6.80045">
        <ele>1762.23</ele>
        <time>2014-10-04T09:30:11Z</time>
      </trkpt>
      <trkpt lat="46.35645" lon="6.80062">
        <ele>1760.79</ele>
        <time>2014-10-04T09:30:27Z</time>
      </trkpt>
      <trkpt lat="46.3565" lon="6.80074">
        <ele>1760.79</ele>
        <time>2014-10-04T09:30:39Z</time>
      </trkpt>
      <trkpt lat="46.35653" lon="6.80086">
        <ele>1759.35</ele>
        <time>2014-10-04T09:30:51Z</time>
      </trkpt>
      <trkpt lat="46.35655" lon="6.801">
        <ele>1758.39</ele>
        <time>2014-10-04T09:31:04Z</time>
      </trkpt>
      <trkpt lat="46.35661" lon="6.8011">
        <ele>1755.02</ele>
        <time>2014-10-04T09:31:17Z</time>
      </trkpt>
      <trkpt lat="46.35662" lon="6.80124">
        <ele>1753.1</ele>
        <time>2014-10-04T09:31:32Z</time>
      </trkpt>
      <trkpt lat="46.35665" lon="6.80139">
        <ele>1750.7</ele>
        <time>2014-10-04T09:31:46Z</time>
      </trkpt>
      <trkpt lat="46.35665" lon="6.80151">
        <ele>1749.74</ele>
        <time>2014-10-04T09:31:57Z</time>
      </trkpt>
      <trkpt lat="46.35665" lon="6.80169">
        <ele>1747.81</ele>
        <time>2014-10-04T09:32:13Z</time>
      </trkpt>
      <trkpt lat="46.35667" lon="6.80177">
        <ele>1744.45</ele>
        <time>2014-10-04T09:32:24Z</time>
      </trkpt>
      <trkpt lat="46.3567" lon="6.80189">
        <ele>1741.08</ele>
        <time>2014-10-04T09:32:37Z</time>
      </trkpt>
      <trkpt lat="46.35673" lon="6.80196">
        <ele>1738.68</ele>
        <time>2014-10-04T09:32:52Z</time>
      </trkpt>
      <trkpt lat="46.35676" lon="6.80206">
        <ele>1735.8</ele>
        <time>2014-10-04T09:33:06Z</time>
      </trkpt>
      <trkpt lat="46.35676" lon="6.80217">
        <ele>1733.88</ele>
        <time>2014-10-04T09:33:19Z</time>
      </trkpt>
      <trkpt lat="46.35679" lon="6.80227">
        <ele>1733.39</ele>
        <time>2014-10-04T09:33:33Z</time>
      </trkpt>
      <trkpt lat="46.35681" lon="6.80238">
        <ele>1730.99</ele>
        <time>2014-10-04T09:33:46Z</time>
      </trkpt>
      <trkpt lat="46.35684" lon="6.80244">
        <ele>1729.55</ele>
        <time>2014-10-04T09:33:58Z</time>
      </trkpt>
      <trkpt lat="46.35684" lon="6.80246">
        <ele>1729.55</ele>
        <time>2014-10-04T09:34:02Z</time>
      </trkpt>
      <trkpt lat="46.35691" lon="6.80251">
        <ele>1728.11</ele>
        <time>2014-10-04T09:34:18Z</time>
      </trkpt>
      <trkpt lat="46.35697" lon="6.80249">
        <ele>1727.63</ele>
        <time>2014-10-04T09:34:34Z</time>
      </trkpt>
      <trkpt lat="46.35696" lon="6.80248">
        <ele>1727.63</ele>
        <time>2014-10-04T09:35:00Z</time>
      </trkpt>
      <trkpt lat="46.35697" lon="6.80258">
        <ele>1727.15</ele>
        <time>2014-10-04T09:35:14Z</time>
      </trkpt>
      <trkpt lat="46.35703" lon="6.80265">
        <ele>1726.67</ele>
        <time>2014-10-04T09:35:28Z</time>
      </trkpt>
      <trkpt lat="46.35709" lon="6.80275">
        <ele>1725.7</ele>
        <time>2014-10-04T09:35:42Z</time>
      </trkpt>
      <trkpt lat="46.35713" lon="6.80286">
        <ele>1725.7</ele>
        <time>2014-10-04T09:35:55Z</time>
      </trkpt>
      <trkpt lat="46.35721" lon="6.80292">
        <ele>1724.26</ele>
        <time>2014-10-04T09:36:07Z</time>
      </trkpt>
      <trkpt lat="46.35729" lon="6.80298">
        <ele>1723.78</ele>
        <time>2014-10-04T09:36:20Z</time>
      </trkpt>
      <trkpt lat="46.3574" lon="6.80303">
        <ele>1722.34</ele>
        <time>2014-10-04T09:36:34Z</time>
      </trkpt>
      <trkpt lat="46.35749" lon="6.80311">
        <ele>1722.34</ele>
        <time>2014-10-04T09:36:50Z</time>
      </trkpt>
      <trkpt lat="46.35759" lon="6.80314">
        <ele>1720.9</ele>
        <time>2014-10-04T09:37:04Z</time>
      </trkpt>
      <trkpt lat="46.35767" lon="6.80322">
        <ele>1720.9</ele>
        <time>2014-10-04T09:37:19Z</time>
      </trkpt>
      <trkpt lat="46.35769" lon="6.80326">
        <ele>1722.34</ele>
        <time>2014-10-04T09:37:25Z</time>
      </trkpt>
      <trkpt lat="46.35777" lon="6.8033">
        <ele>1723.78</ele>
        <time>2014-10-04T09:37:37Z</time>
      </trkpt>
      <trkpt lat="46.35783" lon="6.80336">
        <ele>1723.78</ele>
        <time>2014-10-04T09:37:51Z</time>
      </trkpt>
      <trkpt lat="46.35792" lon="6.8034">
        <ele>1724.74</ele>
        <time>2014-10-04T09:38:05Z</time>
      </trkpt>
      <trkpt lat="46.35799" lon="6.80344">
        <ele>1727.15</ele>
        <time>2014-10-04T09:38:19Z</time>
      </trkpt>
      <trkpt lat="46.35802" lon="6.80347">
        <ele>1730.51</ele>
        <time>2014-10-04T09:38:33Z</time>
      </trkpt>
      <trkpt lat="46.35803" lon="6.80353">
        <ele>1733.39</ele>
        <time>2014-10-04T09:38:45Z</time>
      </trkpt>
      <trkpt lat="46.35805" lon="6.80357">
        <ele>1735.8</ele>
        <time>2014-10-04T09:39:02Z</time>
      </trkpt>
      <trkpt lat="46.35807" lon="6.8036">
        <ele>1736.76</ele>
        <time>2014-10-04T09:39:17Z</time>
      </trkpt>
      <trkpt lat="46.35814" lon="6.80358">
        <ele>1736.76</ele>
        <time>2014-10-04T09:39:32Z</time>
      </trkpt>
      <trkpt lat="46.35824" lon="6.80362">
        <ele>1737.24</ele>
        <time>2014-10-04T09:39:47Z</time>
      </trkpt>
      <trkpt lat="46.35827" lon="6.80366">
        <ele>1735.8</ele>
        <time>2014-10-04T09:39:52Z</time>
      </trkpt>
      <trkpt lat="46.35829" lon="6.80367">
        <ele>1735.8</ele>
        <time>2014-10-04T09:39:55Z</time>
      </trkpt>
      <trkpt lat="46.35837" lon="6.80368">
        <ele>1736.76</ele>
        <time>2014-10-04T09:40:11Z</time>
      </trkpt>
      <trkpt lat="46.35834" lon="6.8037">
        <ele>1736.76</ele>
        <time>2014-10-04T09:40:40Z</time>
      </trkpt>
      <trkpt lat="46.35839" lon="6.80369">
        <ele>1735.8</ele>
        <time>2014-10-04T09:41:03Z</time>
      </trkpt>
      <trkpt lat="46.35843" lon="6.80369">
        <ele>1735.8</ele>
        <time>2014-10-04T09:41:19Z</time>
      </trkpt>
      <trkpt lat="46.35846" lon="6.80364">
        <ele>1735.8</ele>
        <time>2014-10-04T09:41:36Z</time>
      </trkpt>
      <trkpt lat="46.35846" lon="6.80363">
        <ele>1735.8</ele>
        <time>2014-10-04T09:42:04Z</time>
      </trkpt>
      <trkpt lat="46.35839" lon="6.80369">
        <ele>1735.8</ele>
        <time>2014-10-04T09:42:18Z</time>
      </trkpt>
      <trkpt lat="46.35836" lon="6.80369">
        <ele>1735.8</ele>
        <time>2014-10-04T09:42:41Z</time>
      </trkpt>
      <trkpt lat="46.3583" lon="6.80366">
        <ele>1735.8</ele>
        <time>2014-10-04T09:43:00Z</time>
      </trkpt>
      <trkpt lat="46.35839" lon="6.80368">
        <ele>1735.8</ele>
        <time>2014-10-04T09:43:28Z</time>
      </trkpt>
      <trkpt lat="46.3584" lon="6.80367">
        <ele>1735.8</ele>
        <time>2014-10-04T09:43:29Z</time>
      </trkpt>
      <trkpt lat="46.35841" lon="6.80376">
        <ele>1734.84</ele>
        <time>2014-10-04T09:43:43Z</time>
      </trkpt>
      <trkpt lat="46.35836" lon="6.80384">
        <ele>1732.91</ele>
        <time>2014-10-04T09:43:57Z</time>
      </trkpt>
      <trkpt lat="46.35828" lon="6.80389">
        <ele>1729.55</ele>
        <time>2014-10-04T09:44:10Z</time>
      </trkpt>
      <trkpt lat="46.35826" lon="6.80401">
        <ele>1726.18</ele>
        <time>2014-10-04T09:44:23Z</time>
      </trkpt>
      <trkpt lat="46.35828" lon="6.80411">
        <ele>1723.3</ele>
        <time>2014-10-04T09:44:35Z</time>
      </trkpt>
      <trkpt lat="46.35822" lon="6.8041">
        <ele>1721.38</ele>
        <time>2014-10-04T09:44:45Z</time>
      </trkpt>
      <trkpt lat="46.35812" lon="6.80412">
        <ele>1717.53</ele>
        <time>2014-10-04T09:44:57Z</time>
      </trkpt>
      <trkpt lat="46.35802" lon="6.80402">
        <ele>1714.65</ele>
        <time>2014-10-04T09:45:09Z</time>
      </trkpt>
      <trkpt lat="46.35797" lon="6.80397">
        <ele>1712.25</ele>
        <time>2014-10-04T09:45:15Z</time>
      </trkpt>
      <trkpt lat="46.3579" lon="6.80404">
        <ele>1708.88</ele>
        <time>2014-10-04T09:45:28Z</time>
      </trkpt>
      <trkpt lat="46.35784" lon="6.80406">
        <ele>1705.52</ele>
        <time>2014-10-04T09:45:37Z</time>
      </trkpt>
      <trkpt lat="46.35788" lon="6.80418">
        <ele>1702.15</ele>
        <time>2014-10-04T09:45:51Z</time>
      </trkpt>
      <trkpt lat="46.35789" lon="6.80426">
        <ele>1698.79</ele>
        <time>2014-10-04T09:46:03Z</time>
      </trkpt>
      <trkpt lat="46.3578" lon="6.80431">
        <ele>1695.9</ele>
        <time>2014-10-04T09:46:16Z</time>
      </trkpt>
      <trkpt lat="46.35776" lon="6.80438">
        <ele>1692.54</ele>
        <time>2014-10-04T09:46:27Z</time>
      </trkpt>
      <trkpt lat="46.35785" lon="6.80445">
        <ele>1689.17</ele>
        <time>2014-10-04T09:46:39Z</time>
      </trkpt>
      <trkpt lat="46.35785" lon="6.80455">
        <ele>1685.81</ele>
        <time>2014-10-04T09:46:51Z</time>
      </trkpt>
      <trkpt lat="46.35776" lon="6.80461">
        <ele>1682.93</ele>
        <time>2014-10-04T09:47:03Z</time>
      </trkpt>
      <trkpt lat="46.35766" lon="6.80465">
        <ele>1680.52</ele>
        <time>2014-10-04T09:47:19Z</time>
      </trkpt>
      <trkpt lat="46.3576" lon="6.80468">
        <ele>1677.64</ele>
        <time>2014-10-04T09:47:32Z</time>
      </trkpt>
      <trkpt lat="46.3575" lon="6.80477">
        <ele>1676.2</ele>
        <time>2014-10-04T09:47:46Z</time>
      </trkpt>
      <trkpt lat="46.35747" lon="6.8049">
        <ele>1673.79</ele>
        <time>2014-10-04T09:48:03Z</time>
      </trkpt>
      <trkpt lat="46.35742" lon="6.805">
        <ele>1672.83</ele>
        <time>2014-10-04T09:48:16Z</time>
      </trkpt>
      <trkpt lat="46.35734" lon="6.80513">
        <ele>1671.39</ele>
        <time>2014-10-04T09:48:33Z</time>
      </trkpt>
      <trkpt lat="46.35722" lon="6.80523">
        <ele>1669.95</ele>
        <time>2014-10-04T09:48:48Z</time>
      </trkpt>
      <trkpt lat="46.35714" lon="6.80526">
        <ele>1670.43</ele>
        <time>2014-10-04T09:49:00Z</time>
      </trkpt>
      <trkpt lat="46.35713" lon="6.80527">
        <ele>1671.39</ele>
        <time>2014-10-04T09:49:03Z</time>
      </trkpt>
      <trkpt lat="46.35713" lon="6.80539">
        <ele>1670.43</ele>
        <time>2014-10-04T09:49:18Z</time>
      </trkpt>
      <trkpt lat="46.3571" lon="6.80552">
        <ele>1668.02</ele>
        <time>2014-10-04T09:49:32Z</time>
      </trkpt>
      <trkpt lat="46.35705" lon="6.80562">
        <ele>1665.62</ele>
        <time>2014-10-04T09:49:46Z</time>
      </trkpt>
      <trkpt lat="46.357" lon="6.80575">
        <ele>1664.66</ele>
        <time>2014-10-04T09:50:01Z</time>
      </trkpt>
      <trkpt lat="46.35692" lon="6.80592">
        <ele>1662.26</ele>
        <time>2014-10-04T09:50:16Z</time>
      </trkpt>
      <trkpt lat="46.35686" lon="6.80606">
        <ele>1661.78</ele>
        <time>2014-10-04T09:50:29Z</time>
      </trkpt>
      <trkpt lat="46.35681" lon="6.80619">
        <ele>1660.33</ele>
        <time>2014-10-04T09:50:43Z</time>
      </trkpt>
      <trkpt lat="46.3568" lon="6.80627">
        <ele>1658.41</ele>
        <time>2014-10-04T09:51:00Z</time>
      </trkpt>
      <trkpt lat="46.35682" lon="6.80638">
        <ele>1656.97</ele>
        <time>2014-10-04T09:51:14Z</time>
      </trkpt>
      <trkpt lat="46.35683" lon="6.80644">
        <ele>1653.6</ele>
        <time>2014-10-04T09:51:27Z</time>
      </trkpt>
      <trkpt lat="46.35686" lon="6.80654">
        <ele>1650.72</ele>
        <time>2014-10-04T09:51:42Z</time>
      </trkpt>
      <trkpt lat="46.35691" lon="6.8067">
        <ele>1648.32</ele>
        <time>2014-10-04T09:51:58Z</time>
      </trkpt>
      <trkpt lat="46.35695" lon="6.80677">
        <ele>1647.84</ele>
        <time>2014-10-04T09:52:14Z</time>
      </trkpt>
      <trkpt lat="46.3569" lon="6.80669">
        <ele>1647.84</ele>
        <time>2014-10-04T09:52:40Z</time>
      </trkpt>
      <trkpt lat="46.35687" lon="6.8066">
        <ele>1647.84</ele>
        <time>2014-10-04T09:53:08Z</time>
      </trkpt>
      <trkpt lat="46.3569" lon="6.80658">
        <ele>1647.36</ele>
        <time>2014-10-04T09:53:39Z</time>
      </trkpt>
      <trkpt lat="46.35691" lon="6.80661">
        <ele>1647.36</ele>
        <time>2014-10-04T09:54:10Z</time>
      </trkpt>
      <trkpt lat="46.35692" lon="6.80656">
        <ele>1647.36</ele>
        <time>2014-10-04T09:54:41Z</time>
      </trkpt>
      <trkpt lat="46.357" lon="6.80669">
        <ele>1647.36</ele>
        <time>2014-10-04T09:55:07Z</time>
      </trkpt>
      <trkpt lat="46.35704" lon="6.80676">
        <ele>1646.88</ele>
        <time>2014-10-04T09:55:32Z</time>
      </trkpt>
      <trkpt lat="46.357" lon="6.80693">
        <ele>1646.88</ele>
        <time>2014-10-04T09:55:55Z</time>
      </trkpt>
      <trkpt lat="46.35693" lon="6.80711">
        <ele>1643.99</ele>
        <time>2014-10-04T09:56:12Z</time>
      </trkpt>
      <trkpt lat="46.3569" lon="6.80718">
        <ele>1641.11</ele>
        <time>2014-10-04T09:56:22Z</time>
      </trkpt>
      <trkpt lat="46.35684" lon="6.8073">
        <ele>1637.74</ele>
        <time>2014-10-04T09:56:33Z</time>
      </trkpt>
      <trkpt lat="46.35691" lon="6.80735">
        <ele>1634.38</ele>
        <time>2014-10-04T09:56:46Z</time>
      </trkpt>
      <trkpt lat="46.35699" lon="6.80741">
        <ele>1631.01</ele>
        <time>2014-10-04T09:57:01Z</time>
      </trkpt>
      <trkpt lat="46.35705" lon="6.80753">
        <ele>1627.65</ele>
        <time>2014-10-04T09:57:15Z</time>
      </trkpt>
      <trkpt lat="46.35712" lon="6.80761">
        <ele>1624.77</ele>
        <time>2014-10-04T09:57:32Z</time>
      </trkpt>
      <trkpt lat="46.35714" lon="6.80769">
        <ele>1621.88</ele>
        <time>2014-10-04T09:57:46Z</time>
      </trkpt>
      <trkpt lat="46.35717" lon="6.80779">
        <ele>1618.52</ele>
        <time>2014-10-04T09:57:59Z</time>
      </trkpt>
      <trkpt lat="46.35719" lon="6.80787">
        <ele>1615.63</ele>
        <time>2014-10-04T09:58:15Z</time>
      </trkpt>
      <trkpt lat="46.35724" lon="6.80787">
        <ele>1612.75</ele>
        <time>2014-10-04T09:58:28Z</time>
      </trkpt>
      <trkpt lat="46.35723" lon="6.80793">
        <ele>1610.35</ele>
        <time>2014-10-04T09:58:42Z</time>
      </trkpt>
      <trkpt lat="46.35727" lon="6.80795">
        <ele>1607.94</ele>
        <time>2014-10-04T09:58:58Z</time>
      </trkpt>
      <trkpt lat="46.35728" lon="6.80795">
        <ele>1606.5</ele>
        <time>2014-10-04T09:59:11Z</time>
      </trkpt>
      <trkpt lat="46.35733" lon="6.80806">
        <ele>1603.62</ele>
        <time>2014-10-04T09:59:26Z</time>
      </trkpt>
      <trkpt lat="46.35729" lon="6.8081">
        <ele>1603.62</ele>
        <time>2014-10-04T09:59:34Z</time>
      </trkpt>
      <trkpt lat="46.35732" lon="6.8082">
        <ele>1600.73</ele>
        <time>2014-10-04T09:59:44Z</time>
      </trkpt>
      <trkpt lat="46.35732" lon="6.80822">
        <ele>1600.25</ele>
        <time>2014-10-04T09:59:58Z</time>
      </trkpt>
      <trkpt lat="46.35737" lon="6.8082">
        <ele>1599.77</ele>
        <time>2014-10-04T10:00:08Z</time>
      </trkpt>
      <trkpt lat="46.35742" lon="6.80818">
        <ele>1601.21</ele>
        <time>2014-10-04T10:00:19Z</time>
      </trkpt>
      <trkpt lat="46.35744" lon="6.80812">
        <ele>1601.21</ele>
        <time>2014-10-04T10:00:44Z</time>
      </trkpt>
      <trkpt lat="46.35741" lon="6.80808">
        <ele>1601.21</ele>
        <time>2014-10-04T10:01:02Z</time>
      </trkpt>
      <trkpt lat="46.35738" lon="6.80807">
        <ele>1601.21</ele>
        <time>2014-10-04T10:01:24Z</time>
      </trkpt>
      <trkpt lat="46.35737" lon="6.80814">
        <ele>1601.21</ele>
        <time>2014-10-04T10:01:52Z</time>
      </trkpt>
      <trkpt lat="46.35737" lon="6.80806">
        <ele>1601.21</ele>
        <time>2014-10-04T10:02:19Z</time>
      </trkpt>
      <trkpt lat="46.3573" lon="6.80808">
        <ele>1601.69</ele>
        <time>2014-10-04T10:02:47Z</time>
      </trkpt>
      <trkpt lat="46.35732" lon="6.8081">
        <ele>1601.69</ele>
        <time>2014-10-04T10:03:15Z</time>
      </trkpt>
      <trkpt lat="46.3573" lon="6.80816">
        <ele>1601.69</ele>
        <time>2014-10-04T10:03:34Z</time>
      </trkpt>
      <trkpt lat="46.35737" lon="6.80823">
        <ele>1601.69</ele>
        <time>2014-10-04T10:03:51Z</time>
      </trkpt>
      <trkpt lat="46.35742" lon="6.80829">
        <ele>1603.62</ele>
        <time>2014-10-04T10:04:03Z</time>
      </trkpt>
      <trkpt lat="46.35749" lon="6.80836">
        <ele>1602.66</ele>
        <time>2014-10-04T10:04:18Z</time>
      </trkpt>
      <trkpt lat="46.35754" lon="6.80845">
        <ele>1602.17</ele>
        <time>2014-10-04T10:04:34Z</time>
      </trkpt>
      <trkpt lat="46.35757" lon="6.80848">
        <ele>1601.69</ele>
        <time>2014-10-04T10:04:49Z</time>
      </trkpt>
      <trkpt lat="46.35756" lon="6.80853">
        <ele>1602.66</ele>
        <time>2014-10-04T10:05:03Z</time>
      </trkpt>
      <trkpt lat="46.35752" lon="6.8085">
        <ele>1602.66</ele>
        <time>2014-10-04T10:05:21Z</time>
      </trkpt>
      <trkpt lat="46.35748" lon="6.80847">
        <ele>1603.14</ele>
        <time>2014-10-04T10:05:38Z</time>
      </trkpt>
      <trkpt lat="46.35754" lon="6.80851">
        <ele>1603.14</ele>
        <time>2014-10-04T10:05:50Z</time>
      </trkpt>
      <trkpt lat="46.35761" lon="6.80853">
        <ele>1603.14</ele>
        <time>2014-10-04T10:06:03Z</time>
      </trkpt>
      <trkpt lat="46.35765" lon="6.80856">
        <ele>1604.1</ele>
        <time>2014-10-04T10:06:15Z</time>
      </trkpt>
      <trkpt lat="46.35767" lon="6.80864">
        <ele>1606.98</ele>
        <time>2014-10-04T10:06:28Z</time>
      </trkpt>
      <trkpt lat="46.35772" lon="6.80871">
        <ele>1609.86</ele>
        <time>2014-10-04T10:06:43Z</time>
      </trkpt>
      <trkpt lat="46.35778" lon="6.80882">
        <ele>1611.79</ele>
        <time>2014-10-04T10:06:56Z</time>
      </trkpt>
      <trkpt lat="46.35781" lon="6.8089">
        <ele>1614.67</ele>
        <time>2014-10-04T10:07:11Z</time>
      </trkpt>
      <trkpt lat="46.35778" lon="6.80894">
        <ele>1616.11</ele>
        <time>2014-10-04T10:07:25Z</time>
      </trkpt>
      <trkpt lat="46.35778" lon="6.80899">
        <ele>1616.59</ele>
        <time>2014-10-04T10:07:38Z</time>
      </trkpt>
      <trkpt lat="46.35782" lon="6.80895">
        <ele>1617.56</ele>
        <time>2014-10-04T10:08:00Z</time>
      </trkpt>
      <trkpt lat="46.35789" lon="6.80904">
        <ele>1619.96</ele>
        <time>2014-10-04T10:08:15Z</time>
      </trkpt>
      <trkpt lat="46.35787" lon="6.80907">
        <ele>1622.36</ele>
        <time>2014-10-04T10:08:30Z</time>
      </trkpt>
      <trkpt lat="46.35787" lon="6.8091">
        <ele>1624.77</ele>
        <time>2014-10-04T10:08:46Z</time>
      </trkpt>
      <trkpt lat="46.35785" lon="6.80914">
        <ele>1626.69</ele>
        <time>2014-10-04T10:09:03Z</time>
      </trkpt>
      <trkpt lat="46.35786" lon="6.80917">
        <ele>1629.57</ele>
        <time>2014-10-04T10:09:18Z</time>
      </trkpt>
      <trkpt lat="46.35786" lon="6.80925">
        <ele>1631.98</ele>
        <time>2014-10-04T10:09:35Z</time>
      </trkpt>
      <trkpt lat="46.35783" lon="6.80921">
        <ele>1634.86</ele>
        <time>2014-10-04T10:09:50Z</time>
      </trkpt>
      <trkpt lat="46.35773" lon="6.80926">
        <ele>1638.22</ele>
        <time>2014-10-04T10:10:08Z</time>
      </trkpt>
      <trkpt lat="46.3577" lon="6.80927">
        <ele>1639.67</ele>
        <time>2014-10-04T10:10:23Z</time>
      </trkpt>
      <trkpt lat="46.35768" lon="6.80929">
        <ele>1642.55</ele>
        <time>2014-10-04T10:10:38Z</time>
      </trkpt>
      <trkpt lat="46.35765" lon="6.80927">
        <ele>1643.99</ele>
        <time>2014-10-04T10:10:52Z</time>
      </trkpt>
      <trkpt lat="46.35766" lon="6.80924">
        <ele>1642.55</ele>
        <time>2014-10-04T10:10:55Z</time>
      </trkpt>
      <trkpt lat="46.35768" lon="6.80917">
        <ele>1641.11</ele>
        <time>2014-10-04T10:11:09Z</time>
      </trkpt>
      <trkpt lat="46.3577" lon="6.80914">
        <ele>1642.07</ele>
        <time>2014-10-04T10:11:32Z</time>
      </trkpt>
      <trkpt lat="46.35766" lon="6.80903">
        <ele>1644.95</ele>
        <time>2014-10-04T10:11:45Z</time>
      </trkpt>
      <trkpt lat="46.35765" lon="6.80905">
        <ele>1644.95</ele>
        <time>2014-10-04T10:12:06Z</time>
      </trkpt>
      <trkpt lat="46.35765" lon="6.80906">
        <ele>1645.43</ele>
        <time>2014-10-04T10:12:35Z</time>
      </trkpt>
      <trkpt lat="46.35766" lon="6.80907">
        <ele>1645.43</ele>
        <time>2014-10-04T10:12:56Z</time>
      </trkpt>
      <trkpt lat="46.35765" lon="6.80903">
        <ele>1646.4</ele>
        <time>2014-10-04T10:13:19Z</time>
      </trkpt>
      <trkpt lat="46.35762" lon="6.80902">
        <ele>1648.8</ele>
        <time>2014-10-04T10:13:32Z</time>
      </trkpt>
      <trkpt lat="46.35757" lon="6.80906">
        <ele>1650.72</ele>
        <time>2014-10-04T10:13:46Z</time>
      </trkpt>
      <trkpt lat="46.35753" lon="6.80907">
        <ele>1654.09</ele>
        <time>2014-10-04T10:13:59Z</time>
      </trkpt>
      <trkpt lat="46.35752" lon="6.80911">
        <ele>1655.53</ele>
        <time>2014-10-04T10:14:12Z</time>
      </trkpt>
      <trkpt lat="46.35747" lon="6.80917">
        <ele>1658.41</ele>
        <time>2014-10-04T10:14:26Z</time>
      </trkpt>
      <trkpt lat="46.35745" lon="6.80918">
        <ele>1661.78</ele>
        <time>2014-10-04T10:14:40Z</time>
      </trkpt>
      <trkpt lat="46.35744" lon="6.80923">
        <ele>1664.18</ele>
        <time>2014-10-04T10:14:56Z</time>
      </trkpt>
      <trkpt lat="46.35741" lon="6.80923">
        <ele>1666.58</ele>
        <time>2014-10-04T10:15:10Z</time>
      </trkpt>
      <trkpt lat="46.35737" lon="6.80928">
        <ele>1669.47</ele>
        <time>2014-10-04T10:15:24Z</time>
      </trkpt>
      <trkpt lat="46.35734" lon="6.80935">
        <ele>1671.87</ele>
        <time>2014-10-04T10:15:38Z</time>
      </trkpt>
      <trkpt lat="46.35732" lon="6.80942">
        <ele>1674.75</ele>
        <time>2014-10-04T10:15:54Z</time>
      </trkpt>
      <trkpt lat="46.35734" lon="6.80944">
        <ele>1678.12</ele>
        <time>2014-10-04T10:16:07Z</time>
      </trkpt>
      <trkpt lat="46.35736" lon="6.80944">
        <ele>1675.72</ele>
        <time>2014-10-04T10:16:34Z</time>
      </trkpt>
      <trkpt lat="46.35735" lon="6.80941">
        <ele>1675.23</ele>
        <time>2014-10-04T10:16:41Z</time>
      </trkpt>
      <trkpt lat="46.35729" lon="6.80939">
        <ele>1676.68</ele>
        <time>2014-10-04T10:16:56Z</time>
      </trkpt>
      <trkpt lat="46.35729" lon="6.80949">
        <ele>1678.12</ele>
        <time>2014-10-04T10:17:11Z</time>
      </trkpt>
      <trkpt lat="46.35731" lon="6.80957">
        <ele>1681</ele>
        <time>2014-10-04T10:17:28Z</time>
      </trkpt>
      <trkpt lat="46.35727" lon="6.8096">
        <ele>1683.41</ele>
        <time>2014-10-04T10:17:40Z</time>
      </trkpt>
      <trkpt lat="46.35727" lon="6.80967">
        <ele>1685.81</ele>
        <time>2014-10-04T10:17:54Z</time>
      </trkpt>
      <trkpt lat="46.35724" lon="6.8097">
        <ele>1689.17</ele>
        <time>2014-10-04T10:18:09Z</time>
      </trkpt>
      <trkpt lat="46.35725" lon="6.80975">
        <ele>1691.58</ele>
        <time>2014-10-04T10:18:26Z</time>
      </trkpt>
      <trkpt lat="46.35723" lon="6.80981">
        <ele>1694.46</ele>
        <time>2014-10-04T10:18:40Z</time>
      </trkpt>
      <trkpt lat="46.35719" lon="6.80982">
        <ele>1697.34</ele>
        <time>2014-10-04T10:18:55Z</time>
      </trkpt>
      <trkpt lat="46.35714" lon="6.80986">
        <ele>1700.71</ele>
        <time>2014-10-04T10:19:10Z</time>
      </trkpt>
      <trkpt lat="46.35711" lon="6.80987">
        <ele>1703.59</ele>
        <time>2014-10-04T10:19:26Z</time>
      </trkpt>
      <trkpt lat="46.35708" lon="6.80993">
        <ele>1706</ele>
        <time>2014-10-04T10:19:39Z</time>
      </trkpt>
      <trkpt lat="46.35707" lon="6.80997">
        <ele>1707.92</ele>
        <time>2014-10-04T10:19:56Z</time>
      </trkpt>
      <trkpt lat="46.35707" lon="6.81">
        <ele>1709.36</ele>
        <time>2014-10-04T10:20:12Z</time>
      </trkpt>
      <trkpt lat="46.35706" lon="6.81007">
        <ele>1712.25</ele>
        <time>2014-10-04T10:20:28Z</time>
      </trkpt>
      <trkpt lat="46.35703" lon="6.8101">
        <ele>1715.13</ele>
        <time>2014-10-04T10:20:44Z</time>
      </trkpt>
      <trkpt lat="46.35702" lon="6.81016">
        <ele>1718.01</ele>
        <time>2014-10-04T10:20:59Z</time>
      </trkpt>
      <trkpt lat="46.35701" lon="6.81021">
        <ele>1719.94</ele>
        <time>2014-10-04T10:21:13Z</time>
      </trkpt>
      <trkpt lat="46.35702" lon="6.81025">
        <ele>1722.82</ele>
        <time>2014-10-04T10:21:26Z</time>
      </trkpt>
      <trkpt lat="46.35701" lon="6.8103">
        <ele>1726.18</ele>
        <time>2014-10-04T10:21:41Z</time>
      </trkpt>
      <trkpt lat="46.35701" lon="6.81033">
        <ele>1728.59</ele>
        <time>2014-10-04T10:21:56Z</time>
      </trkpt>
      <trkpt lat="46.357" lon="6.81038">
        <ele>1731.95</ele>
        <time>2014-10-04T10:22:10Z</time>
      </trkpt>
      <trkpt lat="46.35696" lon="6.81046">
        <ele>1734.36</ele>
        <time>2014-10-04T10:22:24Z</time>
      </trkpt>
      <trkpt lat="46.35697" lon="6.81053">
        <ele>1737.24</ele>
        <time>2014-10-04T10:22:37Z</time>
      </trkpt>
      <trkpt lat="46.357" lon="6.81062">
        <ele>1740.12</ele>
        <time>2014-10-04T10:22:51Z</time>
      </trkpt>
      <trkpt lat="46.35696" lon="6.81065">
        <ele>1743.01</ele>
        <time>2014-10-04T10:23:07Z</time>
      </trkpt>
      <trkpt lat="46.35694" lon="6.81069">
        <ele>1745.41</ele>
        <time>2014-10-04T10:23:20Z</time>
      </trkpt>
      <trkpt lat="46.35693" lon="6.8107">
        <ele>1748.29</ele>
        <time>2014-10-04T10:23:35Z</time>
      </trkpt>
      <trkpt lat="46.35691" lon="6.81077">
        <ele>1751.18</ele>
        <time>2014-10-04T10:23:49Z</time>
      </trkpt>
      <trkpt lat="46.35692" lon="6.81075">
        <ele>1754.06</ele>
        <time>2014-10-04T10:24:03Z</time>
      </trkpt>
      <trkpt lat="46.35689" lon="6.81074">
        <ele>1756.95</ele>
        <time>2014-10-04T10:24:18Z</time>
      </trkpt>
      <trkpt lat="46.35684" lon="6.81078">
        <ele>1760.79</ele>
        <time>2014-10-04T10:24:33Z</time>
      </trkpt>
      <trkpt lat="46.35683" lon="6.81084">
        <ele>1763.68</ele>
        <time>2014-10-04T10:24:47Z</time>
      </trkpt>
      <trkpt lat="46.35678" lon="6.81091">
        <ele>1766.56</ele>
        <time>2014-10-04T10:25:01Z</time>
      </trkpt>
      <trkpt lat="46.35676" lon="6.811">
        <ele>1769.92</ele>
        <time>2014-10-04T10:25:20Z</time>
      </trkpt>
      <trkpt lat="46.35676" lon="6.81111">
        <ele>1772.81</ele>
        <time>2014-10-04T10:25:37Z</time>
      </trkpt>
      <trkpt lat="46.35674" lon="6.81116">
        <ele>1775.21</ele>
        <time>2014-10-04T10:25:53Z</time>
      </trkpt>
      <trkpt lat="46.35674" lon="6.81117">
        <ele>1776.17</ele>
        <time>2014-10-04T10:26:16Z</time>
      </trkpt>
      <trkpt lat="46.35668" lon="6.81126">
        <ele>1779.54</ele>
        <time>2014-10-04T10:26:31Z</time>
      </trkpt>
      <trkpt lat="46.35668" lon="6.81136">
        <ele>1782.9</ele>
        <time>2014-10-04T10:26:45Z</time>
      </trkpt>
      <trkpt lat="46.35667" lon="6.81146">
        <ele>1786.27</ele>
        <time>2014-10-04T10:27:01Z</time>
      </trkpt>
      <trkpt lat="46.35665" lon="6.81155">
        <ele>1788.67</ele>
        <time>2014-10-04T10:27:17Z</time>
      </trkpt>
      <trkpt lat="46.35663" lon="6.81163">
        <ele>1792.03</ele>
        <time>2014-10-04T10:27:31Z</time>
      </trkpt>
      <trkpt lat="46.35663" lon="6.8117">
        <ele>1794.92</ele>
        <time>2014-10-04T10:27:45Z</time>
      </trkpt>
      <trkpt lat="46.35659" lon="6.81176">
        <ele>1798.28</ele>
        <time>2014-10-04T10:27:57Z</time>
      </trkpt>
      <trkpt lat="46.35659" lon="6.81176">
        <ele>1798.28</ele>
        <time>2014-10-04T10:27:58Z</time>
      </trkpt>
      <trkpt lat="46.35657" lon="6.81185">
        <ele>1800.69</ele>
        <time>2014-10-04T10:28:14Z</time>
      </trkpt>
      <trkpt lat="46.35654" lon="6.81194">
        <ele>1802.13</ele>
        <time>2014-10-04T10:28:30Z</time>
      </trkpt>
      <trkpt lat="46.35655" lon="6.81205">
        <ele>1805.49</ele>
        <time>2014-10-04T10:28:45Z</time>
      </trkpt>
      <trkpt lat="46.35657" lon="6.81212">
        <ele>1807.42</ele>
        <time>2014-10-04T10:28:58Z</time>
      </trkpt>
      <trkpt lat="46.35656" lon="6.81221">
        <ele>1809.82</ele>
        <time>2014-10-04T10:29:15Z</time>
      </trkpt>
      <trkpt lat="46.35656" lon="6.81233">
        <ele>1811.74</ele>
        <time>2014-10-04T10:29:29Z</time>
      </trkpt>
      <trkpt lat="46.35651" lon="6.81242">
        <ele>1814.15</ele>
        <time>2014-10-04T10:29:43Z</time>
      </trkpt>
      <trkpt lat="46.35652" lon="6.81246">
        <ele>1814.63</ele>
        <time>2014-10-04T10:30:03Z</time>
      </trkpt>
      <trkpt lat="46.35652" lon="6.81249">
        <ele>1815.11</ele>
        <time>2014-10-04T10:30:27Z</time>
      </trkpt>
      <trkpt lat="46.35649" lon="6.81254">
        <ele>1817.03</ele>
        <time>2014-10-04T10:30:40Z</time>
      </trkpt>
      <trkpt lat="46.35651" lon="6.81254">
        <ele>1815.59</ele>
        <time>2014-10-04T10:30:46Z</time>
      </trkpt>
      <trkpt lat="46.35653" lon="6.81255">
        <ele>1816.07</ele>
        <time>2014-10-04T10:31:23Z</time>
      </trkpt>
      <trkpt lat="46.35655" lon="6.81254">
        <ele>1815.59</ele>
        <time>2014-10-04T10:31:50Z</time>
      </trkpt>
      <trkpt lat="46.35652" lon="6.81254">
        <ele>1816.07</ele>
        <time>2014-10-04T10:32:26Z</time>
      </trkpt>
      <trkpt lat="46.35651" lon="6.81251">
        <ele>1816.55</ele>
        <time>2014-10-04T10:33:13Z</time>
      </trkpt>
      <trkpt lat="46.35654" lon="6.81252">
        <ele>1816.55</ele>
        <time>2014-10-04T10:33:44Z</time>
      </trkpt>
      <trkpt lat="46.35653" lon="6.81252">
        <ele>1817.03</ele>
        <time>2014-10-04T10:34:16Z</time>
      </trkpt>
      <trkpt lat="46.35653" lon="6.81252">
        <ele>1817.03</ele>
        <time>2014-10-04T10:34:51Z</time>
      </trkpt>
      <trkpt lat="46.35653" lon="6.81252">
        <ele>1817.03</ele>
        <time>2014-10-04T10:35:27Z</time>
      </trkpt>
      <trkpt lat="46.35653" lon="6.81251">
        <ele>1817.51</ele>
        <time>2014-10-04T10:35:58Z</time>
      </trkpt>
      <trkpt lat="46.35654" lon="6.81253">
        <ele>1817.51</ele>
        <time>2014-10-04T10:36:31Z</time>
      </trkpt>
      <trkpt lat="46.35654" lon="6.81252">
        <ele>1817.99</ele>
        <time>2014-10-04T10:37:04Z</time>
      </trkpt>
      <trkpt lat="46.35652" lon="6.81249">
        <ele>1817.99</ele>
        <time>2014-10-04T10:37:37Z</time>
      </trkpt>
      <trkpt lat="46.35653" lon="6.81252">
        <ele>1818.47</ele>
        <time>2014-10-04T10:38:12Z</time>
      </trkpt>
      <trkpt lat="46.35655" lon="6.81256">
        <ele>1818.47</ele>
        <time>2014-10-04T10:38:42Z</time>
      </trkpt>
      <trkpt lat="46.35654" lon="6.81257">
        <ele>1820.39</ele>
        <time>2014-10-04T10:38:48Z</time>
      </trkpt>
      <trkpt lat="46.35655" lon="6.81255">
        <ele>1819.91</ele>
        <time>2014-10-04T10:39:05Z</time>
      </trkpt>
      <trkpt lat="46.35652" lon="6.81252">
        <ele>1819.91</ele>
        <time>2014-10-04T10:39:25Z</time>
      </trkpt>
      <trkpt lat="46.35652" lon="6.81253">
        <ele>1819.91</ele>
        <time>2014-10-04T10:39:42Z</time>
      </trkpt>
      <trkpt lat="46.35653" lon="6.8125">
        <ele>1820.39</ele>
        <time>2014-10-04T10:39:59Z</time>
      </trkpt>
      <trkpt lat="46.35651" lon="6.81251">
        <ele>1820.39</ele>
        <time>2014-10-04T10:40:15Z</time>
      </trkpt>
      <trkpt lat="46.35653" lon="6.81251">
        <ele>1820.39</ele>
        <time>2014-10-04T10:40:31Z</time>
      </trkpt>
      <trkpt lat="46.35654" lon="6.81254">
        <ele>1820.39</ele>
        <time>2014-10-04T10:40:53Z</time>
      </trkpt>
      <trkpt lat="46.35653" lon="6.81253">
        <ele>1819.91</ele>
        <time>2014-10-04T10:41:09Z</time>
      </trkpt>
      <trkpt lat="46.35652" lon="6.81254">
        <ele>1820.39</ele>
        <time>2014-10-04T10:41:28Z</time>
      </trkpt>
      <trkpt lat="46.35649" lon="6.81253">
        <ele>1820.39</ele>
        <time>2014-10-04T10:41:55Z</time>
      </trkpt>
      <trkpt lat="46.35648" lon="6.81254">
        <ele>1820.39</ele>
        <time>2014-10-04T10:42:16Z</time>
      </trkpt>
      <trkpt lat="46.35649" lon="6.81258">
        <ele>1820.39</ele>
        <time>2014-10-04T10:42:42Z</time>
      </trkpt>
      <trkpt lat="46.35642" lon="6.81268">
        <ele>1823.28</ele>
        <time>2014-10-04T10:42:56Z</time>
      </trkpt>
      <trkpt lat="46.35638" lon="6.8128">
        <ele>1824.72</ele>
        <time>2014-10-04T10:43:09Z</time>
      </trkpt>
      <trkpt lat="46.35628" lon="6.8129">
        <ele>1826.64</ele>
        <time>2014-10-04T10:43:24Z</time>
      </trkpt>
      <trkpt lat="46.35621" lon="6.81301">
        <ele>1828.56</ele>
        <time>2014-10-04T10:43:37Z</time>
      </trkpt>
      <trkpt lat="46.35619" lon="6.81313">
        <ele>1830.97</ele>
        <time>2014-10-04T10:43:50Z</time>
      </trkpt>
      <trkpt lat="46.35614" lon="6.81327">
        <ele>1833.37</ele>
        <time>2014-10-04T10:44:05Z</time>
      </trkpt>
      <trkpt lat="46.35611" lon="6.81338">
        <ele>1835.77</ele>
        <time>2014-10-04T10:44:20Z</time>
      </trkpt>
      <trkpt lat="46.35608" lon="6.81347">
        <ele>1837.7</ele>
        <time>2014-10-04T10:44:34Z</time>
      </trkpt>
      <trkpt lat="46.35601" lon="6.81357">
        <ele>1840.58</ele>
        <time>2014-10-04T10:44:48Z</time>
      </trkpt>
      <trkpt lat="46.35594" lon="6.8137">
        <ele>1842.02</ele>
        <time>2014-10-04T10:45:01Z</time>
      </trkpt>
      <trkpt lat="46.35589" lon="6.81382">
        <ele>1843.95</ele>
        <time>2014-10-04T10:45:15Z</time>
      </trkpt>
      <trkpt lat="46.35591" lon="6.81393">
        <ele>1845.39</ele>
        <time>2014-10-04T10:45:27Z</time>
      </trkpt>
      <trkpt lat="46.35587" lon="6.81405">
        <ele>1847.79</ele>
        <time>2014-10-04T10:45:42Z</time>
      </trkpt>
      <trkpt lat="46.35583" lon="6.81417">
        <ele>1850.19</ele>
        <time>2014-10-04T10:45:55Z</time>
      </trkpt>
      <trkpt lat="46.3558" lon="6.81426">
        <ele>1852.12</ele>
        <time>2014-10-04T10:46:07Z</time>
      </trkpt>
      <trkpt lat="46.35577" lon="6.81438">
        <ele>1854.04</ele>
        <time>2014-10-04T10:46:21Z</time>
      </trkpt>
      <trkpt lat="46.35572" lon="6.81452">
        <ele>1856.44</ele>
        <time>2014-10-04T10:46:36Z</time>
      </trkpt>
      <trkpt lat="46.35568" lon="6.8146">
        <ele>1858.37</ele>
        <time>2014-10-04T10:46:48Z</time>
      </trkpt>
      <trkpt lat="46.35561" lon="6.81469">
        <ele>1860.77</ele>
        <time>2014-10-04T10:47:02Z</time>
      </trkpt>
      <trkpt lat="46.35556" lon="6.81479">
        <ele>1863.17</ele>
        <time>2014-10-04T10:47:17Z</time>
      </trkpt>
      <trkpt lat="46.35549" lon="6.81488">
        <ele>1866.06</ele>
        <time>2014-10-04T10:47:32Z</time>
      </trkpt>
      <trkpt lat="46.35542" lon="6.81494">
        <ele>1867.98</ele>
        <time>2014-10-04T10:47:46Z</time>
      </trkpt>
      <trkpt lat="46.35536" lon="6.81501">
        <ele>1870.86</ele>
        <time>2014-10-04T10:47:59Z</time>
      </trkpt>
      <trkpt lat="46.35529" lon="6.8151">
        <ele>1873.27</ele>
        <time>2014-10-04T10:48:16Z</time>
      </trkpt>
      <trkpt lat="46.35528" lon="6.81521">
        <ele>1876.63</ele>
        <time>2014-10-04T10:48:32Z</time>
      </trkpt>
      <trkpt lat="46.35531" lon="6.81532">
        <ele>1879.51</ele>
        <time>2014-10-04T10:48:48Z</time>
      </trkpt>
      <trkpt lat="46.35528" lon="6.81541">
        <ele>1882.4</ele>
        <time>2014-10-04T10:49:04Z</time>
      </trkpt>
      <trkpt lat="46.3552" lon="6.81548">
        <ele>1885.28</ele>
        <time>2014-10-04T10:49:20Z</time>
      </trkpt>
      <trkpt lat="46.35521" lon="6.81556">
        <ele>1888.17</ele>
        <time>2014-10-04T10:49:35Z</time>
      </trkpt>
      <trkpt lat="46.35522" lon="6.81563">
        <ele>1891.05</ele>
        <time>2014-10-04T10:49:47Z</time>
      </trkpt>
      <trkpt lat="46.35527" lon="6.81567">
        <ele>1893.93</ele>
        <time>2014-10-04T10:50:01Z</time>
      </trkpt>
      <trkpt lat="46.35527" lon="6.81578">
        <ele>1896.82</ele>
        <time>2014-10-04T10:50:17Z</time>
      </trkpt>
      <trkpt lat="46.35529" lon="6.8159">
        <ele>1899.7</ele>
        <time>2014-10-04T10:50:32Z</time>
      </trkpt>
      <trkpt lat="46.35532" lon="6.81595">
        <ele>1901.14</ele>
        <time>2014-10-04T10:50:44Z</time>
      </trkpt>
      <trkpt lat="46.35535" lon="6.81603">
        <ele>1903.55</ele>
        <time>2014-10-04T10:50:58Z</time>
      </trkpt>
      <trkpt lat="46.35533" lon="6.81614">
        <ele>1905.95</ele>
        <time>2014-10-04T10:51:14Z</time>
      </trkpt>
      <trkpt lat="46.35534" lon="6.81624">
        <ele>1908.35</ele>
        <time>2014-10-04T10:51:27Z</time>
      </trkpt>
      <trkpt lat="46.35541" lon="6.8162">
        <ele>1911.24</ele>
        <time>2014-10-04T10:51:43Z</time>
      </trkpt>
      <trkpt lat="46.35547" lon="6.81624">
        <ele>1912.68</ele>
        <time>2014-10-04T10:51:56Z</time>
      </trkpt>
      <trkpt lat="46.35554" lon="6.81633">
        <ele>1915.08</ele>
        <time>2014-10-04T10:52:12Z</time>
      </trkpt>
      <trkpt lat="46.35562" lon="6.81643">
        <ele>1917.49</ele>
        <time>2014-10-04T10:52:28Z</time>
      </trkpt>
      <trkpt lat="46.35568" lon="6.8165">
        <ele>1919.89</ele>
        <time>2014-10-04T10:52:42Z</time>
      </trkpt>
      <trkpt lat="46.35574" lon="6.81646">
        <ele>1922.29</ele>
        <time>2014-10-04T10:52:54Z</time>
      </trkpt>
      <trkpt lat="46.3558" lon="6.81641">
        <ele>1924.22</ele>
        <time>2014-10-04T10:53:07Z</time>
      </trkpt>
      <trkpt lat="46.35585" lon="6.81648">
        <ele>1926.14</ele>
        <time>2014-10-04T10:53:25Z</time>
      </trkpt>
      <trkpt lat="46.35585" lon="6.8165">
        <ele>1926.14</ele>
        <time>2014-10-04T10:53:41Z</time>
      </trkpt>
      <trkpt lat="46.35584" lon="6.81645">
        <ele>1926.14</ele>
        <time>2014-10-04T10:53:56Z</time>
      </trkpt>
      <trkpt lat="46.35584" lon="6.81642">
        <ele>1926.62</ele>
        <time>2014-10-04T10:54:22Z</time>
      </trkpt>
      <trkpt lat="46.35586" lon="6.81639">
        <ele>1927.1</ele>
        <time>2014-10-04T10:54:43Z</time>
      </trkpt>
      <trkpt lat="46.35574" lon="6.81635">
        <ele>1927.1</ele>
        <time>2014-10-04T10:55:12Z</time>
      </trkpt>
      <trkpt lat="46.35572" lon="6.81639">
        <ele>1927.58</ele>
        <time>2014-10-04T10:55:39Z</time>
      </trkpt>
      <trkpt lat="46.35569" lon="6.81632">
        <ele>1927.58</ele>
        <time>2014-10-04T10:56:04Z</time>
      </trkpt>
      <trkpt lat="46.35573" lon="6.81639">
        <ele>1927.58</ele>
        <time>2014-10-04T10:56:25Z</time>
      </trkpt>
      <trkpt lat="46.35578" lon="6.81647">
        <ele>1927.58</ele>
        <time>2014-10-04T10:56:48Z</time>
      </trkpt>
      <trkpt lat="46.35581" lon="6.81648">
        <ele>1927.58</ele>
        <time>2014-10-04T10:57:08Z</time>
      </trkpt>
      <trkpt lat="46.35582" lon="6.81645">
        <ele>1927.58</ele>
        <time>2014-10-04T10:57:27Z</time>
      </trkpt>
      <trkpt lat="46.35588" lon="6.81649">
        <ele>1928.06</ele>
        <time>2014-10-04T10:57:42Z</time>
      </trkpt>
      <trkpt lat="46.35602" lon="6.81659">
        <ele>1929.5</ele>
        <time>2014-10-04T10:57:58Z</time>
      </trkpt>
      <trkpt lat="46.3561" lon="6.81666">
        <ele>1932.39</ele>
        <time>2014-10-04T10:58:11Z</time>
      </trkpt>
      <trkpt lat="46.35616" lon="6.81664">
        <ele>1934.79</ele>
        <time>2014-10-04T10:58:24Z</time>
      </trkpt>
      <trkpt lat="46.3562" lon="6.81658">
        <ele>1937.67</ele>
        <time>2014-10-04T10:58:38Z</time>
      </trkpt>
      <trkpt lat="46.35621" lon="6.81663">
        <ele>1939.12</ele>
        <time>2014-10-04T10:58:51Z</time>
      </trkpt>
      <trkpt lat="46.35621" lon="6.81679">
        <ele>1940.08</ele>
        <time>2014-10-04T10:59:06Z</time>
      </trkpt>
      <trkpt lat="46.35626" lon="6.81691">
        <ele>1942</ele>
        <time>2014-10-04T10:59:21Z</time>
      </trkpt>
      <trkpt lat="46.35632" lon="6.81701">
        <ele>1943.92</ele>
        <time>2014-10-04T10:59:35Z</time>
      </trkpt>
      <trkpt lat="46.35635" lon="6.81712">
        <ele>1946.33</ele>
        <time>2014-10-04T10:59:49Z</time>
      </trkpt>
      <trkpt lat="46.35642" lon="6.81722">
        <ele>1949.69</ele>
        <time>2014-10-04T11:00:05Z</time>
      </trkpt>
      <trkpt lat="46.35648" lon="6.81733">
        <ele>1951.61</ele>
        <time>2014-10-04T11:00:19Z</time>
      </trkpt>
      <trkpt lat="46.35655" lon="6.81747">
        <ele>1953.54</ele>
        <time>2014-10-04T11:00:33Z</time>
      </trkpt>
      <trkpt lat="46.35658" lon="6.81763">
        <ele>1954.98</ele>
        <time>2014-10-04T11:00:46Z</time>
      </trkpt>
      <trkpt lat="46.35661" lon="6.81778">
        <ele>1956.42</ele>
        <time>2014-10-04T11:01:00Z</time>
      </trkpt>
      <trkpt lat="46.35667" lon="6.81784">
        <ele>1959.78</ele>
        <time>2014-10-04T11:01:14Z</time>
      </trkpt>
      <trkpt lat="46.35672" lon="6.81794">
        <ele>1962.19</ele>
        <time>2014-10-04T11:01:28Z</time>
      </trkpt>
      <trkpt lat="46.35675" lon="6.81805">
        <ele>1964.59</ele>
        <time>2014-10-04T11:01:42Z</time>
      </trkpt>
      <trkpt lat="46.35672" lon="6.81819">
        <ele>1966.51</ele>
        <time>2014-10-04T11:01:56Z</time>
      </trkpt>
      <trkpt lat="46.35669" lon="6.81834">
        <ele>1969.4</ele>
        <time>2014-10-04T11:02:12Z</time>
      </trkpt>
      <trkpt lat="46.35671" lon="6.81827">
        <ele>1971.32</ele>
        <time>2014-10-04T11:02:25Z</time>
      </trkpt>
      <trkpt lat="46.3567" lon="6.81829">
        <ele>1969.4</ele>
        <time>2014-10-04T11:02:53Z</time>
      </trkpt>
      <trkpt lat="46.35669" lon="6.81836">
        <ele>1969.4</ele>
        <time>2014-10-04T11:03:13Z</time>
      </trkpt>
      <trkpt lat="46.35671" lon="6.81841">
        <ele>1969.88</ele>
        <time>2014-10-04T11:03:43Z</time>
      </trkpt>
      <trkpt lat="46.35673" lon="6.81846">
        <ele>1969.88</ele>
        <time>2014-10-04T11:04:04Z</time>
      </trkpt>
      <trkpt lat="46.35672" lon="6.81844">
        <ele>1970.84</ele>
        <time>2014-10-04T11:04:29Z</time>
      </trkpt>
      <trkpt lat="46.35671" lon="6.81839">
        <ele>1970.84</ele>
        <time>2014-10-04T11:04:54Z</time>
      </trkpt>
      <trkpt lat="46.35676" lon="6.81829">
        <ele>1970.84</ele>
        <time>2014-10-04T11:05:02Z</time>
      </trkpt>
      <trkpt lat="46.35682" lon="6.81808">
        <ele>1971.32</ele>
        <time>2014-10-04T11:05:17Z</time>
      </trkpt>
      <trkpt lat="46.35687" lon="6.81795">
        <ele>1971.32</ele>
        <time>2014-10-04T11:05:26Z</time>
      </trkpt>
      <trkpt lat="46.35687" lon="6.81773">
        <ele>1971.8</ele>
        <time>2014-10-04T11:05:40Z</time>
      </trkpt>
      <trkpt lat="46.35682" lon="6.81744">
        <ele>1973.24</ele>
        <time>2014-10-04T11:05:59Z</time>
      </trkpt>
      <trkpt lat="46.35675" lon="6.81716">
        <ele>1974.69</ele>
        <time>2014-10-04T11:06:17Z</time>
      </trkpt>
      <trkpt lat="46.35671" lon="6.81693">
        <ele>1977.09</ele>
        <time>2014-10-04T11:06:34Z</time>
      </trkpt>
      <trkpt lat="46.3567" lon="6.8168">
        <ele>1978.05</ele>
        <time>2014-10-04T11:06:45Z</time>
      </trkpt>
      <trkpt lat="46.35669" lon="6.81657">
        <ele>1980.45</ele>
        <time>2014-10-04T11:07:01Z</time>
      </trkpt>
      <trkpt lat="46.35674" lon="6.8164">
        <ele>1981.9</ele>
        <time>2014-10-04T11:07:13Z</time>
      </trkpt>
      <trkpt lat="46.35677" lon="6.81634">
        <ele>1981.9</ele>
        <time>2014-10-04T11:07:18Z</time>
      </trkpt>
      <trkpt lat="46.35692" lon="6.8162">
        <ele>1984.3</ele>
        <time>2014-10-04T11:07:37Z</time>
      </trkpt>
      <trkpt lat="46.35707" lon="6.81618">
        <ele>1985.74</ele>
        <time>2014-10-04T11:07:51Z</time>
      </trkpt>
      <trkpt lat="46.35729" lon="6.81612">
        <ele>1987.18</ele>
        <time>2014-10-04T11:08:10Z</time>
      </trkpt>
      <trkpt lat="46.35748" lon="6.81602">
        <ele>1988.62</ele>
        <time>2014-10-04T11:08:29Z</time>
      </trkpt>
      <trkpt lat="46.35758" lon="6.81598">
        <ele>1990.07</ele>
        <time>2014-10-04T11:08:38Z</time>
      </trkpt>
      <trkpt lat="46.35781" lon="6.81606">
        <ele>1991.03</ele>
        <time>2014-10-04T11:08:59Z</time>
      </trkpt>
      <trkpt lat="46.35796" lon="6.81605">
        <ele>1991.99</ele>
        <time>2014-10-04T11:09:14Z</time>
      </trkpt>
      <trkpt lat="46.3581" lon="6.816">
        <ele>1993.43</ele>
        <time>2014-10-04T11:09:29Z</time>
      </trkpt>
      <trkpt lat="46.35825" lon="6.81594">
        <ele>1994.87</ele>
        <time>2014-10-04T11:09:44Z</time>
      </trkpt>
      <trkpt lat="46.35839" lon="6.81598">
        <ele>1995.83</ele>
        <time>2014-10-04T11:09:57Z</time>
      </trkpt>
      <trkpt lat="46.35851" lon="6.81615">
        <ele>1998.72</ele>
        <time>2014-10-04T11:10:14Z</time>
      </trkpt>
      <trkpt lat="46.35862" lon="6.81632">
        <ele>2000.16</ele>
        <time>2014-10-04T11:10:29Z</time>
      </trkpt>
      <trkpt lat="46.35874" lon="6.81643">
        <ele>2000.16</ele>
        <time>2014-10-04T11:10:45Z</time>
      </trkpt>
      <trkpt lat="46.35884" lon="6.81645">
        <ele>2002.08</ele>
        <time>2014-10-04T11:10:59Z</time>
      </trkpt>
      <trkpt lat="46.35893" lon="6.8165">
        <ele>2004.49</ele>
        <time>2014-10-04T11:11:13Z</time>
      </trkpt>
      <trkpt lat="46.35895" lon="6.8165">
        <ele>2005.45</ele>
        <time>2014-10-04T11:11:15Z</time>
      </trkpt>
      <trkpt lat="46.35908" lon="6.81648">
        <ele>2006.89</ele>
        <time>2014-10-04T11:11:30Z</time>
      </trkpt>
      <trkpt lat="46.3592" lon="6.81643">
        <ele>2008.33</ele>
        <time>2014-10-04T11:11:44Z</time>
      </trkpt>
      <trkpt lat="46.35931" lon="6.81643">
        <ele>2011.7</ele>
        <time>2014-10-04T11:11:59Z</time>
      </trkpt>
      <trkpt lat="46.35938" lon="6.81647">
        <ele>2014.58</ele>
        <time>2014-10-04T11:12:11Z</time>
      </trkpt>
      <trkpt lat="46.35945" lon="6.81648">
        <ele>2016.5</ele>
        <time>2014-10-04T11:12:25Z</time>
      </trkpt>
      <trkpt lat="46.35952" lon="6.81656">
        <ele>2019.87</ele>
        <time>2014-10-04T11:12:39Z</time>
      </trkpt>
      <trkpt lat="46.35957" lon="6.8166">
        <ele>2022.27</ele>
        <time>2014-10-04T11:12:54Z</time>
      </trkpt>
      <trkpt lat="46.35957" lon="6.81662">
        <ele>2022.27</ele>
        <time>2014-10-04T11:13:16Z</time>
      </trkpt>
      <trkpt lat="46.35955" lon="6.81659">
        <ele>2022.75</ele>
        <time>2014-10-04T11:13:42Z</time>
      </trkpt>
      <trkpt lat="46.35954" lon="6.81657">
        <ele>2022.75</ele>
        <time>2014-10-04T11:13:59Z</time>
      </trkpt>
      <trkpt lat="46.35954" lon="6.81657">
        <ele>2022.75</ele>
        <time>2014-10-04T11:14:24Z</time>
      </trkpt>
      <trkpt lat="46.35954" lon="6.81654">
        <ele>2022.75</ele>
        <time>2014-10-04T11:14:47Z</time>
      </trkpt>
      <trkpt lat="46.35954" lon="6.81652">
        <ele>2023.23</ele>
        <time>2014-10-04T11:15:09Z</time>
      </trkpt>
      <trkpt lat="46.35954" lon="6.81651">
        <ele>2021.79</ele>
        <time>2014-10-04T11:15:13Z</time>
      </trkpt>
      <trkpt lat="46.35953" lon="6.81651">
        <ele>2021.79</ele>
        <time>2014-10-04T11:15:38Z</time>
      </trkpt>
      <trkpt lat="46.35953" lon="6.81653">
        <ele>2021.79</ele>
        <time>2014-10-04T11:15:56Z</time>
      </trkpt>
      <trkpt lat="46.35954" lon="6.81656">
        <ele>2022.75</ele>
        <time>2014-10-04T11:16:15Z</time>
      </trkpt>
      <trkpt lat="46.3595" lon="6.81668">
        <ele>2025.15</ele>
        <time>2014-10-04T11:16:28Z</time>
      </trkpt>
      <trkpt lat="46.35948" lon="6.81678">
        <ele>2028.04</ele>
        <time>2014-10-04T11:16:40Z</time>
      </trkpt>
      <trkpt lat="46.35944" lon="6.81686">
        <ele>2030.92</ele>
        <time>2014-10-04T11:16:53Z</time>
      </trkpt>
      <trkpt lat="46.35948" lon="6.81693">
        <ele>2033.33</ele>
        <time>2014-10-04T11:17:06Z</time>
      </trkpt>
      <trkpt lat="46.35947" lon="6.81701">
        <ele>2037.17</ele>
        <time>2014-10-04T11:17:23Z</time>
      </trkpt>
      <trkpt lat="46.35946" lon="6.81709">
        <ele>2039.09</ele>
        <time>2014-10-04T11:17:37Z</time>
      </trkpt>
      <trkpt lat="46.35942" lon="6.81718">
        <ele>2042.94</ele>
        <time>2014-10-04T11:17:52Z</time>
      </trkpt>
      <trkpt lat="46.35936" lon="6.8173">
        <ele>2045.82</ele>
        <time>2014-10-04T11:18:08Z</time>
      </trkpt>
      <trkpt lat="46.35927" lon="6.81744">
        <ele>2048.23</ele>
        <time>2014-10-04T11:18:24Z</time>
      </trkpt>
      <trkpt lat="46.35921" lon="6.81761">
        <ele>2051.59</ele>
        <time>2014-10-04T11:18:41Z</time>
      </trkpt>
      <trkpt lat="46.35918" lon="6.81773">
        <ele>2053.99</ele>
        <time>2014-10-04T11:18:54Z</time>
      </trkpt>
      <trkpt lat="46.35917" lon="6.81783">
        <ele>2057.36</ele>
        <time>2014-10-04T11:19:07Z</time>
      </trkpt>
      <trkpt lat="46.35915" lon="6.81793">
        <ele>2060.24</ele>
        <time>2014-10-04T11:19:23Z</time>
      </trkpt>
      <trkpt lat="46.35917" lon="6.818">
        <ele>2063.61</ele>
        <time>2014-10-04T11:19:38Z</time>
      </trkpt>
      <trkpt lat="46.35922" lon="6.81804">
        <ele>2066.97</ele>
        <time>2014-10-04T11:19:52Z</time>
      </trkpt>
      <trkpt lat="46.35925" lon="6.81809">
        <ele>2069.86</ele>
        <time>2014-10-04T11:20:07Z</time>
      </trkpt>
      <trkpt lat="46.35927" lon="6.81814">
        <ele>2071.78</ele>
        <time>2014-10-04T11:20:19Z</time>
      </trkpt>
      <trkpt lat="46.35925" lon="6.81822">
        <ele>2074.66</ele>
        <time>2014-10-04T11:20:33Z</time>
      </trkpt>
      <trkpt lat="46.35926" lon="6.81828">
        <ele>2078.03</ele>
        <time>2014-10-04T11:20:47Z</time>
      </trkpt>
      <trkpt lat="46.35925" lon="6.81836">
        <ele>2081.39</ele>
        <time>2014-10-04T11:21:00Z</time>
      </trkpt>
      <trkpt lat="46.35921" lon="6.81846">
        <ele>2084.76</ele>
        <time>2014-10-04T11:21:17Z</time>
      </trkpt>
      <trkpt lat="46.35918" lon="6.81856">
        <ele>2088.12</ele>
        <time>2014-10-04T11:21:32Z</time>
      </trkpt>
      <trkpt lat="46.35914" lon="6.81865">
        <ele>2091.49</ele>
        <time>2014-10-04T11:21:47Z</time>
      </trkpt>
      <trkpt lat="46.35908" lon="6.81875">
        <ele>2093.89</ele>
        <time>2014-10-04T11:22:01Z</time>
      </trkpt>
      <trkpt lat="46.35902" lon="6.81885">
        <ele>2096.77</ele>
        <time>2014-10-04T11:22:15Z</time>
      </trkpt>
      <trkpt lat="46.35899" lon="6.81895">
        <ele>2099.18</ele>
        <time>2014-10-04T11:22:29Z</time>
      </trkpt>
      <trkpt lat="46.35893" lon="6.81905">
        <ele>2102.06</ele>
        <time>2014-10-04T11:22:43Z</time>
      </trkpt>
      <trkpt lat="46.35889" lon="6.81915">
        <ele>2104.94</ele>
        <time>2014-10-04T11:22:56Z</time>
      </trkpt>
      <trkpt lat="46.35881" lon="6.81928">
        <ele>2107.83</ele>
        <time>2014-10-04T11:23:13Z</time>
      </trkpt>
      <trkpt lat="46.35876" lon="6.81937">
        <ele>2111.67</ele>
        <time>2014-10-04T11:23:25Z</time>
      </trkpt>
      <trkpt lat="46.3587" lon="6.81947">
        <ele>2114.56</ele>
        <time>2014-10-04T11:23:38Z</time>
      </trkpt>
      <trkpt lat="46.3587" lon="6.81947">
        <ele>2114.56</ele>
        <time>2014-10-04T11:23:39Z</time>
      </trkpt>
      <trkpt lat="46.3587" lon="6.81961">
        <ele>2116.96</ele>
        <time>2014-10-04T11:23:53Z</time>
      </trkpt>
      <trkpt lat="46.3587" lon="6.81963">
        <ele>2117.44</ele>
        <time>2014-10-04T11:24:16Z</time>
      </trkpt>
      <trkpt lat="46.35869" lon="6.81963">
        <ele>2117.44</ele>
        <time>2014-10-04T11:24:38Z</time>
      </trkpt>
      <trkpt lat="46.35862" lon="6.81962">
        <ele>2117.44</ele>
        <time>2014-10-04T11:25:03Z</time>
      </trkpt>
      <trkpt lat="46.35855" lon="6.8197">
        <ele>2119.84</ele>
        <time>2014-10-04T11:25:17Z</time>
      </trkpt>
      <trkpt lat="46.35849" lon="6.81978">
        <ele>2123.21</ele>
        <time>2014-10-04T11:25:30Z</time>
      </trkpt>
      <trkpt lat="46.35839" lon="6.81985">
        <ele>2126.57</ele>
        <time>2014-10-04T11:25:44Z</time>
      </trkpt>
      <trkpt lat="46.3583" lon="6.81994">
        <ele>2129.94</ele>
        <time>2014-10-04T11:25:58Z</time>
      </trkpt>
      <trkpt lat="46.35825" lon="6.82002">
        <ele>2131.38</ele>
        <time>2014-10-04T11:26:06Z</time>
      </trkpt>
      <trkpt lat="46.35813" lon="6.82023">
        <ele>2132.82</ele>
        <time>2014-10-04T11:26:25Z</time>
      </trkpt>
      <trkpt lat="46.358" lon="6.82037">
        <ele>2135.71</ele>
        <time>2014-10-04T11:26:43Z</time>
      </trkpt>
      <trkpt lat="46.35794" lon="6.82045">
        <ele>2138.59</ele>
        <time>2014-10-04T11:26:54Z</time>
      </trkpt>
      <trkpt lat="46.35786" lon="6.82059">
        <ele>2141.95</ele>
        <time>2014-10-04T11:27:09Z</time>
      </trkpt>
      <trkpt lat="46.35781" lon="6.82071">
        <ele>2145.32</ele>
        <time>2014-10-04T11:27:24Z</time>
      </trkpt>
      <trkpt lat="46.35781" lon="6.82073">
        <ele>2145.8</ele>
        <time>2014-10-04T11:27:26Z</time>
      </trkpt>
      <trkpt lat="46.35773" lon="6.82084">
        <ele>2148.2</ele>
        <time>2014-10-04T11:27:41Z</time>
      </trkpt>
      <trkpt lat="46.35767" lon="6.82091">
        <ele>2151.57</ele>
        <time>2014-10-04T11:27:53Z</time>
      </trkpt>
      <trkpt lat="46.35763" lon="6.82101">
        <ele>2154.93</ele>
        <time>2014-10-04T11:28:06Z</time>
      </trkpt>
      <trkpt lat="46.35758" lon="6.82109">
        <ele>2157.82</ele>
        <time>2014-10-04T11:28:20Z</time>
      </trkpt>
      <trkpt lat="46.35751" lon="6.82112">
        <ele>2161.18</ele>
        <time>2014-10-04T11:28:32Z</time>
      </trkpt>
      <trkpt lat="46.35743" lon="6.82117">
        <ele>2164.06</ele>
        <time>2014-10-04T11:28:47Z</time>
      </trkpt>
      <trkpt lat="46.35741" lon="6.82119">
        <ele>2164.06</ele>
        <time>2014-10-04T11:28:59Z</time>
      </trkpt>
      <trkpt lat="46.35741" lon="6.82118">
        <ele>2164.06</ele>
        <time>2014-10-04T11:29:10Z</time>
      </trkpt>
      <trkpt lat="46.35741" lon="6.82117">
        <ele>2165.03</ele>
        <time>2014-10-04T11:29:25Z</time>
      </trkpt>
      <trkpt lat="46.3574" lon="6.82118">
        <ele>2165.51</ele>
        <time>2014-10-04T11:29:26Z</time>
      </trkpt>
      <trkpt lat="46.3574" lon="6.82117">
        <ele>2165.03</ele>
        <time>2014-10-04T11:29:34Z</time>
      </trkpt>
      <trkpt lat="46.3574" lon="6.82118">
        <ele>2163.58</ele>
        <time>2014-10-04T11:29:37Z</time>
      </trkpt>
      <trkpt lat="46.35741" lon="6.82116">
        <ele>2162.62</ele>
        <time>2014-10-04T11:30:09Z</time>
      </trkpt>
      <trkpt lat="46.3574" lon="6.82116">
        <ele>2163.1</ele>
        <time>2014-10-04T11:30:50Z</time>
      </trkpt>
      <trkpt lat="46.35739" lon="6.82118">
        <ele>2164.55</ele>
        <time>2014-10-04T11:31:39Z</time>
      </trkpt>
      <trkpt lat="46.35739" lon="6.82117">
        <ele>2163.58</ele>
        <time>2014-10-04T11:32:01Z</time>
      </trkpt>
      <trkpt lat="46.3574" lon="6.82113">
        <ele>2165.03</ele>
        <time>2014-10-04T11:32:13Z</time>
      </trkpt>
      <trkpt lat="46.3574" lon="6.82114">
        <ele>2166.47</ele>
        <time>2014-10-04T11:33:03Z</time>
      </trkpt>
      <trkpt lat="46.3574" lon="6.82113">
        <ele>2164.55</ele>
        <time>2014-10-04T11:33:45Z</time>
      </trkpt>
      <trkpt lat="46.3574" lon="6.82113">
        <ele>2165.03</ele>
        <time>2014-10-04T11:34:28Z</time>
      </trkpt>
      <trkpt lat="46.3574" lon="6.82113">
        <ele>2166.95</ele>
        <time>2014-10-04T11:35:14Z</time>
      </trkpt>
      <trkpt lat="46.3574" lon="6.82114">
        <ele>2165.99</ele>
        <time>2014-10-04T11:35:37Z</time>
      </trkpt>
      <trkpt lat="46.35738" lon="6.82115">
        <ele>2167.43</ele>
        <time>2014-10-04T11:35:43Z</time>
      </trkpt>
      <trkpt lat="46.35739" lon="6.82118">
        <ele>2167.91</ele>
        <time>2014-10-04T11:35:58Z</time>
      </trkpt>
      <trkpt lat="46.35744" lon="6.82126">
        <ele>2165.51</ele>
        <time>2014-10-04T11:36:09Z</time>
      </trkpt>
      <trkpt lat="46.35746" lon="6.82125">
        <ele>2165.51</ele>
        <time>2014-10-04T11:36:12Z</time>
      </trkpt>
      <trkpt lat="46.35749" lon="6.8213">
        <ele>2165.03</ele>
        <time>2014-10-04T11:36:26Z</time>
      </trkpt>
      <trkpt lat="46.35749" lon="6.82132">
        <ele>2163.58</ele>
        <time>2014-10-04T11:36:39Z</time>
      </trkpt>
      <trkpt lat="46.3575" lon="6.82131">
        <ele>2162.62</ele>
        <time>2014-10-04T11:36:59Z</time>
      </trkpt>
      <trkpt lat="46.35749" lon="6.82132">
        <ele>2162.14</ele>
        <time>2014-10-04T11:37:40Z</time>
      </trkpt>
      <trkpt lat="46.3575" lon="6.8213">
        <ele>2162.62</ele>
        <time>2014-10-04T11:38:13Z</time>
      </trkpt>
      <trkpt lat="46.35749" lon="6.82129">
        <ele>2162.62</ele>
        <time>2014-10-04T11:38:55Z</time>
      </trkpt>
      <trkpt lat="46.35749" lon="6.82127">
        <ele>2162.62</ele>
        <time>2014-10-04T11:39:37Z</time>
      </trkpt>
      <trkpt lat="46.35747" lon="6.82128">
        <ele>2163.1</ele>
        <time>2014-10-04T11:40:16Z</time>
      </trkpt>
      <trkpt lat="46.35748" lon="6.82129">
        <ele>2163.1</ele>
        <time>2014-10-04T11:40:47Z</time>
      </trkpt>
      <trkpt lat="46.35749" lon="6.82128">
        <ele>2163.58</ele>
        <time>2014-10-04T11:41:25Z</time>
      </trkpt>
      <trkpt lat="46.3575" lon="6.82127">
        <ele>2163.58</ele>
        <time>2014-10-04T11:42:02Z</time>
      </trkpt>
      <trkpt lat="46.3575" lon="6.82127">
        <ele>2163.58</ele>
        <time>2014-10-04T11:42:40Z</time>
      </trkpt>
      <trkpt lat="46.35751" lon="6.82127">
        <ele>2165.03</ele>
        <time>2014-10-04T11:43:23Z</time>
      </trkpt>
      <trkpt lat="46.3575" lon="6.82126">
        <ele>2165.51</ele>
        <time>2014-10-04T11:43:53Z</time>
      </trkpt>
      <trkpt lat="46.3575" lon="6.82127">
        <ele>2165.51</ele>
        <time>2014-10-04T11:44:22Z</time>
      </trkpt>
      <trkpt lat="46.3575" lon="6.82127">
        <ele>2165.51</ele>
        <time>2014-10-04T11:44:53Z</time>
      </trkpt>
      <trkpt lat="46.35751" lon="6.82126">
        <ele>2165.51</ele>
        <time>2014-10-04T11:45:20Z</time>
      </trkpt>
      <trkpt lat="46.3575" lon="6.82126">
        <ele>2165.99</ele>
        <time>2014-10-04T11:45:59Z</time>
      </trkpt>
      <trkpt lat="46.35749" lon="6.82127">
        <ele>2165.99</ele>
        <time>2014-10-04T11:46:39Z</time>
      </trkpt>
      <trkpt lat="46.35748" lon="6.82128">
        <ele>2166.47</ele>
        <time>2014-10-04T11:47:09Z</time>
      </trkpt>
      <trkpt lat="46.35748" lon="6.82128">
        <ele>2166.95</ele>
        <time>2014-10-04T11:47:51Z</time>
      </trkpt>
      <trkpt lat="46.35748" lon="6.8213">
        <ele>2166.95</ele>
        <time>2014-10-04T11:48:19Z</time>
      </trkpt>
      <trkpt lat="46.3575" lon="6.82133">
        <ele>2167.43</ele>
        <time>2014-10-04T11:49:02Z</time>
      </trkpt>
      <trkpt lat="46.3575" lon="6.82132">
        <ele>2167.91</ele>
        <time>2014-10-04T11:49:45Z</time>
      </trkpt>
      <trkpt lat="46.3575" lon="6.82133">
        <ele>2168.39</ele>
        <time>2014-10-04T11:50:22Z</time>
      </trkpt>
      <trkpt lat="46.3575" lon="6.82134">
        <ele>2168.39</ele>
        <time>2014-10-04T11:51:04Z</time>
      </trkpt>
      <trkpt lat="46.35751" lon="6.82134">
        <ele>2168.87</ele>
        <time>2014-10-04T11:51:42Z</time>
      </trkpt>
      <trkpt lat="46.3575" lon="6.82135">
        <ele>2169.35</ele>
        <time>2014-10-04T11:52:20Z</time>
      </trkpt>
      <trkpt lat="46.3575" lon="6.82135">
        <ele>2169.83</ele>
        <time>2014-10-04T11:52:56Z</time>
      </trkpt>
      <trkpt lat="46.35751" lon="6.82136">
        <ele>2170.79</ele>
        <time>2014-10-04T11:53:30Z</time>
      </trkpt>
      <trkpt lat="46.35752" lon="6.82136">
        <ele>2170.79</ele>
        <time>2014-10-04T11:54:09Z</time>
      </trkpt>
      <trkpt lat="46.35751" lon="6.82136">
        <ele>2171.27</ele>
        <time>2014-10-04T11:54:46Z</time>
      </trkpt>
      <trkpt lat="46.35751" lon="6.82135">
        <ele>2171.76</ele>
        <time>2014-10-04T11:55:19Z</time>
      </trkpt>
      <trkpt lat="46.35749" lon="6.82133">
        <ele>2171.76</ele>
        <time>2014-10-04T11:55:54Z</time>
      </trkpt>
      <trkpt lat="46.35749" lon="6.82133">
        <ele>2172.24</ele>
        <time>2014-10-04T11:56:33Z</time>
      </trkpt>
      <trkpt lat="46.35749" lon="6.82133">
        <ele>2172.72</ele>
        <time>2014-10-04T11:57:06Z</time>
      </trkpt>
      <trkpt lat="46.3575" lon="6.82133">
        <ele>2173.68</ele>
        <time>2014-10-04T11:57:48Z</time>
      </trkpt>
      <trkpt lat="46.3575" lon="6.82135">
        <ele>2172.72</ele>
        <time>2014-10-04T11:58:27Z</time>
      </trkpt>
      <trkpt lat="46.35751" lon="6.82135">
        <ele>2172.72</ele>
        <time>2014-10-04T11:58:59Z</time>
      </trkpt>
      <trkpt lat="46.35751" lon="6.82136">
        <ele>2174.16</ele>
        <time>2014-10-04T11:59:30Z</time>
      </trkpt>
      <trkpt lat="46.35751" lon="6.82135">
        <ele>2174.64</ele>
        <time>2014-10-04T12:00:08Z</time>
      </trkpt>
      <trkpt lat="46.35751" lon="6.82134">
        <ele>2174.64</ele>
        <time>2014-10-04T12:00:44Z</time>
      </trkpt>
      <trkpt lat="46.35751" lon="6.82133">
        <ele>2173.68</ele>
        <time>2014-10-04T12:01:18Z</time>
      </trkpt>
      <trkpt lat="46.35751" lon="6.82135">
        <ele>2173.68</ele>
        <time>2014-10-04T12:01:47Z</time>
      </trkpt>
      <trkpt lat="46.3575" lon="6.82135">
        <ele>2174.16</ele>
        <time>2014-10-04T12:02:23Z</time>
      </trkpt>
      <trkpt lat="46.3575" lon="6.82135">
        <ele>2173.68</ele>
        <time>2014-10-04T12:03:00Z</time>
      </trkpt>
      <trkpt lat="46.35751" lon="6.82136">
        <ele>2174.16</ele>
        <time>2014-10-04T12:03:36Z</time>
      </trkpt>
      <trkpt lat="46.35752" lon="6.82136">
        <ele>2175.12</ele>
        <time>2014-10-04T12:04:05Z</time>
      </trkpt>
      <trkpt lat="46.35751" lon="6.82133">
        <ele>2175.6</ele>
        <time>2014-10-04T12:04:36Z</time>
      </trkpt>
      <trkpt lat="46.35751" lon="6.82132">
        <ele>2175.6</ele>
        <time>2014-10-04T12:05:14Z</time>
      </trkpt>
      <trkpt lat="46.3575" lon="6.8213">
        <ele>2175.6</ele>
        <time>2014-10-04T12:05:51Z</time>
      </trkpt>
      <trkpt lat="46.35751" lon="6.8213">
        <ele>2175.6</ele>
        <time>2014-10-04T12:06:25Z</time>
      </trkpt>
      <trkpt lat="46.35751" lon="6.8213">
        <ele>2175.6</ele>
        <time>2014-10-04T12:07:02Z</time>
      </trkpt>
      <trkpt lat="46.35751" lon="6.82129">
        <ele>2175.6</ele>
        <time>2014-10-04T12:07:33Z</time>
      </trkpt>
      <trkpt lat="46.35752" lon="6.82129">
        <ele>2175.6</ele>
        <time>2014-10-04T12:08:08Z</time>
      </trkpt>
      <trkpt lat="46.3575" lon="6.82128">
        <ele>2175.12</ele>
        <time>2014-10-04T12:08:42Z</time>
      </trkpt>
      <trkpt lat="46.3575" lon="6.82127">
        <ele>2175.12</ele>
        <time>2014-10-04T12:09:19Z</time>
      </trkpt>
      <trkpt lat="46.35751" lon="6.8213">
        <ele>2175.12</ele>
        <time>2014-10-04T12:09:50Z</time>
      </trkpt>
      <trkpt lat="46.35751" lon="6.8213">
        <ele>2175.6</ele>
        <time>2014-10-04T12:10:26Z</time>
      </trkpt>
      <trkpt lat="46.35751" lon="6.82132">
        <ele>2175.6</ele>
        <time>2014-10-04T12:11:02Z</time>
      </trkpt>
      <trkpt lat="46.35752" lon="6.82133">
        <ele>2175.6</ele>
        <time>2014-10-04T12:11:37Z</time>
      </trkpt>
      <trkpt lat="46.35751" lon="6.82132">
        <ele>2175.6</ele>
        <time>2014-10-04T12:12:10Z</time>
      </trkpt>
      <trkpt lat="46.35751" lon="6.82132">
        <ele>2175.6</ele>
        <time>2014-10-04T12:12:43Z</time>
      </trkpt>
      <trkpt lat="46.35751" lon="6.8213">
        <ele>2175.6</ele>
        <time>2014-10-04T12:13:10Z</time>
      </trkpt>
      <trkpt lat="46.35751" lon="6.8213">
        <ele>2175.6</ele>
        <time>2014-10-04T12:13:50Z</time>
      </trkpt>
      <trkpt lat="46.35752" lon="6.82131">
        <ele>2175.12</ele>
        <time>2014-10-04T12:14:22Z</time>
      </trkpt>
      <trkpt lat="46.35751" lon="6.82134">
        <ele>2175.12</ele>
        <time>2014-10-04T12:14:57Z</time>
      </trkpt>
      <trkpt lat="46.35752" lon="6.82135">
        <ele>2175.12</ele>
        <time>2014-10-04T12:15:30Z</time>
      </trkpt>
      <trkpt lat="46.35752" lon="6.82134">
        <ele>2175.12</ele>
        <time>2014-10-04T12:15:59Z</time>
      </trkpt>
      <trkpt lat="46.3575" lon="6.82129">
        <ele>2175.12</ele>
        <time>2014-10-04T12:16:39Z</time>
      </trkpt>
      <trkpt lat="46.35749" lon="6.82128">
        <ele>2175.12</ele>
        <time>2014-10-04T12:17:12Z</time>
      </trkpt>
      <trkpt lat="46.3575" lon="6.82128">
        <ele>2175.12</ele>
        <time>2014-10-04T12:17:52Z</time>
      </trkpt>
      <trkpt lat="46.3575" lon="6.82129">
        <ele>2175.12</ele>
        <time>2014-10-04T12:18:27Z</time>
      </trkpt>
      <trkpt lat="46.35749" lon="6.82128">
        <ele>2175.12</ele>
        <time>2014-10-04T12:19:09Z</time>
      </trkpt>
      <trkpt lat="46.3575" lon="6.82128">
        <ele>2174.64</ele>
        <time>2014-10-04T12:19:54Z</time>
      </trkpt>
      <trkpt lat="46.35749" lon="6.82128">
        <ele>2174.64</ele>
        <time>2014-10-04T12:20:30Z</time>
      </trkpt>
      <trkpt lat="46.35749" lon="6.82128">
        <ele>2174.64</ele>
        <time>2014-10-04T12:20:58Z</time>
      </trkpt>
      <trkpt lat="46.3575" lon="6.82132">
        <ele>2176.08</ele>
        <time>2014-10-04T12:21:02Z</time>
      </trkpt>
      <trkpt lat="46.3575" lon="6.82134">
        <ele>2174.64</ele>
        <time>2014-10-04T12:21:27Z</time>
      </trkpt>
      <trkpt lat="46.35751" lon="6.82134">
        <ele>2175.12</ele>
        <time>2014-10-04T12:21:43Z</time>
      </trkpt>
      <trkpt lat="46.35751" lon="6.82134">
        <ele>2174.64</ele>
        <time>2014-10-04T12:21:49Z</time>
      </trkpt>
      <trkpt lat="46.35751" lon="6.82132">
        <ele>2174.16</ele>
        <time>2014-10-04T12:22:17Z</time>
      </trkpt>
      <trkpt lat="46.35751" lon="6.8213">
        <ele>2174.16</ele>
        <time>2014-10-04T12:22:45Z</time>
      </trkpt>
      <trkpt lat="46.35751" lon="6.82131">
        <ele>2175.12</ele>
        <time>2014-10-04T12:23:07Z</time>
      </trkpt>
      <trkpt lat="46.35751" lon="6.82132">
        <ele>2175.12</ele>
        <time>2014-10-04T12:23:08Z</time>
      </trkpt>
      <trkpt lat="46.35752" lon="6.82132">
        <ele>2175.12</ele>
        <time>2014-10-04T12:23:27Z</time>
      </trkpt>
      <trkpt lat="46.35748" lon="6.82126">
        <ele>2176.56</ele>
        <time>2014-10-04T12:23:40Z</time>
      </trkpt>
      <trkpt lat="46.35743" lon="6.82124">
        <ele>2178.48</ele>
        <time>2014-10-04T12:23:51Z</time>
      </trkpt>
      <trkpt lat="46.35743" lon="6.82123">
        <ele>2178.48</ele>
        <time>2014-10-04T12:24:07Z</time>
      </trkpt>
      <trkpt lat="46.35741" lon="6.82122">
        <ele>2178.97</ele>
        <time>2014-10-04T12:24:20Z</time>
      </trkpt>
      <trkpt lat="46.3574" lon="6.82118">
        <ele>2178</ele>
        <time>2014-10-04T12:24:30Z</time>
      </trkpt>
      <trkpt lat="46.35741" lon="6.82119">
        <ele>2178</ele>
        <time>2014-10-04T12:24:43Z</time>
      </trkpt>
      <trkpt lat="46.35744" lon="6.8212">
        <ele>2178</ele>
        <time>2014-10-04T12:24:55Z</time>
      </trkpt>
      <trkpt lat="46.35747" lon="6.82116">
        <ele>2178</ele>
        <time>2014-10-04T12:24:59Z</time>
      </trkpt>
      <trkpt lat="46.35749" lon="6.82116">
        <ele>2176.56</ele>
        <time>2014-10-04T12:25:01Z</time>
      </trkpt>
      <trkpt lat="46.35756" lon="6.82111">
        <ele>2173.68</ele>
        <time>2014-10-04T12:25:13Z</time>
      </trkpt>
      <trkpt lat="46.35762" lon="6.82104">
        <ele>2170.31</ele>
        <time>2014-10-04T12:25:25Z</time>
      </trkpt>
      <trkpt lat="46.35767" lon="6.82099">
        <ele>2168.39</ele>
        <time>2014-10-04T12:25:32Z</time>
      </trkpt>
      <trkpt lat="46.35771" lon="6.8209">
        <ele>2165.51</ele>
        <time>2014-10-04T12:25:42Z</time>
      </trkpt>
      <trkpt lat="46.35777" lon="6.8208">
        <ele>2162.14</ele>
        <time>2014-10-04T12:25:53Z</time>
      </trkpt>
      <trkpt lat="46.35782" lon="6.82073">
        <ele>2160.22</ele>
        <time>2014-10-04T12:26:02Z</time>
      </trkpt>
      <trkpt lat="46.35787" lon="6.82062">
        <ele>2156.86</ele>
        <time>2014-10-04T12:26:14Z</time>
      </trkpt>
      <trkpt lat="46.35792" lon="6.82053">
        <ele>2153.97</ele>
        <time>2014-10-04T12:26:25Z</time>
      </trkpt>
      <trkpt lat="46.358" lon="6.82043">
        <ele>2151.09</ele>
        <time>2014-10-04T12:26:38Z</time>
      </trkpt>
      <trkpt lat="46.35801" lon="6.82042">
        <ele>2150.61</ele>
        <time>2014-10-04T12:26:40Z</time>
      </trkpt>
      <trkpt lat="46.35811" lon="6.82027">
        <ele>2148.2</ele>
        <time>2014-10-04T12:26:55Z</time>
      </trkpt>
      <trkpt lat="46.35824" lon="6.82005">
        <ele>2145.32</ele>
        <time>2014-10-04T12:27:14Z</time>
      </trkpt>
      <trkpt lat="46.35826" lon="6.82002">
        <ele>2145.32</ele>
        <time>2014-10-04T12:27:17Z</time>
      </trkpt>
      <trkpt lat="46.35836" lon="6.81994">
        <ele>2141.95</ele>
        <time>2014-10-04T12:27:31Z</time>
      </trkpt>
      <trkpt lat="46.35845" lon="6.81984">
        <ele>2139.07</ele>
        <time>2014-10-04T12:27:44Z</time>
      </trkpt>
      <trkpt lat="46.35853" lon="6.81975">
        <ele>2135.71</ele>
        <time>2014-10-04T12:27:57Z</time>
      </trkpt>
      <trkpt lat="46.35862" lon="6.81968">
        <ele>2132.34</ele>
        <time>2014-10-04T12:28:09Z</time>
      </trkpt>
      <trkpt lat="46.35877" lon="6.81955">
        <ele>2129.46</ele>
        <time>2014-10-04T12:28:26Z</time>
      </trkpt>
      <trkpt lat="46.35887" lon="6.81944">
        <ele>2126.09</ele>
        <time>2014-10-04T12:28:39Z</time>
      </trkpt>
      <trkpt lat="46.35887" lon="6.81942">
        <ele>2125.61</ele>
        <time>2014-10-04T12:28:41Z</time>
      </trkpt>
      <trkpt lat="46.35893" lon="6.81928">
        <ele>2122.25</ele>
        <time>2014-10-04T12:28:53Z</time>
      </trkpt>
      <trkpt lat="46.35895" lon="6.8192">
        <ele>2118.88</ele>
        <time>2014-10-04T12:29:02Z</time>
      </trkpt>
      <trkpt lat="46.35897" lon="6.81916">
        <ele>2117.92</ele>
        <time>2014-10-04T12:29:06Z</time>
      </trkpt>
      <trkpt lat="46.35902" lon="6.81904">
        <ele>2115.04</ele>
        <time>2014-10-04T12:29:18Z</time>
      </trkpt>
      <trkpt lat="46.35903" lon="6.81894">
        <ele>2111.19</ele>
        <time>2014-10-04T12:29:32Z</time>
      </trkpt>
      <trkpt lat="46.35906" lon="6.81887">
        <ele>2108.79</ele>
        <time>2014-10-04T12:29:43Z</time>
      </trkpt>
      <trkpt lat="46.35913" lon="6.81874">
        <ele>2105.42</ele>
        <time>2014-10-04T12:29:55Z</time>
      </trkpt>
      <trkpt lat="46.35919" lon="6.81863">
        <ele>2102.54</ele>
        <time>2014-10-04T12:30:07Z</time>
      </trkpt>
      <trkpt lat="46.35924" lon="6.81852">
        <ele>2099.18</ele>
        <time>2014-10-04T12:30:19Z</time>
      </trkpt>
      <trkpt lat="46.35928" lon="6.81843">
        <ele>2095.33</ele>
        <time>2014-10-04T12:30:31Z</time>
      </trkpt>
      <trkpt lat="46.35928" lon="6.81834">
        <ele>2091.97</ele>
        <time>2014-10-04T12:30:42Z</time>
      </trkpt>
      <trkpt lat="46.3593" lon="6.8183">
        <ele>2089.56</ele>
        <time>2014-10-04T12:30:54Z</time>
      </trkpt>
      <trkpt lat="46.35929" lon="6.81822">
        <ele>2086.68</ele>
        <time>2014-10-04T12:31:05Z</time>
      </trkpt>
      <trkpt lat="46.35922" lon="6.81818">
        <ele>2083.31</ele>
        <time>2014-10-04T12:31:16Z</time>
      </trkpt>
      <trkpt lat="46.35915" lon="6.81814">
        <ele>2079.47</ele>
        <time>2014-10-04T12:31:28Z</time>
      </trkpt>
      <trkpt lat="46.3591" lon="6.81811">
        <ele>2076.59</ele>
        <time>2014-10-04T12:31:40Z</time>
      </trkpt>
      <trkpt lat="46.35911" lon="6.818">
        <ele>2073.22</ele>
        <time>2014-10-04T12:31:50Z</time>
      </trkpt>
      <trkpt lat="46.35913" lon="6.8179">
        <ele>2070.34</ele>
        <time>2014-10-04T12:32:00Z</time>
      </trkpt>
      <trkpt lat="46.35913" lon="6.81787">
        <ele>2069.86</ele>
        <time>2014-10-04T12:32:02Z</time>
      </trkpt>
      <trkpt lat="46.35916" lon="6.81773">
        <ele>2066.49</ele>
        <time>2014-10-04T12:32:12Z</time>
      </trkpt>
      <trkpt lat="46.35918" lon="6.81767">
        <ele>2065.53</ele>
        <time>2014-10-04T12:32:17Z</time>
      </trkpt>
      <trkpt lat="46.35922" lon="6.81751">
        <ele>2061.68</ele>
        <time>2014-10-04T12:32:31Z</time>
      </trkpt>
      <trkpt lat="46.35923" lon="6.81749">
        <ele>2061.2</ele>
        <time>2014-10-04T12:32:32Z</time>
      </trkpt>
      <trkpt lat="46.35933" lon="6.81733">
        <ele>2058.32</ele>
        <time>2014-10-04T12:32:46Z</time>
      </trkpt>
      <trkpt lat="46.35936" lon="6.81721">
        <ele>2055.44</ele>
        <time>2014-10-04T12:32:58Z</time>
      </trkpt>
      <trkpt lat="46.35937" lon="6.81711">
        <ele>2052.07</ele>
        <time>2014-10-04T12:33:08Z</time>
      </trkpt>
      <trkpt lat="46.35939" lon="6.81703">
        <ele>2049.19</ele>
        <time>2014-10-04T12:33:17Z</time>
      </trkpt>
      <trkpt lat="46.35941" lon="6.81697">
        <ele>2045.82</ele>
        <time>2014-10-04T12:33:27Z</time>
      </trkpt>
      <trkpt lat="46.35943" lon="6.81691">
        <ele>2043.42</ele>
        <time>2014-10-04T12:33:33Z</time>
      </trkpt>
      <trkpt lat="46.35944" lon="6.81683">
        <ele>2040.54</ele>
        <time>2014-10-04T12:33:41Z</time>
      </trkpt>
      <trkpt lat="46.35944" lon="6.81682">
        <ele>2040.54</ele>
        <time>2014-10-04T12:33:42Z</time>
      </trkpt>
      <trkpt lat="46.35945" lon="6.8168">
        <ele>2039.57</ele>
        <time>2014-10-04T12:33:44Z</time>
      </trkpt>
      <trkpt lat="46.35946" lon="6.81674">
        <ele>2038.13</ele>
        <time>2014-10-04T12:33:49Z</time>
      </trkpt>
      <trkpt lat="46.35948" lon="6.81671">
        <ele>2037.65</ele>
        <time>2014-10-04T12:33:52Z</time>
      </trkpt>
      <trkpt lat="46.35951" lon="6.81669">
        <ele>2037.17</ele>
        <time>2014-10-04T12:33:56Z</time>
      </trkpt>
      <trkpt lat="46.35955" lon="6.81663">
        <ele>2035.73</ele>
        <time>2014-10-04T12:34:14Z</time>
      </trkpt>
      <trkpt lat="46.35956" lon="6.81663">
        <ele>2035.73</ele>
        <time>2014-10-04T12:34:37Z</time>
      </trkpt>
      <trkpt lat="46.35956" lon="6.81664">
        <ele>2035.73</ele>
        <time>2014-10-04T12:34:56Z</time>
      </trkpt>
      <trkpt lat="46.35956" lon="6.81663">
        <ele>2035.73</ele>
        <time>2014-10-04T12:35:13Z</time>
      </trkpt>
      <trkpt lat="46.35957" lon="6.81661">
        <ele>2035.25</ele>
        <time>2014-10-04T12:35:40Z</time>
      </trkpt>
      <trkpt lat="46.35957" lon="6.81662">
        <ele>2035.25</ele>
        <time>2014-10-04T12:35:53Z</time>
      </trkpt>
      <trkpt lat="46.35958" lon="6.8166">
        <ele>2034.77</ele>
        <time>2014-10-04T12:36:08Z</time>
      </trkpt>
      <trkpt lat="46.35956" lon="6.81658">
        <ele>2034.77</ele>
        <time>2014-10-04T12:36:24Z</time>
      </trkpt>
      <trkpt lat="46.35953" lon="6.81656">
        <ele>2032.84</ele>
        <time>2014-10-04T12:36:33Z</time>
      </trkpt>
      <trkpt lat="46.35949" lon="6.81649">
        <ele>2030.92</ele>
        <time>2014-10-04T12:36:39Z</time>
      </trkpt>
      <trkpt lat="46.35946" lon="6.81648">
        <ele>2029.48</ele>
        <time>2014-10-04T12:36:42Z</time>
      </trkpt>
      <trkpt lat="46.35945" lon="6.81648">
        <ele>2029</ele>
        <time>2014-10-04T12:36:44Z</time>
      </trkpt>
      <trkpt lat="46.35943" lon="6.81648">
        <ele>2028.52</ele>
        <time>2014-10-04T12:36:46Z</time>
      </trkpt>
      <trkpt lat="46.3594" lon="6.81647">
        <ele>2026.6</ele>
        <time>2014-10-04T12:36:50Z</time>
      </trkpt>
      <trkpt lat="46.35938" lon="6.81646">
        <ele>2025.64</ele>
        <time>2014-10-04T12:36:52Z</time>
      </trkpt>
      <trkpt lat="46.35933" lon="6.81643">
        <ele>2023.71</ele>
        <time>2014-10-04T12:36:58Z</time>
      </trkpt>
      <trkpt lat="46.35921" lon="6.81648">
        <ele>2020.83</ele>
        <time>2014-10-04T12:37:11Z</time>
      </trkpt>
      <trkpt lat="46.35902" lon="6.81654">
        <ele>2017.94</ele>
        <time>2014-10-04T12:37:30Z</time>
      </trkpt>
      <trkpt lat="46.35901" lon="6.81654">
        <ele>2017.94</ele>
        <time>2014-10-04T12:37:31Z</time>
      </trkpt>
      <trkpt lat="46.35883" lon="6.81649">
        <ele>2014.58</ele>
        <time>2014-10-04T12:37:47Z</time>
      </trkpt>
      <trkpt lat="46.35873" lon="6.81644">
        <ele>2012.18</ele>
        <time>2014-10-04T12:37:56Z</time>
      </trkpt>
      <trkpt lat="46.35859" lon="6.81632">
        <ele>2011.7</ele>
        <time>2014-10-04T12:38:12Z</time>
      </trkpt>
      <trkpt lat="46.35848" lon="6.81617">
        <ele>2009.77</ele>
        <time>2014-10-04T12:38:25Z</time>
      </trkpt>
      <trkpt lat="46.35834" lon="6.81603">
        <ele>2007.37</ele>
        <time>2014-10-04T12:38:42Z</time>
      </trkpt>
      <trkpt lat="46.35818" lon="6.81606">
        <ele>2006.41</ele>
        <time>2014-10-04T12:38:57Z</time>
      </trkpt>
      <trkpt lat="46.35816" lon="6.816">
        <ele>2005.45</ele>
        <time>2014-10-04T12:39:06Z</time>
      </trkpt>
      <trkpt lat="46.35813" lon="6.81589">
        <ele>2003.52</ele>
        <time>2014-10-04T12:39:14Z</time>
      </trkpt>
      <trkpt lat="46.35809" lon="6.81586">
        <ele>2003.04</ele>
        <time>2014-10-04T12:39:33Z</time>
      </trkpt>
      <trkpt lat="46.35811" lon="6.81586">
        <ele>2002.56</ele>
        <time>2014-10-04T12:39:58Z</time>
      </trkpt>
      <trkpt lat="46.35812" lon="6.81592">
        <ele>2004.01</ele>
        <time>2014-10-04T12:40:04Z</time>
      </trkpt>
      <trkpt lat="46.35814" lon="6.81602">
        <ele>2005.45</ele>
        <time>2014-10-04T12:40:17Z</time>
      </trkpt>
      <trkpt lat="46.35812" lon="6.81605">
        <ele>2004.97</ele>
        <time>2014-10-04T12:40:34Z</time>
      </trkpt>
      <trkpt lat="46.35812" lon="6.81604">
        <ele>2004.97</ele>
        <time>2014-10-04T12:41:01Z</time>
      </trkpt>
      <trkpt lat="46.35812" lon="6.81602">
        <ele>2004.97</ele>
        <time>2014-10-04T12:41:26Z</time>
      </trkpt>
      <trkpt lat="46.35804" lon="6.81607">
        <ele>2004.49</ele>
        <time>2014-10-04T12:41:49Z</time>
      </trkpt>
      <trkpt lat="46.35796" lon="6.81611">
        <ele>2003.52</ele>
        <time>2014-10-04T12:41:58Z</time>
      </trkpt>
      <trkpt lat="46.35779" lon="6.8161">
        <ele>2001.6</ele>
        <time>2014-10-04T12:42:15Z</time>
      </trkpt>
      <trkpt lat="46.3576" lon="6.81607">
        <ele>2000.64</ele>
        <time>2014-10-04T12:42:33Z</time>
      </trkpt>
      <trkpt lat="46.35742" lon="6.81614">
        <ele>1998.72</ele>
        <time>2014-10-04T12:42:50Z</time>
      </trkpt>
      <trkpt lat="46.35721" lon="6.81622">
        <ele>1996.8</ele>
        <time>2014-10-04T12:43:09Z</time>
      </trkpt>
      <trkpt lat="46.35701" lon="6.81627">
        <ele>1996.8</ele>
        <time>2014-10-04T12:43:26Z</time>
      </trkpt>
      <trkpt lat="46.35679" lon="6.81642">
        <ele>1993.43</ele>
        <time>2014-10-04T12:43:47Z</time>
      </trkpt>
      <trkpt lat="46.3567" lon="6.81667">
        <ele>1991.51</ele>
        <time>2014-10-04T12:44:05Z</time>
      </trkpt>
      <trkpt lat="46.35673" lon="6.81694">
        <ele>1988.14</ele>
        <time>2014-10-04T12:44:22Z</time>
      </trkpt>
      <trkpt lat="46.3568" lon="6.81719">
        <ele>1985.74</ele>
        <time>2014-10-04T12:44:38Z</time>
      </trkpt>
      <trkpt lat="46.35685" lon="6.81751">
        <ele>1984.78</ele>
        <time>2014-10-04T12:44:55Z</time>
      </trkpt>
      <trkpt lat="46.35686" lon="6.8178">
        <ele>1983.34</ele>
        <time>2014-10-04T12:45:11Z</time>
      </trkpt>
      <trkpt lat="46.35682" lon="6.81806">
        <ele>1982.86</ele>
        <time>2014-10-04T12:45:26Z</time>
      </trkpt>
      <trkpt lat="46.35674" lon="6.81826">
        <ele>1981.9</ele>
        <time>2014-10-04T12:45:38Z</time>
      </trkpt>
      <trkpt lat="46.35662" lon="6.81842">
        <ele>1981.9</ele>
        <time>2014-10-04T12:45:53Z</time>
      </trkpt>
      <trkpt lat="46.3565" lon="6.81855">
        <ele>1981.41</ele>
        <time>2014-10-04T12:46:06Z</time>
      </trkpt>
      <trkpt lat="46.35635" lon="6.81869">
        <ele>1981.41</ele>
        <time>2014-10-04T12:46:20Z</time>
      </trkpt>
      <trkpt lat="46.35613" lon="6.81887">
        <ele>1982.86</ele>
        <time>2014-10-04T12:46:40Z</time>
      </trkpt>
      <trkpt lat="46.3559" lon="6.81888">
        <ele>1982.86</ele>
        <time>2014-10-04T12:46:59Z</time>
      </trkpt>
      <trkpt lat="46.35578" lon="6.81887">
        <ele>1980.93</ele>
        <time>2014-10-04T12:47:09Z</time>
      </trkpt>
      <trkpt lat="46.35562" lon="6.81886">
        <ele>1979.49</ele>
        <time>2014-10-04T12:47:23Z</time>
      </trkpt>
      <trkpt lat="46.35556" lon="6.81888">
        <ele>1979.01</ele>
        <time>2014-10-04T12:47:28Z</time>
      </trkpt>
      <trkpt lat="46.35539" lon="6.81887">
        <ele>1978.05</ele>
        <time>2014-10-04T12:47:43Z</time>
      </trkpt>
      <trkpt lat="46.35519" lon="6.81879">
        <ele>1977.09</ele>
        <time>2014-10-04T12:48:00Z</time>
      </trkpt>
      <trkpt lat="46.35498" lon="6.81872">
        <ele>1977.09</ele>
        <time>2014-10-04T12:48:19Z</time>
      </trkpt>
      <trkpt lat="46.35482" lon="6.81856">
        <ele>1976.61</ele>
        <time>2014-10-04T12:48:36Z</time>
      </trkpt>
      <trkpt lat="46.35474" lon="6.81851">
        <ele>1975.17</ele>
        <time>2014-10-04T12:48:44Z</time>
      </trkpt>
      <trkpt lat="46.35448" lon="6.8185">
        <ele>1972.28</ele>
        <time>2014-10-04T12:49:05Z</time>
      </trkpt>
      <trkpt lat="46.3544" lon="6.81848">
        <ele>1972.28</ele>
        <time>2014-10-04T12:49:12Z</time>
      </trkpt>
      <trkpt lat="46.35434" lon="6.81839">
        <ele>1972.28</ele>
        <time>2014-10-04T12:49:18Z</time>
      </trkpt>
      <trkpt lat="46.35419" lon="6.81818">
        <ele>1973.72</ele>
        <time>2014-10-04T12:49:35Z</time>
      </trkpt>
      <trkpt lat="46.35418" lon="6.81817">
        <ele>1973.72</ele>
        <time>2014-10-04T12:49:36Z</time>
      </trkpt>
      <trkpt lat="46.35413" lon="6.81816">
        <ele>1972.28</ele>
        <time>2014-10-04T12:49:42Z</time>
      </trkpt>
      <trkpt lat="46.35406" lon="6.81817">
        <ele>1971.32</ele>
        <time>2014-10-04T12:49:49Z</time>
      </trkpt>
      <trkpt lat="46.35393" lon="6.81814">
        <ele>1969.4</ele>
        <time>2014-10-04T12:50:02Z</time>
      </trkpt>
      <trkpt lat="46.35383" lon="6.81809">
        <ele>1966.99</ele>
        <time>2014-10-04T12:50:12Z</time>
      </trkpt>
      <trkpt lat="46.35379" lon="6.81814">
        <ele>1966.51</ele>
        <time>2014-10-04T12:50:17Z</time>
      </trkpt>
      <trkpt lat="46.35385" lon="6.81826">
        <ele>1964.59</ele>
        <time>2014-10-04T12:50:27Z</time>
      </trkpt>
      <trkpt lat="46.35388" lon="6.81837">
        <ele>1963.15</ele>
        <time>2014-10-04T12:50:34Z</time>
      </trkpt>
      <trkpt lat="46.35375" lon="6.8184">
        <ele>1959.78</ele>
        <time>2014-10-04T12:50:50Z</time>
      </trkpt>
      <trkpt lat="46.35365" lon="6.81834">
        <ele>1956.42</ele>
        <time>2014-10-04T12:51:02Z</time>
      </trkpt>
      <trkpt lat="46.35363" lon="6.81834">
        <ele>1955.46</ele>
        <time>2014-10-04T12:51:05Z</time>
      </trkpt>
      <trkpt lat="46.35355" lon="6.81841">
        <ele>1952.09</ele>
        <time>2014-10-04T12:51:16Z</time>
      </trkpt>
      <trkpt lat="46.35348" lon="6.81852">
        <ele>1948.73</ele>
        <time>2014-10-04T12:51:29Z</time>
      </trkpt>
      <trkpt lat="46.35347" lon="6.81853">
        <ele>1948.73</ele>
        <time>2014-10-04T12:51:30Z</time>
      </trkpt>
      <trkpt lat="46.35343" lon="6.81859">
        <ele>1946.81</ele>
        <time>2014-10-04T12:51:35Z</time>
      </trkpt>
      <trkpt lat="46.35343" lon="6.81874">
        <ele>1942.96</ele>
        <time>2014-10-04T12:51:47Z</time>
      </trkpt>
      <trkpt lat="46.35342" lon="6.81894">
        <ele>1940.08</ele>
        <time>2014-10-04T12:52:02Z</time>
      </trkpt>
      <trkpt lat="46.3534" lon="6.81903">
        <ele>1936.71</ele>
        <time>2014-10-04T12:52:10Z</time>
      </trkpt>
      <trkpt lat="46.35342" lon="6.81913">
        <ele>1933.83</ele>
        <time>2014-10-04T12:52:20Z</time>
      </trkpt>
      <trkpt lat="46.35342" lon="6.81922">
        <ele>1930.95</ele>
        <time>2014-10-04T12:52:29Z</time>
      </trkpt>
      <trkpt lat="46.35335" lon="6.81926">
        <ele>1929.02</ele>
        <time>2014-10-04T12:52:39Z</time>
      </trkpt>
      <trkpt lat="46.35328" lon="6.81928">
        <ele>1926.14</ele>
        <time>2014-10-04T12:52:50Z</time>
      </trkpt>
      <trkpt lat="46.35325" lon="6.81945">
        <ele>1922.77</ele>
        <time>2014-10-04T12:53:03Z</time>
      </trkpt>
      <trkpt lat="46.35325" lon="6.81957">
        <ele>1919.89</ele>
        <time>2014-10-04T12:53:14Z</time>
      </trkpt>
      <trkpt lat="46.35325" lon="6.81974">
        <ele>1916.53</ele>
        <time>2014-10-04T12:53:27Z</time>
      </trkpt>
      <trkpt lat="46.35328" lon="6.81988">
        <ele>1913.16</ele>
        <time>2014-10-04T12:53:39Z</time>
      </trkpt>
      <trkpt lat="46.3533" lon="6.82004">
        <ele>1909.8</ele>
        <time>2014-10-04T12:53:53Z</time>
      </trkpt>
      <trkpt lat="46.35334" lon="6.8202">
        <ele>1906.91</ele>
        <time>2014-10-04T12:54:06Z</time>
      </trkpt>
      <trkpt lat="46.35337" lon="6.82039">
        <ele>1904.03</ele>
        <time>2014-10-04T12:54:19Z</time>
      </trkpt>
      <trkpt lat="46.3534" lon="6.82054">
        <ele>1901.14</ele>
        <time>2014-10-04T12:54:30Z</time>
      </trkpt>
      <trkpt lat="46.35341" lon="6.82067">
        <ele>1897.78</ele>
        <time>2014-10-04T12:54:41Z</time>
      </trkpt>
      <trkpt lat="46.35343" lon="6.82084">
        <ele>1894.42</ele>
        <time>2014-10-04T12:54:54Z</time>
      </trkpt>
      <trkpt lat="46.35345" lon="6.82101">
        <ele>1891.53</ele>
        <time>2014-10-04T12:55:06Z</time>
      </trkpt>
      <trkpt lat="46.35345" lon="6.82106">
        <ele>1891.05</ele>
        <time>2014-10-04T12:55:09Z</time>
      </trkpt>
      <trkpt lat="46.35342" lon="6.82117">
        <ele>1889.61</ele>
        <time>2014-10-04T12:55:17Z</time>
      </trkpt>
      <trkpt lat="46.35336" lon="6.82121">
        <ele>1888.17</ele>
        <time>2014-10-04T12:55:23Z</time>
      </trkpt>
      <trkpt lat="46.35317" lon="6.82118">
        <ele>1884.8</ele>
        <time>2014-10-04T12:55:40Z</time>
      </trkpt>
      <trkpt lat="46.35305" lon="6.82109">
        <ele>1881.44</ele>
        <time>2014-10-04T12:55:52Z</time>
      </trkpt>
      <trkpt lat="46.35301" lon="6.82105">
        <ele>1880.96</ele>
        <time>2014-10-04T12:55:56Z</time>
      </trkpt>
      <trkpt lat="46.35301" lon="6.82103">
        <ele>1880.48</ele>
        <time>2014-10-04T12:55:58Z</time>
      </trkpt>
      <trkpt lat="46.35299" lon="6.821">
        <ele>1880</ele>
        <time>2014-10-04T12:56:01Z</time>
      </trkpt>
      <trkpt lat="46.35291" lon="6.82082">
        <ele>1876.63</ele>
        <time>2014-10-04T12:56:15Z</time>
      </trkpt>
      <trkpt lat="46.35284" lon="6.82066">
        <ele>1873.27</ele>
        <time>2014-10-04T12:56:29Z</time>
      </trkpt>
      <trkpt lat="46.35282" lon="6.82062">
        <ele>1872.79</ele>
        <time>2014-10-04T12:56:32Z</time>
      </trkpt>
      <trkpt lat="46.35276" lon="6.8205">
        <ele>1870.86</ele>
        <time>2014-10-04T12:56:41Z</time>
      </trkpt>
      <trkpt lat="46.35273" lon="6.8205">
        <ele>1870.38</ele>
        <time>2014-10-04T12:56:45Z</time>
      </trkpt>
      <trkpt lat="46.35272" lon="6.82063">
        <ele>1868.94</ele>
        <time>2014-10-04T12:56:52Z</time>
      </trkpt>
      <trkpt lat="46.35275" lon="6.82094">
        <ele>1865.58</ele>
        <time>2014-10-04T12:57:09Z</time>
      </trkpt>
      <trkpt lat="46.35276" lon="6.82124">
        <ele>1865.09</ele>
        <time>2014-10-04T12:57:28Z</time>
      </trkpt>
      <trkpt lat="46.35278" lon="6.82158">
        <ele>1864.13</ele>
        <time>2014-10-04T12:57:47Z</time>
      </trkpt>
      <trkpt lat="46.35282" lon="6.82194">
        <ele>1862.69</ele>
        <time>2014-10-04T12:58:07Z</time>
      </trkpt>
      <trkpt lat="46.35282" lon="6.82222">
        <ele>1859.81</ele>
        <time>2014-10-04T12:58:24Z</time>
      </trkpt>
      <trkpt lat="46.35286" lon="6.8223">
        <ele>1857.4</ele>
        <time>2014-10-04T12:58:32Z</time>
      </trkpt>
      <trkpt lat="46.35295" lon="6.82251">
        <ele>1854.04</ele>
        <time>2014-10-04T12:58:47Z</time>
      </trkpt>
      <trkpt lat="46.35302" lon="6.82269">
        <ele>1850.68</ele>
        <time>2014-10-04T12:59:01Z</time>
      </trkpt>
      <trkpt lat="46.35302" lon="6.82275">
        <ele>1849.23</ele>
        <time>2014-10-04T12:59:05Z</time>
      </trkpt>
      <trkpt lat="46.35303" lon="6.82298">
        <ele>1845.87</ele>
        <time>2014-10-04T12:59:19Z</time>
      </trkpt>
      <trkpt lat="46.35303" lon="6.82305">
        <ele>1845.87</ele>
        <time>2014-10-04T12:59:23Z</time>
      </trkpt>
      <trkpt lat="46.35288" lon="6.82323">
        <ele>1843.47</ele>
        <time>2014-10-04T12:59:40Z</time>
      </trkpt>
      <trkpt lat="46.35279" lon="6.82336">
        <ele>1840.1</ele>
        <time>2014-10-04T12:59:52Z</time>
      </trkpt>
      <trkpt lat="46.35273" lon="6.82351">
        <ele>1837.22</ele>
        <time>2014-10-04T13:00:03Z</time>
      </trkpt>
      <trkpt lat="46.35269" lon="6.82366">
        <ele>1835.29</ele>
        <time>2014-10-04T13:00:17Z</time>
      </trkpt>
      <trkpt lat="46.35262" lon="6.82392">
        <ele>1831.93</ele>
        <time>2014-10-04T13:00:33Z</time>
      </trkpt>
      <trkpt lat="46.35257" lon="6.82409">
        <ele>1828.56</ele>
        <time>2014-10-04T13:00:44Z</time>
      </trkpt>
      <trkpt lat="46.35249" lon="6.82428">
        <ele>1825.2</ele>
        <time>2014-10-04T13:00:58Z</time>
      </trkpt>
      <trkpt lat="46.35242" lon="6.82443">
        <ele>1821.84</ele>
        <time>2014-10-04T13:01:10Z</time>
      </trkpt>
      <trkpt lat="46.35237" lon="6.82456">
        <ele>1817.99</ele>
        <time>2014-10-04T13:01:21Z</time>
      </trkpt>
      <trkpt lat="46.35231" lon="6.82457">
        <ele>1817.99</ele>
        <time>2014-10-04T13:01:29Z</time>
      </trkpt>
      <trkpt lat="46.35225" lon="6.82441">
        <ele>1814.63</ele>
        <time>2014-10-04T13:01:41Z</time>
      </trkpt>
      <trkpt lat="46.35222" lon="6.82424">
        <ele>1811.26</ele>
        <time>2014-10-04T13:01:51Z</time>
      </trkpt>
      <trkpt lat="46.3522" lon="6.8242">
        <ele>1809.82</ele>
        <time>2014-10-04T13:02:07Z</time>
      </trkpt>
      <trkpt lat="46.35221" lon="6.82421">
        <ele>1809.82</ele>
        <time>2014-10-04T13:02:28Z</time>
      </trkpt>
      <trkpt lat="46.35221" lon="6.8242">
        <ele>1809.82</ele>
        <time>2014-10-04T13:02:51Z</time>
      </trkpt>
      <trkpt lat="46.35221" lon="6.82418">
        <ele>1809.82</ele>
        <time>2014-10-04T13:03:10Z</time>
      </trkpt>
      <trkpt lat="46.35222" lon="6.8242">
        <ele>1809.82</ele>
        <time>2014-10-04T13:03:29Z</time>
      </trkpt>
      <trkpt lat="46.35222" lon="6.82419">
        <ele>1809.82</ele>
        <time>2014-10-04T13:03:55Z</time>
      </trkpt>
      <trkpt lat="46.35221" lon="6.82418">
        <ele>1810.78</ele>
        <time>2014-10-04T13:04:10Z</time>
      </trkpt>
      <trkpt lat="46.35221" lon="6.82418">
        <ele>1810.78</ele>
        <time>2014-10-04T13:04:33Z</time>
      </trkpt>
      <trkpt lat="46.35221" lon="6.82416">
        <ele>1810.78</ele>
        <time>2014-10-04T13:04:53Z</time>
      </trkpt>
      <trkpt lat="46.35221" lon="6.82418">
        <ele>1810.78</ele>
        <time>2014-10-04T13:05:19Z</time>
      </trkpt>
      <trkpt lat="46.35218" lon="6.8241">
        <ele>1809.34</ele>
        <time>2014-10-04T13:05:36Z</time>
      </trkpt>
      <trkpt lat="46.35213" lon="6.82388">
        <ele>1805.97</ele>
        <time>2014-10-04T13:05:54Z</time>
      </trkpt>
      <trkpt lat="46.35208" lon="6.82371">
        <ele>1803.57</ele>
        <time>2014-10-04T13:06:08Z</time>
      </trkpt>
      <trkpt lat="46.35206" lon="6.82352">
        <ele>1800.21</ele>
        <time>2014-10-04T13:06:22Z</time>
      </trkpt>
      <trkpt lat="46.35201" lon="6.82335">
        <ele>1796.84</ele>
        <time>2014-10-04T13:06:37Z</time>
      </trkpt>
      <trkpt lat="46.35196" lon="6.82338">
        <ele>1793.48</ele>
        <time>2014-10-04T13:06:56Z</time>
      </trkpt>
      <trkpt lat="46.35196" lon="6.82342">
        <ele>1793</ele>
        <time>2014-10-04T13:06:59Z</time>
      </trkpt>
      <trkpt lat="46.35186" lon="6.82362">
        <ele>1789.63</ele>
        <time>2014-10-04T13:07:17Z</time>
      </trkpt>
      <trkpt lat="46.35179" lon="6.82384">
        <ele>1786.27</ele>
        <time>2014-10-04T13:07:32Z</time>
      </trkpt>
      <trkpt lat="46.35174" lon="6.82399">
        <ele>1783.38</ele>
        <time>2014-10-04T13:07:45Z</time>
      </trkpt>
      <trkpt lat="46.35173" lon="6.824">
        <ele>1782.9</ele>
        <time>2014-10-04T13:07:46Z</time>
      </trkpt>
      <trkpt lat="46.35166" lon="6.82393">
        <ele>1781.46</ele>
        <time>2014-10-04T13:07:54Z</time>
      </trkpt>
      <trkpt lat="46.35161" lon="6.82371">
        <ele>1779.06</ele>
        <time>2014-10-04T13:08:08Z</time>
      </trkpt>
      <trkpt lat="46.35163" lon="6.82353">
        <ele>1775.69</ele>
        <time>2014-10-04T13:08:20Z</time>
      </trkpt>
      <trkpt lat="46.35163" lon="6.82345">
        <ele>1774.73</ele>
        <time>2014-10-04T13:08:27Z</time>
      </trkpt>
      <trkpt lat="46.35154" lon="6.82349">
        <ele>1770.89</ele>
        <time>2014-10-04T13:08:41Z</time>
      </trkpt>
      <trkpt lat="46.35148" lon="6.82358">
        <ele>1767.04</ele>
        <time>2014-10-04T13:08:53Z</time>
      </trkpt>
      <trkpt lat="46.35147" lon="6.82359">
        <ele>1767.04</ele>
        <time>2014-10-04T13:08:54Z</time>
      </trkpt>
      <trkpt lat="46.35141" lon="6.82365">
        <ele>1765.12</ele>
        <time>2014-10-04T13:09:01Z</time>
      </trkpt>
      <trkpt lat="46.35134" lon="6.82388">
        <ele>1761.75</ele>
        <time>2014-10-04T13:09:16Z</time>
      </trkpt>
      <trkpt lat="46.35138" lon="6.82415">
        <ele>1758.39</ele>
        <time>2014-10-04T13:09:32Z</time>
      </trkpt>
      <trkpt lat="46.35144" lon="6.82445">
        <ele>1755.5</ele>
        <time>2014-10-04T13:09:51Z</time>
      </trkpt>
      <trkpt lat="46.35142" lon="6.82466">
        <ele>1752.14</ele>
        <time>2014-10-04T13:10:05Z</time>
      </trkpt>
      <trkpt lat="46.35141" lon="6.82474">
        <ele>1750.22</ele>
        <time>2014-10-04T13:10:13Z</time>
      </trkpt>
      <trkpt lat="46.3513" lon="6.82473">
        <ele>1747.81</ele>
        <time>2014-10-04T13:10:24Z</time>
      </trkpt>
      <trkpt lat="46.35126" lon="6.82471">
        <ele>1746.85</ele>
        <time>2014-10-04T13:10:28Z</time>
      </trkpt>
      <trkpt lat="46.3512" lon="6.82485">
        <ele>1743.49</ele>
        <time>2014-10-04T13:10:39Z</time>
      </trkpt>
      <trkpt lat="46.35123" lon="6.82505">
        <ele>1740.6</ele>
        <time>2014-10-04T13:10:52Z</time>
      </trkpt>
      <trkpt lat="46.35125" lon="6.82522">
        <ele>1737.24</ele>
        <time>2014-10-04T13:11:04Z</time>
      </trkpt>
      <trkpt lat="46.35123" lon="6.82536">
        <ele>1734.36</ele>
        <time>2014-10-04T13:11:14Z</time>
      </trkpt>
      <trkpt lat="46.35124" lon="6.82556">
        <ele>1730.51</ele>
        <time>2014-10-04T13:11:27Z</time>
      </trkpt>
      <trkpt lat="46.35126" lon="6.82562">
        <ele>1729.55</ele>
        <time>2014-10-04T13:11:32Z</time>
      </trkpt>
      <trkpt lat="46.35126" lon="6.82584">
        <ele>1726.18</ele>
        <time>2014-10-04T13:11:46Z</time>
      </trkpt>
      <trkpt lat="46.35115" lon="6.82607">
        <ele>1722.82</ele>
        <time>2014-10-04T13:12:02Z</time>
      </trkpt>
      <trkpt lat="46.35101" lon="6.82619">
        <ele>1719.46</ele>
        <time>2014-10-04T13:12:16Z</time>
      </trkpt>
      <trkpt lat="46.35087" lon="6.8263">
        <ele>1716.09</ele>
        <time>2014-10-04T13:12:29Z</time>
      </trkpt>
      <trkpt lat="46.35077" lon="6.82644">
        <ele>1712.73</ele>
        <time>2014-10-04T13:12:42Z</time>
      </trkpt>
      <trkpt lat="46.35069" lon="6.82661">
        <ele>1709.36</ele>
        <time>2014-10-04T13:12:55Z</time>
      </trkpt>
      <trkpt lat="46.35065" lon="6.82678">
        <ele>1706</ele>
        <time>2014-10-04T13:13:07Z</time>
      </trkpt>
      <trkpt lat="46.3506" lon="6.82699">
        <ele>1702.63</ele>
        <time>2014-10-04T13:13:21Z</time>
      </trkpt>
      <trkpt lat="46.35056" lon="6.82701">
        <ele>1702.15</ele>
        <time>2014-10-04T13:13:38Z</time>
      </trkpt>
      <trkpt lat="46.35056" lon="6.82701">
        <ele>1701.67</ele>
        <time>2014-10-04T13:14:12Z</time>
      </trkpt>
      <trkpt lat="46.35057" lon="6.82713">
        <ele>1699.75</ele>
        <time>2014-10-04T13:14:38Z</time>
      </trkpt>
      <trkpt lat="46.35062" lon="6.82735">
        <ele>1695.9</ele>
        <time>2014-10-04T13:14:53Z</time>
      </trkpt>
      <trkpt lat="46.35062" lon="6.82736">
        <ele>1695.9</ele>
        <time>2014-10-04T13:14:54Z</time>
      </trkpt>
      <trkpt lat="46.35061" lon="6.82746">
        <ele>1693.5</ele>
        <time>2014-10-04T13:15:01Z</time>
      </trkpt>
      <trkpt lat="46.35055" lon="6.82761">
        <ele>1690.14</ele>
        <time>2014-10-04T13:15:11Z</time>
      </trkpt>
      <trkpt lat="46.35042" lon="6.8278">
        <ele>1686.77</ele>
        <time>2014-10-04T13:15:26Z</time>
      </trkpt>
      <trkpt lat="46.35029" lon="6.8279">
        <ele>1683.89</ele>
        <time>2014-10-04T13:15:38Z</time>
      </trkpt>
      <trkpt lat="46.35015" lon="6.82803">
        <ele>1680.52</ele>
        <time>2014-10-04T13:15:52Z</time>
      </trkpt>
      <trkpt lat="46.3501" lon="6.82819">
        <ele>1677.64</ele>
        <time>2014-10-04T13:16:03Z</time>
      </trkpt>
      <trkpt lat="46.35003" lon="6.82834">
        <ele>1674.27</ele>
        <time>2014-10-04T13:16:14Z</time>
      </trkpt>
      <trkpt lat="46.3499" lon="6.82848">
        <ele>1670.91</ele>
        <time>2014-10-04T13:16:28Z</time>
      </trkpt>
      <trkpt lat="46.34972" lon="6.82862">
        <ele>1667.54</ele>
        <time>2014-10-04T13:16:45Z</time>
      </trkpt>
      <trkpt lat="46.34963" lon="6.82871">
        <ele>1664.18</ele>
        <time>2014-10-04T13:16:56Z</time>
      </trkpt>
      <trkpt lat="46.34952" lon="6.82886">
        <ele>1660.81</ele>
        <time>2014-10-04T13:17:10Z</time>
      </trkpt>
      <trkpt lat="46.34942" lon="6.82902">
        <ele>1657.45</ele>
        <time>2014-10-04T13:17:23Z</time>
      </trkpt>
      <trkpt lat="46.3493" lon="6.82916">
        <ele>1654.57</ele>
        <time>2014-10-04T13:17:38Z</time>
      </trkpt>
      <trkpt lat="46.34929" lon="6.82917">
        <ele>1654.09</ele>
        <time>2014-10-04T13:17:39Z</time>
      </trkpt>
      <trkpt lat="46.34912" lon="6.82932">
        <ele>1650.72</ele>
        <time>2014-10-04T13:17:55Z</time>
      </trkpt>
      <trkpt lat="46.349" lon="6.82941">
        <ele>1647.84</ele>
        <time>2014-10-04T13:18:08Z</time>
      </trkpt>
      <trkpt lat="46.34889" lon="6.82951">
        <ele>1644.47</ele>
        <time>2014-10-04T13:18:21Z</time>
      </trkpt>
      <trkpt lat="46.34879" lon="6.82964">
        <ele>1641.11</ele>
        <time>2014-10-04T13:18:33Z</time>
      </trkpt>
      <trkpt lat="46.34867" lon="6.82984">
        <ele>1637.74</ele>
        <time>2014-10-04T13:18:46Z</time>
      </trkpt>
      <trkpt lat="46.3486" lon="6.82999">
        <ele>1634.38</ele>
        <time>2014-10-04T13:18:59Z</time>
      </trkpt>
      <trkpt lat="46.34851" lon="6.83012">
        <ele>1631.01</ele>
        <time>2014-10-04T13:19:10Z</time>
      </trkpt>
      <trkpt lat="46.34845" lon="6.83027">
        <ele>1628.13</ele>
        <time>2014-10-04T13:19:22Z</time>
      </trkpt>
      <trkpt lat="46.34836" lon="6.83041">
        <ele>1624.77</ele>
        <time>2014-10-04T13:19:34Z</time>
      </trkpt>
      <trkpt lat="46.34824" lon="6.83058">
        <ele>1621.88</ele>
        <time>2014-10-04T13:19:47Z</time>
      </trkpt>
      <trkpt lat="46.34812" lon="6.83073">
        <ele>1618.52</ele>
        <time>2014-10-04T13:19:58Z</time>
      </trkpt>
      <trkpt lat="46.34803" lon="6.83089">
        <ele>1615.63</ele>
        <time>2014-10-04T13:20:10Z</time>
      </trkpt>
      <trkpt lat="46.34802" lon="6.83092">
        <ele>1614.67</ele>
        <time>2014-10-04T13:20:12Z</time>
      </trkpt>
      <trkpt lat="46.34798" lon="6.83106">
        <ele>1611.31</ele>
        <time>2014-10-04T13:20:23Z</time>
      </trkpt>
      <trkpt lat="46.34794" lon="6.83123">
        <ele>1607.94</ele>
        <time>2014-10-04T13:20:34Z</time>
      </trkpt>
      <trkpt lat="46.3479" lon="6.83139">
        <ele>1605.06</ele>
        <time>2014-10-04T13:20:49Z</time>
      </trkpt>
      <trkpt lat="46.34784" lon="6.83139">
        <ele>1604.58</ele>
        <time>2014-10-04T13:21:05Z</time>
      </trkpt>
      <trkpt lat="46.3478" lon="6.83138">
        <ele>1603.14</ele>
        <time>2014-10-04T13:21:25Z</time>
      </trkpt>
      <trkpt lat="46.3478" lon="6.83124">
        <ele>1599.77</ele>
        <time>2014-10-04T13:21:38Z</time>
      </trkpt>
      <trkpt lat="46.34779" lon="6.83106">
        <ele>1596.89</ele>
        <time>2014-10-04T13:21:52Z</time>
      </trkpt>
      <trkpt lat="46.34777" lon="6.83093">
        <ele>1594.48</ele>
        <time>2014-10-04T13:22:01Z</time>
      </trkpt>
      <trkpt lat="46.34772" lon="6.83067">
        <ele>1591.12</ele>
        <time>2014-10-04T13:22:17Z</time>
      </trkpt>
      <trkpt lat="46.34775" lon="6.83045">
        <ele>1588.24</ele>
        <time>2014-10-04T13:22:33Z</time>
      </trkpt>
      <trkpt lat="46.34778" lon="6.83029">
        <ele>1585.35</ele>
        <time>2014-10-04T13:22:46Z</time>
      </trkpt>
      <trkpt lat="46.34783" lon="6.83015">
        <ele>1581.99</ele>
        <time>2014-10-04T13:22:58Z</time>
      </trkpt>
      <trkpt lat="46.34785" lon="6.83">
        <ele>1579.1</ele>
        <time>2014-10-04T13:23:10Z</time>
      </trkpt>
      <trkpt lat="46.34783" lon="6.82977">
        <ele>1575.74</ele>
        <time>2014-10-04T13:23:24Z</time>
      </trkpt>
      <trkpt lat="46.34781" lon="6.82959">
        <ele>1572.37</ele>
        <time>2014-10-04T13:23:37Z</time>
      </trkpt>
      <trkpt lat="46.34777" lon="6.82936">
        <ele>1569.01</ele>
        <time>2014-10-04T13:23:50Z</time>
      </trkpt>
      <trkpt lat="46.34775" lon="6.82916">
        <ele>1566.12</ele>
        <time>2014-10-04T13:24:03Z</time>
      </trkpt>
      <trkpt lat="46.34773" lon="6.82898">
        <ele>1562.76</ele>
        <time>2014-10-04T13:24:13Z</time>
      </trkpt>
      <trkpt lat="46.34773" lon="6.8288">
        <ele>1559.88</ele>
        <time>2014-10-04T13:24:23Z</time>
      </trkpt>
      <trkpt lat="46.34773" lon="6.82876">
        <ele>1559.4</ele>
        <time>2014-10-04T13:24:25Z</time>
      </trkpt>
      <trkpt lat="46.34773" lon="6.8286">
        <ele>1556.03</ele>
        <time>2014-10-04T13:24:36Z</time>
      </trkpt>
      <trkpt lat="46.34772" lon="6.82846">
        <ele>1553.15</ele>
        <time>2014-10-04T13:24:46Z</time>
      </trkpt>
      <trkpt lat="46.34771" lon="6.82828">
        <ele>1549.78</ele>
        <time>2014-10-04T13:24:57Z</time>
      </trkpt>
      <trkpt lat="46.3477" lon="6.82808">
        <ele>1545.94</ele>
        <time>2014-10-04T13:25:09Z</time>
      </trkpt>
      <trkpt lat="46.34769" lon="6.82794">
        <ele>1543.05</ele>
        <time>2014-10-04T13:25:20Z</time>
      </trkpt>
      <trkpt lat="46.34768" lon="6.82776">
        <ele>1539.69</ele>
        <time>2014-10-04T13:25:31Z</time>
      </trkpt>
      <trkpt lat="46.34766" lon="6.82756">
        <ele>1536.32</ele>
        <time>2014-10-04T13:25:43Z</time>
      </trkpt>
      <trkpt lat="46.34763" lon="6.82738">
        <ele>1533.44</ele>
        <time>2014-10-04T13:25:54Z</time>
      </trkpt>
      <trkpt lat="46.34763" lon="6.82718">
        <ele>1529.59</ele>
        <time>2014-10-04T13:26:07Z</time>
      </trkpt>
      <trkpt lat="46.34764" lon="6.82698">
        <ele>1526.71</ele>
        <time>2014-10-04T13:26:20Z</time>
      </trkpt>
      <trkpt lat="46.34765" lon="6.82689">
        <ele>1525.27</ele>
        <time>2014-10-04T13:26:26Z</time>
      </trkpt>
      <trkpt lat="46.34769" lon="6.82673">
        <ele>1522.87</ele>
        <time>2014-10-04T13:26:37Z</time>
      </trkpt>
      <trkpt lat="46.3477" lon="6.82668">
        <ele>1521.42</ele>
        <time>2014-10-04T13:26:41Z</time>
      </trkpt>
      <trkpt lat="46.3477" lon="6.82657">
        <ele>1519.5</ele>
        <time>2014-10-04T13:26:55Z</time>
      </trkpt>
      <trkpt lat="46.34768" lon="6.82653">
        <ele>1518.54</ele>
        <time>2014-10-04T13:27:01Z</time>
      </trkpt>
      <trkpt lat="46.34761" lon="6.82629">
        <ele>1516.62</ele>
        <time>2014-10-04T13:27:17Z</time>
      </trkpt>
      <trkpt lat="46.34752" lon="6.82601">
        <ele>1513.25</ele>
        <time>2014-10-04T13:27:36Z</time>
      </trkpt>
      <trkpt lat="46.3475" lon="6.82591">
        <ele>1512.29</ele>
        <time>2014-10-04T13:27:41Z</time>
      </trkpt>
      <trkpt lat="46.34743" lon="6.82568">
        <ele>1509.89</ele>
        <time>2014-10-04T13:27:57Z</time>
      </trkpt>
      <trkpt lat="46.34731" lon="6.82545">
        <ele>1507.48</ele>
        <time>2014-10-04T13:28:15Z</time>
      </trkpt>
      <trkpt lat="46.34726" lon="6.82528">
        <ele>1505.56</ele>
        <time>2014-10-04T13:28:25Z</time>
      </trkpt>
      <trkpt lat="46.34723" lon="6.82518">
        <ele>1504.6</ele>
        <time>2014-10-04T13:28:30Z</time>
      </trkpt>
      <trkpt lat="46.34714" lon="6.82492">
        <ele>1502.2</ele>
        <time>2014-10-04T13:28:47Z</time>
      </trkpt>
      <trkpt lat="46.34706" lon="6.82471">
        <ele>1500.27</ele>
        <time>2014-10-04T13:29:03Z</time>
      </trkpt>
      <trkpt lat="46.34694" lon="6.82446">
        <ele>1497.87</ele>
        <time>2014-10-04T13:29:19Z</time>
      </trkpt>
      <trkpt lat="46.34683" lon="6.82421">
        <ele>1494.99</ele>
        <time>2014-10-04T13:29:36Z</time>
      </trkpt>
      <trkpt lat="46.34673" lon="6.82399">
        <ele>1492.58</ele>
        <time>2014-10-04T13:29:53Z</time>
      </trkpt>
      <trkpt lat="46.34664" lon="6.82374">
        <ele>1490.18</ele>
        <time>2014-10-04T13:30:08Z</time>
      </trkpt>
      <trkpt lat="46.34658" lon="6.8235">
        <ele>1488.26</ele>
        <time>2014-10-04T13:30:24Z</time>
      </trkpt>
      <trkpt lat="46.3465" lon="6.8234">
        <ele>1487.3</ele>
        <time>2014-10-04T13:30:32Z</time>
      </trkpt>
      <trkpt lat="46.3464" lon="6.8234">
        <ele>1485.85</ele>
        <time>2014-10-04T13:30:46Z</time>
      </trkpt>
      <trkpt lat="46.34628" lon="6.82334">
        <ele>1482.49</ele>
        <time>2014-10-04T13:30:59Z</time>
      </trkpt>
      <trkpt lat="46.34614" lon="6.82327">
        <ele>1479.13</ele>
        <time>2014-10-04T13:31:12Z</time>
      </trkpt>
      <trkpt lat="46.34603" lon="6.82324">
        <ele>1476.72</ele>
        <time>2014-10-04T13:31:26Z</time>
      </trkpt>
      <trkpt lat="46.34589" lon="6.82318">
        <ele>1473.36</ele>
        <time>2014-10-04T13:31:40Z</time>
      </trkpt>
      <trkpt lat="46.34576" lon="6.82309">
        <ele>1470.95</ele>
        <time>2014-10-04T13:31:52Z</time>
      </trkpt>
      <trkpt lat="46.34568" lon="6.82306">
        <ele>1468.07</ele>
        <time>2014-10-04T13:32:04Z</time>
      </trkpt>
      <trkpt lat="46.34558" lon="6.82299">
        <ele>1465.19</ele>
        <time>2014-10-04T13:32:18Z</time>
      </trkpt>
      <trkpt lat="46.34549" lon="6.82299">
        <ele>1464.23</ele>
        <time>2014-10-04T13:32:31Z</time>
      </trkpt>
      <trkpt lat="46.34544" lon="6.82301">
        <ele>1463.74</ele>
        <time>2014-10-04T13:32:42Z</time>
      </trkpt>
      <trkpt lat="46.34535" lon="6.82293">
        <ele>1466.63</ele>
        <time>2014-10-04T13:32:56Z</time>
      </trkpt>
      <trkpt lat="46.34525" lon="6.82286">
        <ele>1469.51</ele>
        <time>2014-10-04T13:33:11Z</time>
      </trkpt>
      <trkpt lat="46.3452" lon="6.82276">
        <ele>1471.92</ele>
        <time>2014-10-04T13:33:25Z</time>
      </trkpt>
      <trkpt lat="46.3452" lon="6.82272">
        <ele>1473.36</ele>
        <time>2014-10-04T13:33:38Z</time>
      </trkpt>
      <trkpt lat="46.3452" lon="6.82273">
        <ele>1473.36</ele>
        <time>2014-10-04T13:33:57Z</time>
      </trkpt>
      <trkpt lat="46.34521" lon="6.82271">
        <ele>1473.36</ele>
        <time>2014-10-04T13:34:17Z</time>
      </trkpt>
      <trkpt lat="46.34521" lon="6.82273">
        <ele>1472.88</ele>
        <time>2014-10-04T13:34:36Z</time>
      </trkpt>
      <trkpt lat="46.34521" lon="6.82273">
        <ele>1472.88</ele>
        <time>2014-10-04T13:34:56Z</time>
      </trkpt>
      <trkpt lat="46.34522" lon="6.82276">
        <ele>1472.88</ele>
        <time>2014-10-04T13:35:15Z</time>
      </trkpt>
      <trkpt lat="46.34523" lon="6.82275">
        <ele>1472.88</ele>
        <time>2014-10-04T13:35:32Z</time>
      </trkpt>
      <trkpt lat="46.34521" lon="6.82272">
        <ele>1472.88</ele>
        <time>2014-10-04T13:35:52Z</time>
      </trkpt>
      <trkpt lat="46.34521" lon="6.82273">
        <ele>1472.88</ele>
        <time>2014-10-04T13:36:07Z</time>
      </trkpt>
      <trkpt lat="46.34527" lon="6.82272">
        <ele>1472.4</ele>
        <time>2014-10-04T13:36:34Z</time>
      </trkpt>
      <trkpt lat="46.34523" lon="6.82271">
        <ele>1472.4</ele>
        <time>2014-10-04T13:37:00Z</time>
      </trkpt>
      <trkpt lat="46.34518" lon="6.82273">
        <ele>1472.4</ele>
        <time>2014-10-04T13:37:25Z</time>
      </trkpt>
      <trkpt lat="46.3452" lon="6.82271">
        <ele>1472.4</ele>
        <time>2014-10-04T13:37:56Z</time>
      </trkpt>
      <trkpt lat="46.34519" lon="6.82273">
        <ele>1472.4</ele>
        <time>2014-10-04T13:38:15Z</time>
      </trkpt>
      <trkpt lat="46.34521" lon="6.82272">
        <ele>1472.4</ele>
        <time>2014-10-04T13:38:36Z</time>
      </trkpt>
      <trkpt lat="46.34518" lon="6.82267">
        <ele>1471.92</ele>
        <time>2014-10-04T13:39:03Z</time>
      </trkpt>
      <trkpt lat="46.34518" lon="6.82255">
        <ele>1471.92</ele>
        <time>2014-10-04T13:39:15Z</time>
      </trkpt>
      <trkpt lat="46.34516" lon="6.82236">
        <ele>1472.4</ele>
        <time>2014-10-04T13:39:29Z</time>
      </trkpt>
      <trkpt lat="46.34516" lon="6.8223">
        <ele>1472.88</ele>
        <time>2014-10-04T13:39:34Z</time>
      </trkpt>
      <trkpt lat="46.34512" lon="6.82215">
        <ele>1473.84</ele>
        <time>2014-10-04T13:39:46Z</time>
      </trkpt>
      <trkpt lat="46.34502" lon="6.82195">
        <ele>1474.8</ele>
        <time>2014-10-04T13:40:03Z</time>
      </trkpt>
      <trkpt lat="46.34502" lon="6.82182">
        <ele>1475.76</ele>
        <time>2014-10-04T13:40:14Z</time>
      </trkpt>
      <trkpt lat="46.34503" lon="6.82163">
        <ele>1477.2</ele>
        <time>2014-10-04T13:40:28Z</time>
      </trkpt>
      <trkpt lat="46.34502" lon="6.82156">
        <ele>1477.68</ele>
        <time>2014-10-04T13:40:35Z</time>
      </trkpt>
      <trkpt lat="46.34504" lon="6.82141">
        <ele>1479.13</ele>
        <time>2014-10-04T13:40:48Z</time>
      </trkpt>
      <trkpt lat="46.34506" lon="6.82124">
        <ele>1481.05</ele>
        <time>2014-10-04T13:41:01Z</time>
      </trkpt>
      <trkpt lat="46.34507" lon="6.82106">
        <ele>1481.53</ele>
        <time>2014-10-04T13:41:14Z</time>
      </trkpt>
      <trkpt lat="46.34505" lon="6.8209">
        <ele>1482.49</ele>
        <time>2014-10-04T13:41:27Z</time>
      </trkpt>
      <trkpt lat="46.34506" lon="6.82076">
        <ele>1484.89</ele>
        <time>2014-10-04T13:41:39Z</time>
      </trkpt>
      <trkpt lat="46.34503" lon="6.82063">
        <ele>1486.34</ele>
        <time>2014-10-04T13:41:51Z</time>
      </trkpt>
      <trkpt lat="46.34497" lon="6.82047">
        <ele>1488.26</ele>
        <time>2014-10-04T13:42:04Z</time>
      </trkpt>
      <trkpt lat="46.34497" lon="6.82045">
        <ele>1488.26</ele>
        <time>2014-10-04T13:42:06Z</time>
      </trkpt>
      <trkpt lat="46.34493" lon="6.82032">
        <ele>1489.7</ele>
        <time>2014-10-04T13:42:18Z</time>
      </trkpt>
      <trkpt lat="46.34493" lon="6.82015">
        <ele>1491.62</ele>
        <time>2014-10-04T13:42:31Z</time>
      </trkpt>
      <trkpt lat="46.34493" lon="6.82014">
        <ele>1491.62</ele>
        <time>2014-10-04T13:42:32Z</time>
      </trkpt>
      <trkpt lat="46.34489" lon="6.81998">
        <ele>1493.55</ele>
        <time>2014-10-04T13:42:46Z</time>
      </trkpt>
      <trkpt lat="46.3449" lon="6.81995">
        <ele>1494.03</ele>
        <time>2014-10-04T13:42:50Z</time>
      </trkpt>
      <trkpt lat="46.34497" lon="6.81976">
        <ele>1496.43</ele>
        <time>2014-10-04T13:43:05Z</time>
      </trkpt>
      <trkpt lat="46.34502" lon="6.8196">
        <ele>1498.35</ele>
        <time>2014-10-04T13:43:17Z</time>
      </trkpt>
      <trkpt lat="46.3451" lon="6.81948">
        <ele>1500.76</ele>
        <time>2014-10-04T13:43:29Z</time>
      </trkpt>
      <trkpt lat="46.34516" lon="6.81934">
        <ele>1502.68</ele>
        <time>2014-10-04T13:43:41Z</time>
      </trkpt>
      <trkpt lat="46.34517" lon="6.81918">
        <ele>1504.12</ele>
        <time>2014-10-04T13:43:54Z</time>
      </trkpt>
      <trkpt lat="46.34519" lon="6.819">
        <ele>1506.52</ele>
        <time>2014-10-04T13:44:06Z</time>
      </trkpt>
      <trkpt lat="46.34517" lon="6.81891">
        <ele>1508.45</ele>
        <time>2014-10-04T13:44:19Z</time>
      </trkpt>
      <trkpt lat="46.34515" lon="6.81884">
        <ele>1508.93</ele>
        <time>2014-10-04T13:44:32Z</time>
      </trkpt>
      <trkpt lat="46.34513" lon="6.81881">
        <ele>1509.41</ele>
        <time>2014-10-04T13:44:49Z</time>
      </trkpt>
      <trkpt lat="46.34514" lon="6.8188">
        <ele>1509.41</ele>
        <time>2014-10-04T13:45:01Z</time>
      </trkpt>
      <trkpt lat="46.34512" lon="6.81872">
        <ele>1510.85</ele>
        <time>2014-10-04T13:45:14Z</time>
      </trkpt>
      <trkpt lat="46.34507" lon="6.81857">
        <ele>1512.77</ele>
        <time>2014-10-04T13:45:27Z</time>
      </trkpt>
      <trkpt lat="46.34506" lon="6.81842">
        <ele>1515.18</ele>
        <time>2014-10-04T13:45:39Z</time>
      </trkpt>
      <trkpt lat="46.34506" lon="6.81828">
        <ele>1517.1</ele>
        <time>2014-10-04T13:45:51Z</time>
      </trkpt>
      <trkpt lat="46.34504" lon="6.81813">
        <ele>1519.98</ele>
        <time>2014-10-04T13:46:05Z</time>
      </trkpt>
      <trkpt lat="46.34504" lon="6.81803">
        <ele>1520.94</ele>
        <time>2014-10-04T13:46:13Z</time>
      </trkpt>
      <trkpt lat="46.34499" lon="6.81788">
        <ele>1522.87</ele>
        <time>2014-10-04T13:46:27Z</time>
      </trkpt>
      <trkpt lat="46.34498" lon="6.81774">
        <ele>1524.79</ele>
        <time>2014-10-04T13:46:39Z</time>
      </trkpt>
      <trkpt lat="46.34499" lon="6.8176">
        <ele>1527.19</ele>
        <time>2014-10-04T13:46:53Z</time>
      </trkpt>
      <trkpt lat="46.34497" lon="6.81744">
        <ele>1530.08</ele>
        <time>2014-10-04T13:47:08Z</time>
      </trkpt>
      <trkpt lat="46.34489" lon="6.81743">
        <ele>1532</ele>
        <time>2014-10-04T13:47:21Z</time>
      </trkpt>
      <trkpt lat="46.34482" lon="6.81751">
        <ele>1533.92</ele>
        <time>2014-10-04T13:47:33Z</time>
      </trkpt>
      <trkpt lat="46.34477" lon="6.81764">
        <ele>1535.84</ele>
        <time>2014-10-04T13:47:47Z</time>
      </trkpt>
      <trkpt lat="46.34475" lon="6.81768">
        <ele>1536.32</ele>
        <time>2014-10-04T13:47:51Z</time>
      </trkpt>
      <trkpt lat="46.34469" lon="6.81782">
        <ele>1538.25</ele>
        <time>2014-10-04T13:48:04Z</time>
      </trkpt>
      <trkpt lat="46.34462" lon="6.81787">
        <ele>1541.13</ele>
        <time>2014-10-04T13:48:19Z</time>
      </trkpt>
      <trkpt lat="46.34456" lon="6.81774">
        <ele>1543.53</ele>
        <time>2014-10-04T13:48:35Z</time>
      </trkpt>
      <trkpt lat="46.34457" lon="6.81763">
        <ele>1546.42</ele>
        <time>2014-10-04T13:48:48Z</time>
      </trkpt>
      <trkpt lat="46.34455" lon="6.81749">
        <ele>1548.34</ele>
        <time>2014-10-04T13:49:02Z</time>
      </trkpt>
      <trkpt lat="46.34454" lon="6.81734">
        <ele>1550.26</ele>
        <time>2014-10-04T13:49:16Z</time>
      </trkpt>
      <trkpt lat="46.34455" lon="6.81719">
        <ele>1553.15</ele>
        <time>2014-10-04T13:49:31Z</time>
      </trkpt>
      <trkpt lat="46.34459" lon="6.81707">
        <ele>1554.59</ele>
        <time>2014-10-04T13:49:45Z</time>
      </trkpt>
      <trkpt lat="46.34468" lon="6.81697">
        <ele>1556.99</ele>
        <time>2014-10-04T13:49:59Z</time>
      </trkpt>
      <trkpt lat="46.34473" lon="6.81687">
        <ele>1559.88</ele>
        <time>2014-10-04T13:50:12Z</time>
      </trkpt>
      <trkpt lat="46.34471" lon="6.81673">
        <ele>1561.8</ele>
        <time>2014-10-04T13:50:26Z</time>
      </trkpt>
      <trkpt lat="46.34469" lon="6.8166">
        <ele>1564.2</ele>
        <time>2014-10-04T13:50:40Z</time>
      </trkpt>
      <trkpt lat="46.34464" lon="6.81647">
        <ele>1567.09</ele>
        <time>2014-10-04T13:50:55Z</time>
      </trkpt>
      <trkpt lat="46.3446" lon="6.81652">
        <ele>1568.53</ele>
        <time>2014-10-04T13:51:06Z</time>
      </trkpt>
      <trkpt lat="46.34457" lon="6.81665">
        <ele>1571.41</ele>
        <time>2014-10-04T13:51:21Z</time>
      </trkpt>
      <trkpt lat="46.34454" lon="6.81663">
        <ele>1573.33</ele>
        <time>2014-10-04T13:51:35Z</time>
      </trkpt>
      <trkpt lat="46.34449" lon="6.81654">
        <ele>1575.26</ele>
        <time>2014-10-04T13:51:50Z</time>
      </trkpt>
      <trkpt lat="46.34446" lon="6.81641">
        <ele>1578.14</ele>
        <time>2014-10-04T13:52:06Z</time>
      </trkpt>
      <trkpt lat="46.34448" lon="6.81629">
        <ele>1580.54</ele>
        <time>2014-10-04T13:52:20Z</time>
      </trkpt>
      <trkpt lat="46.34452" lon="6.81617">
        <ele>1582.95</ele>
        <time>2014-10-04T13:52:35Z</time>
      </trkpt>
      <trkpt lat="46.34451" lon="6.81603">
        <ele>1584.87</ele>
        <time>2014-10-04T13:52:49Z</time>
      </trkpt>
      <trkpt lat="46.3445" lon="6.81589">
        <ele>1587.27</ele>
        <time>2014-10-04T13:53:03Z</time>
      </trkpt>
      <trkpt lat="46.34447" lon="6.81572">
        <ele>1590.16</ele>
        <time>2014-10-04T13:53:19Z</time>
      </trkpt>
      <trkpt lat="46.34445" lon="6.81557">
        <ele>1593.52</ele>
        <time>2014-10-04T13:53:35Z</time>
      </trkpt>
      <trkpt lat="46.34444" lon="6.81545">
        <ele>1594.48</ele>
        <time>2014-10-04T13:53:46Z</time>
      </trkpt>
      <trkpt lat="46.34443" lon="6.81539">
        <ele>1596.41</ele>
        <time>2014-10-04T13:53:50Z</time>
      </trkpt>
      <trkpt lat="46.34443" lon="6.8153">
        <ele>1596.41</ele>
        <time>2014-10-04T13:53:56Z</time>
      </trkpt>
      <trkpt lat="46.34441" lon="6.81516">
        <ele>1598.81</ele>
        <time>2014-10-04T13:54:09Z</time>
      </trkpt>
      <trkpt lat="46.34442" lon="6.81501">
        <ele>1601.21</ele>
        <time>2014-10-04T13:54:24Z</time>
      </trkpt>
      <trkpt lat="46.34443" lon="6.81485">
        <ele>1604.1</ele>
        <time>2014-10-04T13:54:38Z</time>
      </trkpt>
      <trkpt lat="46.34446" lon="6.8147">
        <ele>1606.98</ele>
        <time>2014-10-04T13:54:53Z</time>
      </trkpt>
      <trkpt lat="46.3445" lon="6.81457">
        <ele>1609.86</ele>
        <time>2014-10-04T13:55:05Z</time>
      </trkpt>
      <trkpt lat="46.34445" lon="6.81436">
        <ele>1610.83</ele>
        <time>2014-10-04T13:55:21Z</time>
      </trkpt>
      <trkpt lat="46.34444" lon="6.81419">
        <ele>1614.19</ele>
        <time>2014-10-04T13:55:37Z</time>
      </trkpt>
      <trkpt lat="46.34447" lon="6.81403">
        <ele>1617.07</ele>
        <time>2014-10-04T13:55:52Z</time>
      </trkpt>
      <trkpt lat="46.34444" lon="6.81387">
        <ele>1619.48</ele>
        <time>2014-10-04T13:56:06Z</time>
      </trkpt>
      <trkpt lat="46.34437" lon="6.81373">
        <ele>1621.4</ele>
        <time>2014-10-04T13:56:20Z</time>
      </trkpt>
      <trkpt lat="46.34434" lon="6.81365">
        <ele>1623.32</ele>
        <time>2014-10-04T13:56:28Z</time>
      </trkpt>
      <trkpt lat="46.34431" lon="6.8135">
        <ele>1625.73</ele>
        <time>2014-10-04T13:56:42Z</time>
      </trkpt>
      <trkpt lat="46.34429" lon="6.81335">
        <ele>1628.13</ele>
        <time>2014-10-04T13:56:55Z</time>
      </trkpt>
      <trkpt lat="46.3442" lon="6.81324">
        <ele>1630.53</ele>
        <time>2014-10-04T13:57:11Z</time>
      </trkpt>
      <trkpt lat="46.34413" lon="6.81317">
        <ele>1632.46</ele>
        <time>2014-10-04T13:57:24Z</time>
      </trkpt>
      <trkpt lat="46.34413" lon="6.81315">
        <ele>1632.94</ele>
        <time>2014-10-04T13:57:38Z</time>
      </trkpt>
      <trkpt lat="46.3441" lon="6.81314">
        <ele>1633.42</ele>
        <time>2014-10-04T13:57:52Z</time>
      </trkpt>
      <trkpt lat="46.34407" lon="6.81314">
        <ele>1633.42</ele>
        <time>2014-10-04T13:58:07Z</time>
      </trkpt>
      <trkpt lat="46.34407" lon="6.81312">
        <ele>1633.9</ele>
        <time>2014-10-04T13:58:23Z</time>
      </trkpt>
      <trkpt lat="46.34406" lon="6.8131">
        <ele>1633.42</ele>
        <time>2014-10-04T13:58:43Z</time>
      </trkpt>
      <trkpt lat="46.34408" lon="6.81311">
        <ele>1633.42</ele>
        <time>2014-10-04T13:58:58Z</time>
      </trkpt>
      <trkpt lat="46.34407" lon="6.81313">
        <ele>1633.42</ele>
        <time>2014-10-04T13:59:14Z</time>
      </trkpt>
      <trkpt lat="46.34406" lon="6.81313">
        <ele>1633.42</ele>
        <time>2014-10-04T13:59:46Z</time>
      </trkpt>
      <trkpt lat="46.34407" lon="6.81313">
        <ele>1633.9</ele>
        <time>2014-10-04T14:00:04Z</time>
      </trkpt>
      <trkpt lat="46.34407" lon="6.81311">
        <ele>1633.9</ele>
        <time>2014-10-04T14:00:39Z</time>
      </trkpt>
      <trkpt lat="46.34404" lon="6.8131">
        <ele>1633.9</ele>
        <time>2014-10-04T14:01:13Z</time>
      </trkpt>
      <trkpt lat="46.34406" lon="6.81309">
        <ele>1634.38</ele>
        <time>2014-10-04T14:01:48Z</time>
      </trkpt>
      <trkpt lat="46.34409" lon="6.8131">
        <ele>1634.38</ele>
        <time>2014-10-04T14:02:07Z</time>
      </trkpt>
      <trkpt lat="46.3441" lon="6.81311">
        <ele>1634.86</ele>
        <time>2014-10-04T14:02:22Z</time>
      </trkpt>
      <trkpt lat="46.34408" lon="6.81312">
        <ele>1634.86</ele>
        <time>2014-10-04T14:02:37Z</time>
      </trkpt>
      <trkpt lat="46.34404" lon="6.81316">
        <ele>1634.86</ele>
        <time>2014-10-04T14:02:54Z</time>
      </trkpt>
      <trkpt lat="46.34403" lon="6.8131">
        <ele>1634.38</ele>
        <time>2014-10-04T14:03:19Z</time>
      </trkpt>
      <trkpt lat="46.34405" lon="6.8131">
        <ele>1634.38</ele>
        <time>2014-10-04T14:03:47Z</time>
      </trkpt>
      <trkpt lat="46.34405" lon="6.81308">
        <ele>1634.38</ele>
        <time>2014-10-04T14:04:11Z</time>
      </trkpt>
      <trkpt lat="46.34409" lon="6.81313">
        <ele>1634.38</ele>
        <time>2014-10-04T14:04:38Z</time>
      </trkpt>
      <trkpt lat="46.34413" lon="6.81314">
        <ele>1633.42</ele>
        <time>2014-10-04T14:04:46Z</time>
      </trkpt>
      <trkpt lat="46.34415" lon="6.81314">
        <ele>1632.94</ele>
        <time>2014-10-04T14:04:59Z</time>
      </trkpt>
      <trkpt lat="46.34414" lon="6.81313">
        <ele>1632.94</ele>
        <time>2014-10-04T14:05:21Z</time>
      </trkpt>
      <trkpt lat="46.34413" lon="6.81311">
        <ele>1632.94</ele>
        <time>2014-10-04T14:05:46Z</time>
      </trkpt>
      <trkpt lat="46.34408" lon="6.81308">
        <ele>1634.38</ele>
        <time>2014-10-04T14:05:55Z</time>
      </trkpt>
      <trkpt lat="46.34404" lon="6.81292">
        <ele>1636.3</ele>
        <time>2014-10-04T14:06:10Z</time>
      </trkpt>
      <trkpt lat="46.34402" lon="6.81285">
        <ele>1637.26</ele>
        <time>2014-10-04T14:06:16Z</time>
      </trkpt>
      <trkpt lat="46.34401" lon="6.81269">
        <ele>1639.19</ele>
        <time>2014-10-04T14:06:29Z</time>
      </trkpt>
      <trkpt lat="46.344" lon="6.81249">
        <ele>1642.07</ele>
        <time>2014-10-04T14:06:46Z</time>
      </trkpt>
      <trkpt lat="46.34404" lon="6.81232">
        <ele>1643.99</ele>
        <time>2014-10-04T14:06:59Z</time>
      </trkpt>
      <trkpt lat="46.3441" lon="6.81216">
        <ele>1646.4</ele>
        <time>2014-10-04T14:07:13Z</time>
      </trkpt>
      <trkpt lat="46.34417" lon="6.81199">
        <ele>1648.8</ele>
        <time>2014-10-04T14:07:28Z</time>
      </trkpt>
      <trkpt lat="46.34422" lon="6.81184">
        <ele>1651.2</ele>
        <time>2014-10-04T14:07:42Z</time>
      </trkpt>
      <trkpt lat="46.34428" lon="6.81169">
        <ele>1654.09</ele>
        <time>2014-10-04T14:07:56Z</time>
      </trkpt>
      <trkpt lat="46.34438" lon="6.81153">
        <ele>1655.53</ele>
        <time>2014-10-04T14:08:11Z</time>
      </trkpt>
      <trkpt lat="46.34444" lon="6.81134">
        <ele>1657.45</ele>
        <time>2014-10-04T14:08:27Z</time>
      </trkpt>
      <trkpt lat="46.34449" lon="6.81113">
        <ele>1659.37</ele>
        <time>2014-10-04T14:08:44Z</time>
      </trkpt>
      <trkpt lat="46.34452" lon="6.8109">
        <ele>1662.26</ele>
        <time>2014-10-04T14:09:00Z</time>
      </trkpt>
      <trkpt lat="46.34451" lon="6.81071">
        <ele>1664.18</ele>
        <time>2014-10-04T14:09:14Z</time>
      </trkpt>
      <trkpt lat="46.34451" lon="6.81054">
        <ele>1665.14</ele>
        <time>2014-10-04T14:09:25Z</time>
      </trkpt>
      <trkpt lat="46.34452" lon="6.81026">
        <ele>1665.62</ele>
        <time>2014-10-04T14:09:40Z</time>
      </trkpt>
      <trkpt lat="46.34453" lon="6.81005">
        <ele>1667.06</ele>
        <time>2014-10-04T14:09:54Z</time>
      </trkpt>
      <trkpt lat="46.3446" lon="6.80985">
        <ele>1669.47</ele>
        <time>2014-10-04T14:10:09Z</time>
      </trkpt>
      <trkpt lat="46.34472" lon="6.80976">
        <ele>1671.87</ele>
        <time>2014-10-04T14:10:24Z</time>
      </trkpt>
      <trkpt lat="46.34486" lon="6.80956">
        <ele>1673.79</ele>
        <time>2014-10-04T14:10:41Z</time>
      </trkpt>
      <trkpt lat="46.34486" lon="6.80955">
        <ele>1673.79</ele>
        <time>2014-10-04T14:10:42Z</time>
      </trkpt>
      <trkpt lat="46.345" lon="6.80933">
        <ele>1675.72</ele>
        <time>2014-10-04T14:11:03Z</time>
      </trkpt>
      <trkpt lat="46.34505" lon="6.80918">
        <ele>1678.12</ele>
        <time>2014-10-04T14:11:16Z</time>
      </trkpt>
      <trkpt lat="46.34509" lon="6.80898">
        <ele>1681.48</ele>
        <time>2014-10-04T14:11:32Z</time>
      </trkpt>
      <trkpt lat="46.34513" lon="6.80884">
        <ele>1683.41</ele>
        <time>2014-10-04T14:11:44Z</time>
      </trkpt>
      <trkpt lat="46.34518" lon="6.80864">
        <ele>1686.29</ele>
        <time>2014-10-04T14:12:00Z</time>
      </trkpt>
      <trkpt lat="46.34523" lon="6.80853">
        <ele>1688.69</ele>
        <time>2014-10-04T14:12:11Z</time>
      </trkpt>
      <trkpt lat="46.34528" lon="6.80838">
        <ele>1690.62</ele>
        <time>2014-10-04T14:12:25Z</time>
      </trkpt>
      <trkpt lat="46.34532" lon="6.80825">
        <ele>1693.5</ele>
        <time>2014-10-04T14:12:38Z</time>
      </trkpt>
      <trkpt lat="46.34536" lon="6.80809">
        <ele>1695.9</ele>
        <time>2014-10-04T14:12:53Z</time>
      </trkpt>
      <trkpt lat="46.34539" lon="6.80794">
        <ele>1698.31</ele>
        <time>2014-10-04T14:13:05Z</time>
      </trkpt>
      <trkpt lat="46.34542" lon="6.80777">
        <ele>1700.23</ele>
        <time>2014-10-04T14:13:19Z</time>
      </trkpt>
      <trkpt lat="46.34544" lon="6.80756">
        <ele>1703.11</ele>
        <time>2014-10-04T14:13:34Z</time>
      </trkpt>
      <trkpt lat="46.34546" lon="6.80738">
        <ele>1706</ele>
        <time>2014-10-04T14:13:47Z</time>
      </trkpt>
      <trkpt lat="46.34546" lon="6.80721">
        <ele>1707.92</ele>
        <time>2014-10-04T14:13:59Z</time>
      </trkpt>
      <trkpt lat="46.34545" lon="6.80701">
        <ele>1710.8</ele>
        <time>2014-10-04T14:14:12Z</time>
      </trkpt>
      <trkpt lat="46.34553" lon="6.80688">
        <ele>1714.17</ele>
        <time>2014-10-04T14:14:27Z</time>
      </trkpt>
      <trkpt lat="46.34557" lon="6.80684">
        <ele>1715.13</ele>
        <time>2014-10-04T14:14:32Z</time>
      </trkpt>
      <trkpt lat="46.34569" lon="6.80673">
        <ele>1720.42</ele>
        <time>2014-10-04T14:14:46Z</time>
      </trkpt>
      <trkpt lat="46.34571" lon="6.80667">
        <ele>1718.49</ele>
        <time>2014-10-04T14:14:51Z</time>
      </trkpt>
      <trkpt lat="46.34573" lon="6.80657">
        <ele>1719.94</ele>
        <time>2014-10-04T14:14:59Z</time>
      </trkpt>
      <trkpt lat="46.34574" lon="6.80634">
        <ele>1723.3</ele>
        <time>2014-10-04T14:15:16Z</time>
      </trkpt>
      <trkpt lat="46.34573" lon="6.80617">
        <ele>1724.74</ele>
        <time>2014-10-04T14:15:28Z</time>
      </trkpt>
      <trkpt lat="46.34571" lon="6.8059">
        <ele>1728.59</ele>
        <time>2014-10-04T14:15:47Z</time>
      </trkpt>
      <trkpt lat="46.34576" lon="6.80561">
        <ele>1730.99</ele>
        <time>2014-10-04T14:16:06Z</time>
      </trkpt>
      <trkpt lat="46.34587" lon="6.80539">
        <ele>1732.91</ele>
        <time>2014-10-04T14:16:23Z</time>
      </trkpt>
      <trkpt lat="46.34594" lon="6.80516">
        <ele>1734.84</ele>
        <time>2014-10-04T14:16:39Z</time>
      </trkpt>
      <trkpt lat="46.34599" lon="6.80493">
        <ele>1736.76</ele>
        <time>2014-10-04T14:16:54Z</time>
      </trkpt>
      <trkpt lat="46.34601" lon="6.80484">
        <ele>1737.24</ele>
        <time>2014-10-04T14:17:00Z</time>
      </trkpt>
      <trkpt lat="46.34604" lon="6.8046">
        <ele>1739.64</ele>
        <time>2014-10-04T14:17:15Z</time>
      </trkpt>
      <trkpt lat="46.34606" lon="6.80431">
        <ele>1742.05</ele>
        <time>2014-10-04T14:17:33Z</time>
      </trkpt>
      <trkpt lat="46.34607" lon="6.80427">
        <ele>1742.53</ele>
        <time>2014-10-04T14:17:36Z</time>
      </trkpt>
      <trkpt lat="46.34614" lon="6.80407">
        <ele>1744.93</ele>
        <time>2014-10-04T14:17:53Z</time>
      </trkpt>
      <trkpt lat="46.34619" lon="6.80398">
        <ele>1746.37</ele>
        <time>2014-10-04T14:18:08Z</time>
      </trkpt>
      <trkpt lat="46.34621" lon="6.8039">
        <ele>1747.81</ele>
        <time>2014-10-04T14:18:18Z</time>
      </trkpt>
      <trkpt lat="46.3462" lon="6.80389">
        <ele>1747.81</ele>
        <time>2014-10-04T14:18:19Z</time>
      </trkpt>
      <trkpt lat="46.34619" lon="6.80372">
        <ele>1750.7</ele>
        <time>2014-10-04T14:18:33Z</time>
      </trkpt>
      <trkpt lat="46.34617" lon="6.80347">
        <ele>1753.1</ele>
        <time>2014-10-04T14:18:51Z</time>
      </trkpt>
      <trkpt lat="46.34612" lon="6.80325">
        <ele>1754.06</ele>
        <time>2014-10-04T14:19:07Z</time>
      </trkpt>
      <trkpt lat="46.34607" lon="6.8032">
        <ele>1755.02</ele>
        <time>2014-10-04T14:19:13Z</time>
      </trkpt>
      <trkpt lat="46.34593" lon="6.80317">
        <ele>1757.91</ele>
        <time>2014-10-04T14:19:28Z</time>
      </trkpt>
      <trkpt lat="46.34589" lon="6.803">
        <ele>1760.31</ele>
        <time>2014-10-04T14:19:41Z</time>
      </trkpt>
      <trkpt lat="46.34588" lon="6.80288">
        <ele>1762.23</ele>
        <time>2014-10-04T14:19:50Z</time>
      </trkpt>
      <trkpt lat="46.34584" lon="6.80278">
        <ele>1763.2</ele>
        <time>2014-10-04T14:19:58Z</time>
      </trkpt>
      <trkpt lat="46.3458" lon="6.80271">
        <ele>1764.16</ele>
        <time>2014-10-04T14:20:03Z</time>
      </trkpt>
      <trkpt lat="46.34574" lon="6.80251">
        <ele>1766.08</ele>
        <time>2014-10-04T14:20:18Z</time>
      </trkpt>
      <trkpt lat="46.3457" lon="6.80231">
        <ele>1768</ele>
        <time>2014-10-04T14:20:33Z</time>
      </trkpt>
      <trkpt lat="46.34563" lon="6.80213">
        <ele>1770.89</ele>
        <time>2014-10-04T14:20:48Z</time>
      </trkpt>
      <trkpt lat="46.34561" lon="6.80206">
        <ele>1771.37</ele>
        <time>2014-10-04T14:20:53Z</time>
      </trkpt>
      <trkpt lat="46.34553" lon="6.80186">
        <ele>1773.77</ele>
        <time>2014-10-04T14:21:09Z</time>
      </trkpt>
      <trkpt lat="46.34549" lon="6.80167">
        <ele>1776.17</ele>
        <time>2014-10-04T14:21:24Z</time>
      </trkpt>
      <trkpt lat="46.34543" lon="6.80155">
        <ele>1778.58</ele>
        <time>2014-10-04T14:21:35Z</time>
      </trkpt>
      <trkpt lat="46.34536" lon="6.80149">
        <ele>1780.02</ele>
        <time>2014-10-04T14:21:43Z</time>
      </trkpt>
      <trkpt lat="46.34526" lon="6.80138">
        <ele>1781.94</ele>
        <time>2014-10-04T14:21:58Z</time>
      </trkpt>
      <trkpt lat="46.34516" lon="6.80122">
        <ele>1785.31</ele>
        <time>2014-10-04T14:22:14Z</time>
      </trkpt>
      <trkpt lat="46.34515" lon="6.80122">
        <ele>1785.31</ele>
        <time>2014-10-04T14:22:15Z</time>
      </trkpt>
      <trkpt lat="46.34498" lon="6.8012">
        <ele>1785.79</ele>
        <time>2014-10-04T14:22:31Z</time>
      </trkpt>
      <trkpt lat="46.34483" lon="6.80106">
        <ele>1786.75</ele>
        <time>2014-10-04T14:22:47Z</time>
      </trkpt>
      <trkpt lat="46.34465" lon="6.80095">
        <ele>1787.71</ele>
        <time>2014-10-04T14:23:03Z</time>
      </trkpt>
      <trkpt lat="46.34464" lon="6.80094">
        <ele>1787.71</ele>
        <time>2014-10-04T14:23:04Z</time>
      </trkpt>
      <trkpt lat="46.34454" lon="6.80071">
        <ele>1788.19</ele>
        <time>2014-10-04T14:23:20Z</time>
      </trkpt>
      <trkpt lat="46.34449" lon="6.80051">
        <ele>1789.15</ele>
        <time>2014-10-04T14:23:33Z</time>
      </trkpt>
      <trkpt lat="46.34448" lon="6.80047">
        <ele>1789.63</ele>
        <time>2014-10-04T14:23:36Z</time>
      </trkpt>
      <trkpt lat="46.34445" lon="6.80022">
        <ele>1791.07</ele>
        <time>2014-10-04T14:23:51Z</time>
      </trkpt>
      <trkpt lat="46.34437" lon="6.79997">
        <ele>1791.55</ele>
        <time>2014-10-04T14:24:07Z</time>
      </trkpt>
      <trkpt lat="46.34431" lon="6.79969">
        <ele>1793.48</ele>
        <time>2014-10-04T14:24:25Z</time>
      </trkpt>
      <trkpt lat="46.34424" lon="6.79943">
        <ele>1794.44</ele>
        <time>2014-10-04T14:24:42Z</time>
      </trkpt>
      <trkpt lat="46.34412" lon="6.79926">
        <ele>1795.4</ele>
        <time>2014-10-04T14:24:58Z</time>
      </trkpt>
      <trkpt lat="46.34411" lon="6.79924">
        <ele>1795.88</ele>
        <time>2014-10-04T14:25:00Z</time>
      </trkpt>
      <trkpt lat="46.34402" lon="6.79886">
        <ele>1796.84</ele>
        <time>2014-10-04T14:25:22Z</time>
      </trkpt>
      <trkpt lat="46.34394" lon="6.79858">
        <ele>1798.76</ele>
        <time>2014-10-04T14:25:40Z</time>
      </trkpt>
      <trkpt lat="46.34383" lon="6.79833">
        <ele>1800.69</ele>
        <time>2014-10-04T14:25:58Z</time>
      </trkpt>
      <trkpt lat="46.34371" lon="6.79813">
        <ele>1802.61</ele>
        <time>2014-10-04T14:26:14Z</time>
      </trkpt>
      <trkpt lat="46.34365" lon="6.79807">
        <ele>1802.61</ele>
        <time>2014-10-04T14:26:20Z</time>
      </trkpt>
      <trkpt lat="46.34358" lon="6.79776">
        <ele>1803.09</ele>
        <time>2014-10-04T14:26:39Z</time>
      </trkpt>
      <trkpt lat="46.34354" lon="6.79749">
        <ele>1805.49</ele>
        <time>2014-10-04T14:26:55Z</time>
      </trkpt>
      <trkpt lat="46.34337" lon="6.79725">
        <ele>1806.94</ele>
        <time>2014-10-04T14:27:16Z</time>
      </trkpt>
      <trkpt lat="46.34319" lon="6.79709">
        <ele>1808.38</ele>
        <time>2014-10-04T14:27:34Z</time>
      </trkpt>
      <trkpt lat="46.34314" lon="6.79702">
        <ele>1808.86</ele>
        <time>2014-10-04T14:27:40Z</time>
      </trkpt>
      <trkpt lat="46.34311" lon="6.79689">
        <ele>1808.86</ele>
        <time>2014-10-04T14:27:47Z</time>
      </trkpt>
      <trkpt lat="46.34311" lon="6.79675">
        <ele>1809.82</ele>
        <time>2014-10-04T14:27:55Z</time>
      </trkpt>
      <trkpt lat="46.34312" lon="6.79657">
        <ele>1811.74</ele>
        <time>2014-10-04T14:28:06Z</time>
      </trkpt>
      <trkpt lat="46.34316" lon="6.79627">
        <ele>1812.22</ele>
        <time>2014-10-04T14:28:23Z</time>
      </trkpt>
      <trkpt lat="46.34329" lon="6.79606">
        <ele>1813.66</ele>
        <time>2014-10-04T14:28:39Z</time>
      </trkpt>
      <trkpt lat="46.34337" lon="6.79583">
        <ele>1814.15</ele>
        <time>2014-10-04T14:28:55Z</time>
      </trkpt>
      <trkpt lat="46.34338" lon="6.7958">
        <ele>1814.15</ele>
        <time>2014-10-04T14:28:57Z</time>
      </trkpt>
      <trkpt lat="46.34346" lon="6.79555">
        <ele>1816.07</ele>
        <time>2014-10-04T14:29:15Z</time>
      </trkpt>
      <trkpt lat="46.34348" lon="6.79533">
        <ele>1817.99</ele>
        <time>2014-10-04T14:29:31Z</time>
      </trkpt>
      <trkpt lat="46.34351" lon="6.79517">
        <ele>1817.99</ele>
        <time>2014-10-04T14:29:45Z</time>
      </trkpt>
      <trkpt lat="46.3436" lon="6.795">
        <ele>1818.47</ele>
        <time>2014-10-04T14:30:00Z</time>
      </trkpt>
      <trkpt lat="46.34364" lon="6.79488">
        <ele>1818.47</ele>
        <time>2014-10-04T14:30:14Z</time>
      </trkpt>
      <trkpt lat="46.34368" lon="6.7948">
        <ele>1819.91</ele>
        <time>2014-10-04T14:30:23Z</time>
      </trkpt>
      <trkpt lat="46.34371" lon="6.79457">
        <ele>1820.87</ele>
        <time>2014-10-04T14:30:39Z</time>
      </trkpt>
      <trkpt lat="46.34372" lon="6.79444">
        <ele>1821.35</ele>
        <time>2014-10-04T14:30:47Z</time>
      </trkpt>
      <trkpt lat="46.34373" lon="6.79438">
        <ele>1821.35</ele>
        <time>2014-10-04T14:30:51Z</time>
      </trkpt>
      <trkpt lat="46.34381" lon="6.79407">
        <ele>1824.24</ele>
        <time>2014-10-04T14:31:13Z</time>
      </trkpt>
      <trkpt lat="46.34387" lon="6.79384">
        <ele>1826.16</ele>
        <time>2014-10-04T14:31:31Z</time>
      </trkpt>
      <trkpt lat="46.34388" lon="6.79377">
        <ele>1826.64</ele>
        <time>2014-10-04T14:31:37Z</time>
      </trkpt>
      <trkpt lat="46.34393" lon="6.79351">
        <ele>1828.08</ele>
        <time>2014-10-04T14:31:54Z</time>
      </trkpt>
      <trkpt lat="46.34396" lon="6.79336">
        <ele>1828.56</ele>
        <time>2014-10-04T14:32:04Z</time>
      </trkpt>
      <trkpt lat="46.34406" lon="6.79318">
        <ele>1829.05</ele>
        <time>2014-10-04T14:32:18Z</time>
      </trkpt>
      <trkpt lat="46.3441" lon="6.79315">
        <ele>1829.53</ele>
        <time>2014-10-04T14:32:32Z</time>
      </trkpt>
      <trkpt lat="46.3441" lon="6.79314">
        <ele>1829.53</ele>
        <time>2014-10-04T14:32:33Z</time>
      </trkpt>
      <trkpt lat="46.34419" lon="6.79289">
        <ele>1829.53</ele>
        <time>2014-10-04T14:32:50Z</time>
      </trkpt>
      <trkpt lat="46.34424" lon="6.79266">
        <ele>1830.01</ele>
        <time>2014-10-04T14:33:05Z</time>
      </trkpt>
      <trkpt lat="46.34432" lon="6.79267">
        <ele>1830.97</ele>
        <time>2014-10-04T14:33:14Z</time>
      </trkpt>
      <trkpt lat="46.34435" lon="6.79277">
        <ele>1831.45</ele>
        <time>2014-10-04T14:33:21Z</time>
      </trkpt>
      <trkpt lat="46.3444" lon="6.79292">
        <ele>1832.41</ele>
        <time>2014-10-04T14:33:32Z</time>
      </trkpt>
      <trkpt lat="46.34443" lon="6.79292">
        <ele>1832.41</ele>
        <time>2014-10-04T14:33:36Z</time>
      </trkpt>
      <trkpt lat="46.34456" lon="6.79284">
        <ele>1833.37</ele>
        <time>2014-10-04T14:33:49Z</time>
      </trkpt>
      <trkpt lat="46.34476" lon="6.79286">
        <ele>1834.33</ele>
        <time>2014-10-04T14:34:07Z</time>
      </trkpt>
      <trkpt lat="46.34492" lon="6.79276">
        <ele>1834.33</ele>
        <time>2014-10-04T14:34:23Z</time>
      </trkpt>
      <trkpt lat="46.34492" lon="6.79277">
        <ele>1834.33</ele>
        <time>2014-10-04T14:34:24Z</time>
      </trkpt>
      <trkpt lat="46.34509" lon="6.79281">
        <ele>1834.33</ele>
        <time>2014-10-04T14:34:40Z</time>
      </trkpt>
      <trkpt lat="46.34513" lon="6.79281">
        <ele>1831.93</ele>
        <time>2014-10-04T14:34:43Z</time>
      </trkpt>
      <trkpt lat="46.34524" lon="6.79265">
        <ele>1833.37</ele>
        <time>2014-10-04T14:34:59Z</time>
      </trkpt>
      <trkpt lat="46.3453" lon="6.79262">
        <ele>1833.37</ele>
        <time>2014-10-04T14:35:08Z</time>
      </trkpt>
      <trkpt lat="46.34532" lon="6.79263">
        <ele>1833.37</ele>
        <time>2014-10-04T14:35:11Z</time>
      </trkpt>
      <trkpt lat="46.34542" lon="6.79253">
        <ele>1834.81</ele>
        <time>2014-10-04T14:35:24Z</time>
      </trkpt>
      <trkpt lat="46.34544" lon="6.79253">
        <ele>1833.85</ele>
        <time>2014-10-04T14:35:39Z</time>
      </trkpt>
      <trkpt lat="46.34543" lon="6.79253">
        <ele>1833.85</ele>
        <time>2014-10-04T14:35:49Z</time>
      </trkpt>
      <trkpt lat="46.34544" lon="6.79253">
        <ele>1833.37</ele>
        <time>2014-10-04T14:36:12Z</time>
      </trkpt>
      <trkpt lat="46.34544" lon="6.79253">
        <ele>1833.85</ele>
        <time>2014-10-04T14:37:02Z</time>
      </trkpt>
      <trkpt lat="46.34541" lon="6.79251">
        <ele>1833.85</ele>
        <time>2014-10-04T14:37:44Z</time>
      </trkpt>
      <trkpt lat="46.34542" lon="6.79253">
        <ele>1833.85</ele>
        <time>2014-10-04T14:38:18Z</time>
      </trkpt>
      <trkpt lat="46.34542" lon="6.79253">
        <ele>1834.33</ele>
        <time>2014-10-04T14:38:55Z</time>
      </trkpt>
      <trkpt lat="46.34543" lon="6.79253">
        <ele>1833.85</ele>
        <time>2014-10-04T14:39:38Z</time>
      </trkpt>
      <trkpt lat="46.34541" lon="6.79253">
        <ele>1833.85</ele>
        <time>2014-10-04T14:40:17Z</time>
      </trkpt>
      <trkpt lat="46.34543" lon="6.79254">
        <ele>1834.33</ele>
        <time>2014-10-04T14:40:52Z</time>
      </trkpt>
      <trkpt lat="46.34542" lon="6.79255">
        <ele>1834.33</ele>
        <time>2014-10-04T14:41:26Z</time>
      </trkpt>
      <trkpt lat="46.34543" lon="6.79252">
        <ele>1834.33</ele>
        <time>2014-10-04T14:42:06Z</time>
      </trkpt>
      <trkpt lat="46.34543" lon="6.79252">
        <ele>1835.77</ele>
        <time>2014-10-04T14:42:20Z</time>
      </trkpt>
      <trkpt lat="46.34545" lon="6.79251">
        <ele>1835.77</ele>
        <time>2014-10-04T14:42:35Z</time>
      </trkpt>
      <trkpt lat="46.34543" lon="6.79253">
        <ele>1835.77</ele>
        <time>2014-10-04T14:42:50Z</time>
      </trkpt>
      <trkpt lat="46.34543" lon="6.79253">
        <ele>1835.77</ele>
        <time>2014-10-04T14:43:18Z</time>
      </trkpt>
      <trkpt lat="46.34543" lon="6.79252">
        <ele>1836.26</ele>
        <time>2014-10-04T14:43:43Z</time>
      </trkpt>
      <trkpt lat="46.34543" lon="6.79252">
        <ele>1839.62</ele>
        <time>2014-10-04T14:43:46Z</time>
      </trkpt>
      <trkpt lat="46.34542" lon="6.79251">
        <ele>1836.26</ele>
        <time>2014-10-04T14:43:47Z</time>
      </trkpt>
      <trkpt lat="46.34542" lon="6.79256">
        <ele>1836.26</ele>
        <time>2014-10-04T14:44:10Z</time>
      </trkpt>
      <trkpt lat="46.34545" lon="6.79248">
        <ele>1836.26</ele>
        <time>2014-10-04T14:44:23Z</time>
      </trkpt>
      <trkpt lat="46.34553" lon="6.79236">
        <ele>1836.26</ele>
        <time>2014-10-04T14:44:33Z</time>
      </trkpt>
      <trkpt lat="46.34564" lon="6.7922">
        <ele>1836.26</ele>
        <time>2014-10-04T14:44:47Z</time>
      </trkpt>
      <trkpt lat="46.34565" lon="6.79216">
        <ele>1836.26</ele>
        <time>2014-10-04T14:44:50Z</time>
      </trkpt>
      <trkpt lat="46.34563" lon="6.79189">
        <ele>1834.33</ele>
        <time>2014-10-04T14:45:06Z</time>
      </trkpt>
      <trkpt lat="46.34563" lon="6.79188">
        <ele>1834.33</ele>
        <time>2014-10-04T14:45:07Z</time>
      </trkpt>
      <trkpt lat="46.34567" lon="6.79181">
        <ele>1834.33</ele>
        <time>2014-10-04T14:45:12Z</time>
      </trkpt>
      <trkpt lat="46.34573" lon="6.79181">
        <ele>1834.33</ele>
        <time>2014-10-04T14:45:18Z</time>
      </trkpt>
      <trkpt lat="46.34578" lon="6.79178">
        <ele>1834.33</ele>
        <time>2014-10-04T14:45:23Z</time>
      </trkpt>
      <trkpt lat="46.3458" lon="6.79172">
        <ele>1835.77</ele>
        <time>2014-10-04T14:45:28Z</time>
      </trkpt>
      <trkpt lat="46.34581" lon="6.79166">
        <ele>1836.26</ele>
        <time>2014-10-04T14:45:32Z</time>
      </trkpt>
      <trkpt lat="46.34582" lon="6.79162">
        <ele>1836.74</ele>
        <time>2014-10-04T14:45:35Z</time>
      </trkpt>
      <trkpt lat="46.34585" lon="6.79137">
        <ele>1837.7</ele>
        <time>2014-10-04T14:45:50Z</time>
      </trkpt>
      <trkpt lat="46.34585" lon="6.79112">
        <ele>1838.18</ele>
        <time>2014-10-04T14:46:04Z</time>
      </trkpt>
      <trkpt lat="46.34585" lon="6.79094">
        <ele>1838.66</ele>
        <time>2014-10-04T14:46:16Z</time>
      </trkpt>
      <trkpt lat="46.34586" lon="6.7909">
        <ele>1838.66</ele>
        <time>2014-10-04T14:46:19Z</time>
      </trkpt>
      <trkpt lat="46.34596" lon="6.79078">
        <ele>1839.14</ele>
        <time>2014-10-04T14:46:30Z</time>
      </trkpt>
      <trkpt lat="46.34611" lon="6.79071">
        <ele>1838.18</ele>
        <time>2014-10-04T14:46:43Z</time>
      </trkpt>
      <trkpt lat="46.34631" lon="6.79065">
        <ele>1836.74</ele>
        <time>2014-10-04T14:46:58Z</time>
      </trkpt>
      <trkpt lat="46.34636" lon="6.79066">
        <ele>1836.74</ele>
        <time>2014-10-04T14:47:03Z</time>
      </trkpt>
      <trkpt lat="46.34643" lon="6.79064">
        <ele>1835.29</ele>
        <time>2014-10-04T14:47:09Z</time>
      </trkpt>
      <trkpt lat="46.34647" lon="6.79058">
        <ele>1834.81</ele>
        <time>2014-10-04T14:47:15Z</time>
      </trkpt>
      <trkpt lat="46.34648" lon="6.79048">
        <ele>1833.85</ele>
        <time>2014-10-04T14:47:20Z</time>
      </trkpt>
      <trkpt lat="46.34655" lon="6.79037">
        <ele>1832.89</ele>
        <time>2014-10-04T14:47:29Z</time>
      </trkpt>
      <trkpt lat="46.34666" lon="6.79023">
        <ele>1831.45</ele>
        <time>2014-10-04T14:47:40Z</time>
      </trkpt>
      <trkpt lat="46.34675" lon="6.79007">
        <ele>1830.01</ele>
        <time>2014-10-04T14:47:52Z</time>
      </trkpt>
      <trkpt lat="46.34685" lon="6.78995">
        <ele>1828.08</ele>
        <time>2014-10-04T14:48:02Z</time>
      </trkpt>
      <trkpt lat="46.3469" lon="6.78988">
        <ele>1827.6</ele>
        <time>2014-10-04T14:48:08Z</time>
      </trkpt>
      <trkpt lat="46.34699" lon="6.78975">
        <ele>1828.08</ele>
        <time>2014-10-04T14:48:20Z</time>
      </trkpt>
      <trkpt lat="46.34712" lon="6.78965">
        <ele>1828.08</ele>
        <time>2014-10-04T14:48:34Z</time>
      </trkpt>
      <trkpt lat="46.34717" lon="6.78963">
        <ele>1827.6</ele>
        <time>2014-10-04T14:48:40Z</time>
      </trkpt>
      <trkpt lat="46.34729" lon="6.78971">
        <ele>1829.05</ele>
        <time>2014-10-04T14:48:51Z</time>
      </trkpt>
      <trkpt lat="46.34736" lon="6.78961">
        <ele>1832.41</ele>
        <time>2014-10-04T14:49:05Z</time>
      </trkpt>
      <trkpt lat="46.34739" lon="6.78951">
        <ele>1833.37</ele>
        <time>2014-10-04T14:49:15Z</time>
      </trkpt>
      <trkpt lat="46.34742" lon="6.78947">
        <ele>1833.85</ele>
        <time>2014-10-04T14:49:19Z</time>
      </trkpt>
      <trkpt lat="46.34748" lon="6.78944">
        <ele>1833.37</ele>
        <time>2014-10-04T14:49:26Z</time>
      </trkpt>
      <trkpt lat="46.34755" lon="6.78937">
        <ele>1833.37</ele>
        <time>2014-10-04T14:49:33Z</time>
      </trkpt>
      <trkpt lat="46.34757" lon="6.78935">
        <ele>1833.37</ele>
        <time>2014-10-04T14:49:35Z</time>
      </trkpt>
      <trkpt lat="46.34766" lon="6.78926">
        <ele>1831.93</ele>
        <time>2014-10-04T14:49:44Z</time>
      </trkpt>
      <trkpt lat="46.3477" lon="6.78921">
        <ele>1831.93</ele>
        <time>2014-10-04T14:49:50Z</time>
      </trkpt>
      <trkpt lat="46.34773" lon="6.78915">
        <ele>1831.45</ele>
        <time>2014-10-04T14:49:54Z</time>
      </trkpt>
      <trkpt lat="46.34776" lon="6.7891">
        <ele>1831.45</ele>
        <time>2014-10-04T14:49:59Z</time>
      </trkpt>
      <trkpt lat="46.34792" lon="6.78902">
        <ele>1831.45</ele>
        <time>2014-10-04T14:50:11Z</time>
      </trkpt>
      <trkpt lat="46.34797" lon="6.78898">
        <ele>1831.45</ele>
        <time>2014-10-04T14:50:16Z</time>
      </trkpt>
      <trkpt lat="46.34802" lon="6.78892">
        <ele>1830.97</ele>
        <time>2014-10-04T14:50:21Z</time>
      </trkpt>
      <trkpt lat="46.34813" lon="6.78878">
        <ele>1832.41</ele>
        <time>2014-10-04T14:50:33Z</time>
      </trkpt>
      <trkpt lat="46.34822" lon="6.78874">
        <ele>1835.29</ele>
        <time>2014-10-04T14:50:46Z</time>
      </trkpt>
      <trkpt lat="46.34829" lon="6.78867">
        <ele>1838.66</ele>
        <time>2014-10-04T14:50:58Z</time>
      </trkpt>
      <trkpt lat="46.34836" lon="6.78866">
        <ele>1840.1</ele>
        <time>2014-10-04T14:51:11Z</time>
      </trkpt>
      <trkpt lat="46.34843" lon="6.78856">
        <ele>1842.02</ele>
        <time>2014-10-04T14:51:25Z</time>
      </trkpt>
      <trkpt lat="46.34853" lon="6.78846">
        <ele>1842.5</ele>
        <time>2014-10-04T14:51:40Z</time>
      </trkpt>
      <trkpt lat="46.34859" lon="6.78846">
        <ele>1842.5</ele>
        <time>2014-10-04T14:51:54Z</time>
      </trkpt>
      <trkpt lat="46.34859" lon="6.78846">
        <ele>1838.66</ele>
        <time>2014-10-04T14:51:55Z</time>
      </trkpt>
      <trkpt lat="46.3486" lon="6.78846">
        <ele>1842.5</ele>
        <time>2014-10-04T14:51:56Z</time>
      </trkpt>
      <trkpt lat="46.34863" lon="6.78848">
        <ele>1841.06</ele>
        <time>2014-10-04T14:52:08Z</time>
      </trkpt>
      <trkpt lat="46.34876" lon="6.78848">
        <ele>1839.14</ele>
        <time>2014-10-04T14:52:25Z</time>
      </trkpt>
      <trkpt lat="46.34874" lon="6.78841">
        <ele>1835.77</ele>
        <time>2014-10-04T14:52:33Z</time>
      </trkpt>
      <trkpt lat="46.34872" lon="6.78837">
        <ele>1834.33</ele>
        <time>2014-10-04T14:52:37Z</time>
      </trkpt>
      <trkpt lat="46.34872" lon="6.78827">
        <ele>1830.97</ele>
        <time>2014-10-04T14:52:47Z</time>
      </trkpt>
      <trkpt lat="46.34873" lon="6.78815">
        <ele>1827.6</ele>
        <time>2014-10-04T14:52:58Z</time>
      </trkpt>
      <trkpt lat="46.34876" lon="6.78806">
        <ele>1824.24</ele>
        <time>2014-10-04T14:53:07Z</time>
      </trkpt>
      <trkpt lat="46.34883" lon="6.78798">
        <ele>1820.87</ele>
        <time>2014-10-04T14:53:20Z</time>
      </trkpt>
      <trkpt lat="46.34884" lon="6.78797">
        <ele>1820.87</ele>
        <time>2014-10-04T14:53:21Z</time>
      </trkpt>
      <trkpt lat="46.34887" lon="6.78784">
        <ele>1817.03</ele>
        <time>2014-10-04T14:53:34Z</time>
      </trkpt>
      <trkpt lat="46.3489" lon="6.78776">
        <ele>1816.07</ele>
        <time>2014-10-04T14:53:48Z</time>
      </trkpt>
      <trkpt lat="46.3489" lon="6.78776">
        <ele>1815.59</ele>
        <time>2014-10-04T14:54:09Z</time>
      </trkpt>
      <trkpt lat="46.34886" lon="6.78765">
        <ele>1812.22</ele>
        <time>2014-10-04T14:54:20Z</time>
      </trkpt>
      <trkpt lat="46.34886" lon="6.78754">
        <ele>1809.34</ele>
        <time>2014-10-04T14:54:33Z</time>
      </trkpt>
      <trkpt lat="46.34889" lon="6.78748">
        <ele>1805.97</ele>
        <time>2014-10-04T14:54:43Z</time>
      </trkpt>
      <trkpt lat="46.34892" lon="6.78741">
        <ele>1803.09</ele>
        <time>2014-10-04T14:54:54Z</time>
      </trkpt>
      <trkpt lat="46.34889" lon="6.78736">
        <ele>1801.65</ele>
        <time>2014-10-04T14:55:04Z</time>
      </trkpt>
      <trkpt lat="46.34889" lon="6.78721">
        <ele>1798.28</ele>
        <time>2014-10-04T14:55:18Z</time>
      </trkpt>
      <trkpt lat="46.34892" lon="6.78705">
        <ele>1795.4</ele>
        <time>2014-10-04T14:55:33Z</time>
      </trkpt>
      <trkpt lat="46.34896" lon="6.78695">
        <ele>1794.44</ele>
        <time>2014-10-04T14:55:41Z</time>
      </trkpt>
      <trkpt lat="46.349" lon="6.7868">
        <ele>1792.03</ele>
        <time>2014-10-04T14:55:56Z</time>
      </trkpt>
      <trkpt lat="46.34903" lon="6.78672">
        <ele>1788.67</ele>
        <time>2014-10-04T14:56:06Z</time>
      </trkpt>
      <trkpt lat="46.34904" lon="6.7867">
        <ele>1787.23</ele>
        <time>2014-10-04T14:56:11Z</time>
      </trkpt>
      <trkpt lat="46.34906" lon="6.78659">
        <ele>1784.34</ele>
        <time>2014-10-04T14:56:22Z</time>
      </trkpt>
      <trkpt lat="46.34911" lon="6.78648">
        <ele>1780.98</ele>
        <time>2014-10-04T14:56:34Z</time>
      </trkpt>
      <trkpt lat="46.34916" lon="6.78638">
        <ele>1780.02</ele>
        <time>2014-10-04T14:56:45Z</time>
      </trkpt>
      <trkpt lat="46.3492" lon="6.7863">
        <ele>1780.98</ele>
        <time>2014-10-04T14:56:54Z</time>
      </trkpt>
      <trkpt lat="46.34924" lon="6.78621">
        <ele>1780.5</ele>
        <time>2014-10-04T14:57:04Z</time>
      </trkpt>
      <trkpt lat="46.34926" lon="6.78612">
        <ele>1780.5</ele>
        <time>2014-10-04T14:57:13Z</time>
      </trkpt>
      <trkpt lat="46.34934" lon="6.78601">
        <ele>1780.5</ele>
        <time>2014-10-04T14:57:25Z</time>
      </trkpt>
      <trkpt lat="46.34938" lon="6.78594">
        <ele>1778.1</ele>
        <time>2014-10-04T14:57:37Z</time>
      </trkpt>
      <trkpt lat="46.34942" lon="6.78577">
        <ele>1778.1</ele>
        <time>2014-10-04T14:57:51Z</time>
      </trkpt>
      <trkpt lat="46.34948" lon="6.7856">
        <ele>1775.69</ele>
        <time>2014-10-04T14:58:05Z</time>
      </trkpt>
      <trkpt lat="46.34951" lon="6.78551">
        <ele>1775.21</ele>
        <time>2014-10-04T14:58:13Z</time>
      </trkpt>
      <trkpt lat="46.34963" lon="6.78541">
        <ele>1775.21</ele>
        <time>2014-10-04T14:58:28Z</time>
      </trkpt>
      <trkpt lat="46.34977" lon="6.7853">
        <ele>1774.73</ele>
        <time>2014-10-04T14:58:43Z</time>
      </trkpt>
      <trkpt lat="46.34988" lon="6.78522">
        <ele>1773.77</ele>
        <time>2014-10-04T14:58:54Z</time>
      </trkpt>
      <trkpt lat="46.34999" lon="6.78515">
        <ele>1771.85</ele>
        <time>2014-10-04T14:59:07Z</time>
      </trkpt>
      <trkpt lat="46.35004" lon="6.78504">
        <ele>1771.85</ele>
        <time>2014-10-04T14:59:22Z</time>
      </trkpt>
      <trkpt lat="46.35005" lon="6.78502">
        <ele>1773.29</ele>
        <time>2014-10-04T14:59:25Z</time>
      </trkpt>
      <trkpt lat="46.35014" lon="6.78494">
        <ele>1774.25</ele>
        <time>2014-10-04T14:59:39Z</time>
      </trkpt>
      <trkpt lat="46.35019" lon="6.78483">
        <ele>1775.69</ele>
        <time>2014-10-04T14:59:53Z</time>
      </trkpt>
      <trkpt lat="46.35028" lon="6.78475">
        <ele>1775.69</ele>
        <time>2014-10-04T15:00:07Z</time>
      </trkpt>
      <trkpt lat="46.35034" lon="6.78465">
        <ele>1776.65</ele>
        <time>2014-10-04T15:00:21Z</time>
      </trkpt>
      <trkpt lat="46.35044" lon="6.78455">
        <ele>1777.13</ele>
        <time>2014-10-04T15:00:38Z</time>
      </trkpt>
      <trkpt lat="46.35047" lon="6.78455">
        <ele>1775.69</ele>
        <time>2014-10-04T15:00:42Z</time>
      </trkpt>
      <trkpt lat="46.35058" lon="6.78449">
        <ele>1773.29</ele>
        <time>2014-10-04T15:00:58Z</time>
      </trkpt>
      <trkpt lat="46.35063" lon="6.78446">
        <ele>1772.81</ele>
        <time>2014-10-04T15:01:05Z</time>
      </trkpt>
      <trkpt lat="46.35071" lon="6.78441">
        <ele>1770.89</ele>
        <time>2014-10-04T15:01:18Z</time>
      </trkpt>
      <trkpt lat="46.35078" lon="6.78443">
        <ele>1768.48</ele>
        <time>2014-10-04T15:01:29Z</time>
      </trkpt>
      <trkpt lat="46.35081" lon="6.78446">
        <ele>1765.12</ele>
        <time>2014-10-04T15:01:42Z</time>
      </trkpt>
      <trkpt lat="46.35085" lon="6.78445">
        <ele>1764.16</ele>
        <time>2014-10-04T15:01:47Z</time>
      </trkpt>
      <trkpt lat="46.35095" lon="6.78442">
        <ele>1760.31</ele>
        <time>2014-10-04T15:02:00Z</time>
      </trkpt>
      <trkpt lat="46.35106" lon="6.78438">
        <ele>1757.91</ele>
        <time>2014-10-04T15:02:14Z</time>
      </trkpt>
      <trkpt lat="46.35113" lon="6.78437">
        <ele>1754.54</ele>
        <time>2014-10-04T15:02:24Z</time>
      </trkpt>
      <trkpt lat="46.35116" lon="6.78434">
        <ele>1752.14</ele>
        <time>2014-10-04T15:02:33Z</time>
      </trkpt>
      <trkpt lat="46.35126" lon="6.7843">
        <ele>1749.74</ele>
        <time>2014-10-04T15:02:47Z</time>
      </trkpt>
      <trkpt lat="46.35132" lon="6.78434">
        <ele>1748.78</ele>
        <time>2014-10-04T15:02:52Z</time>
      </trkpt>
      <trkpt lat="46.35139" lon="6.78438">
        <ele>1747.33</ele>
        <time>2014-10-04T15:02:58Z</time>
      </trkpt>
      <trkpt lat="46.35148" lon="6.78431">
        <ele>1746.37</ele>
        <time>2014-10-04T15:03:12Z</time>
      </trkpt>
      <trkpt lat="46.35151" lon="6.78431">
        <ele>1746.37</ele>
        <time>2014-10-04T15:03:16Z</time>
      </trkpt>
      <trkpt lat="46.35163" lon="6.78438">
        <ele>1743.49</ele>
        <time>2014-10-04T15:03:28Z</time>
      </trkpt>
      <trkpt lat="46.35171" lon="6.78442">
        <ele>1740.6</ele>
        <time>2014-10-04T15:03:40Z</time>
      </trkpt>
      <trkpt lat="46.35177" lon="6.78437">
        <ele>1740.12</ele>
        <time>2014-10-04T15:03:49Z</time>
      </trkpt>
      <trkpt lat="46.35187" lon="6.78437">
        <ele>1739.64</ele>
        <time>2014-10-04T15:03:58Z</time>
      </trkpt>
      <trkpt lat="46.35198" lon="6.78435">
        <ele>1739.64</ele>
        <time>2014-10-04T15:04:11Z</time>
      </trkpt>
      <trkpt lat="46.35202" lon="6.78435">
        <ele>1739.64</ele>
        <time>2014-10-04T15:04:15Z</time>
      </trkpt>
      <trkpt lat="46.3521" lon="6.7843">
        <ele>1740.6</ele>
        <time>2014-10-04T15:04:25Z</time>
      </trkpt>
      <trkpt lat="46.3522" lon="6.78432">
        <ele>1741.08</ele>
        <time>2014-10-04T15:04:33Z</time>
      </trkpt>
      <trkpt lat="46.35231" lon="6.78425">
        <ele>1741.08</ele>
        <time>2014-10-04T15:04:47Z</time>
      </trkpt>
      <trkpt lat="46.35235" lon="6.78425">
        <ele>1739.64</ele>
        <time>2014-10-04T15:04:51Z</time>
      </trkpt>
      <trkpt lat="46.3524" lon="6.78422">
        <ele>1738.68</ele>
        <time>2014-10-04T15:04:58Z</time>
      </trkpt>
      <trkpt lat="46.35243" lon="6.78421">
        <ele>1738.2</ele>
        <time>2014-10-04T15:05:02Z</time>
      </trkpt>
      <trkpt lat="46.35259" lon="6.78422">
        <ele>1737.72</ele>
        <time>2014-10-04T15:05:18Z</time>
      </trkpt>
      <trkpt lat="46.35273" lon="6.78421">
        <ele>1740.12</ele>
        <time>2014-10-04T15:05:32Z</time>
      </trkpt>
      <trkpt lat="46.35285" lon="6.78414">
        <ele>1741.08</ele>
        <time>2014-10-04T15:05:48Z</time>
      </trkpt>
      <trkpt lat="46.35289" lon="6.78402">
        <ele>1741.08</ele>
        <time>2014-10-04T15:05:59Z</time>
      </trkpt>
      <trkpt lat="46.35293" lon="6.78401">
        <ele>1739.64</ele>
        <time>2014-10-04T15:06:02Z</time>
      </trkpt>
      <trkpt lat="46.35303" lon="6.78391">
        <ele>1738.68</ele>
        <time>2014-10-04T15:06:18Z</time>
      </trkpt>
      <trkpt lat="46.35304" lon="6.78389">
        <ele>1739.64</ele>
        <time>2014-10-04T15:06:20Z</time>
      </trkpt>
      <trkpt lat="46.35314" lon="6.78379">
        <ele>1742.05</ele>
        <time>2014-10-04T15:06:35Z</time>
      </trkpt>
      <trkpt lat="46.3532" lon="6.78378">
        <ele>1743.49</ele>
        <time>2014-10-04T15:06:42Z</time>
      </trkpt>
      <trkpt lat="46.3533" lon="6.78365">
        <ele>1743.97</ele>
        <time>2014-10-04T15:06:58Z</time>
      </trkpt>
      <trkpt lat="46.35344" lon="6.78354">
        <ele>1742.53</ele>
        <time>2014-10-04T15:07:11Z</time>
      </trkpt>
      <trkpt lat="46.35354" lon="6.78349">
        <ele>1741.57</ele>
        <time>2014-10-04T15:07:20Z</time>
      </trkpt>
      <trkpt lat="46.35365" lon="6.7834">
        <ele>1743.01</ele>
        <time>2014-10-04T15:07:34Z</time>
      </trkpt>
      <trkpt lat="46.35384" lon="6.78345">
        <ele>1745.41</ele>
        <time>2014-10-04T15:07:50Z</time>
      </trkpt>
      <trkpt lat="46.35396" lon="6.78349">
        <ele>1745.89</ele>
        <time>2014-10-04T15:08:02Z</time>
      </trkpt>
      <trkpt lat="46.35408" lon="6.78344">
        <ele>1748.78</ele>
        <time>2014-10-04T15:08:17Z</time>
      </trkpt>
      <trkpt lat="46.35416" lon="6.7834">
        <ele>1750.7</ele>
        <time>2014-10-04T15:08:34Z</time>
      </trkpt>
      <trkpt lat="46.35415" lon="6.78342">
        <ele>1750.7</ele>
        <time>2014-10-04T15:08:52Z</time>
      </trkpt>
      <trkpt lat="46.35413" lon="6.78344">
        <ele>1751.18</ele>
        <time>2014-10-04T15:09:18Z</time>
      </trkpt>
      <trkpt lat="46.35414" lon="6.78342">
        <ele>1750.7</ele>
        <time>2014-10-04T15:09:46Z</time>
      </trkpt>
      <trkpt lat="46.35414" lon="6.78341">
        <ele>1752.14</ele>
        <time>2014-10-04T15:09:56Z</time>
      </trkpt>
      <trkpt lat="46.35414" lon="6.78343">
        <ele>1749.74</ele>
        <time>2014-10-04T15:10:04Z</time>
      </trkpt>
      <trkpt lat="46.35415" lon="6.78341">
        <ele>1749.74</ele>
        <time>2014-10-04T15:10:22Z</time>
      </trkpt>
      <trkpt lat="46.35415" lon="6.78341">
        <ele>1752.62</ele>
        <time>2014-10-04T15:10:43Z</time>
      </trkpt>
      <trkpt lat="46.35415" lon="6.78341">
        <ele>1752.62</ele>
        <time>2014-10-04T15:10:44Z</time>
      </trkpt>
      <trkpt lat="46.35414" lon="6.78341">
        <ele>1749.26</ele>
        <time>2014-10-04T15:10:53Z</time>
      </trkpt>
      <trkpt lat="46.35414" lon="6.78341">
        <ele>1752.14</ele>
        <time>2014-10-04T15:10:56Z</time>
      </trkpt>
      <trkpt lat="46.35414" lon="6.78341">
        <ele>1750.7</ele>
        <time>2014-10-04T15:10:58Z</time>
      </trkpt>
      <trkpt lat="46.35414" lon="6.78341">
        <ele>1750.7</ele>
        <time>2014-10-04T15:11:05Z</time>
      </trkpt>
      <trkpt lat="46.35414" lon="6.78342">
        <ele>1752.14</ele>
        <time>2014-10-04T15:11:12Z</time>
      </trkpt>
      <trkpt lat="46.35415" lon="6.78342">
        <ele>1748.29</ele>
        <time>2014-10-04T15:11:21Z</time>
      </trkpt>
      <trkpt lat="46.35415" lon="6.78342">
        <ele>1748.29</ele>
        <time>2014-10-04T15:11:22Z</time>
      </trkpt>
      <trkpt lat="46.35415" lon="6.78341">
        <ele>1749.74</ele>
        <time>2014-10-04T15:11:24Z</time>
      </trkpt>
      <trkpt lat="46.35416" lon="6.78339">
        <ele>1749.26</ele>
        <time>2014-10-04T15:11:29Z</time>
      </trkpt>
      <trkpt lat="46.35415" lon="6.78335">
        <ele>1747.33</ele>
        <time>2014-10-04T15:11:36Z</time>
      </trkpt>
      <trkpt lat="46.3541" lon="6.78324">
        <ele>1744.93</ele>
        <time>2014-10-04T15:11:50Z</time>
      </trkpt>
      <trkpt lat="46.35419" lon="6.78317">
        <ele>1741.57</ele>
        <time>2014-10-04T15:12:03Z</time>
      </trkpt>
      <trkpt lat="46.35422" lon="6.78315">
        <ele>1740.12</ele>
        <time>2014-10-04T15:12:07Z</time>
      </trkpt>
      <trkpt lat="46.35427" lon="6.78314">
        <ele>1738.2</ele>
        <time>2014-10-04T15:12:13Z</time>
      </trkpt>
      <trkpt lat="46.35434" lon="6.78305">
        <ele>1734.84</ele>
        <time>2014-10-04T15:12:25Z</time>
      </trkpt>
      <trkpt lat="46.35437" lon="6.78293">
        <ele>1731.95</ele>
        <time>2014-10-04T15:12:39Z</time>
      </trkpt>
      <trkpt lat="46.35437" lon="6.78292">
        <ele>1730.99</ele>
        <time>2014-10-04T15:12:41Z</time>
      </trkpt>
      <trkpt lat="46.35431" lon="6.78288">
        <ele>1727.63</ele>
        <time>2014-10-04T15:12:52Z</time>
      </trkpt>
      <trkpt lat="46.35429" lon="6.78287">
        <ele>1726.67</ele>
        <time>2014-10-04T15:12:54Z</time>
      </trkpt>
      <trkpt lat="46.35424" lon="6.78286">
        <ele>1724.26</ele>
        <time>2014-10-04T15:12:59Z</time>
      </trkpt>
      <trkpt lat="46.35417" lon="6.78277">
        <ele>1721.86</ele>
        <time>2014-10-04T15:13:07Z</time>
      </trkpt>
      <trkpt lat="46.35412" lon="6.78272">
        <ele>1719.94</ele>
        <time>2014-10-04T15:13:13Z</time>
      </trkpt>
      <trkpt lat="46.3541" lon="6.7827">
        <ele>1719.46</ele>
        <time>2014-10-04T15:13:15Z</time>
      </trkpt>
      <trkpt lat="46.35404" lon="6.7826">
        <ele>1715.61</ele>
        <time>2014-10-04T15:13:26Z</time>
      </trkpt>
      <trkpt lat="46.35398" lon="6.78252">
        <ele>1712.25</ele>
        <time>2014-10-04T15:13:36Z</time>
      </trkpt>
      <trkpt lat="46.35389" lon="6.7824">
        <ele>1709.36</ele>
        <time>2014-10-04T15:13:48Z</time>
      </trkpt>
      <trkpt lat="46.35391" lon="6.78231">
        <ele>1706</ele>
        <time>2014-10-04T15:13:58Z</time>
      </trkpt>
      <trkpt lat="46.35396" lon="6.78229">
        <ele>1704.07</ele>
        <time>2014-10-04T15:14:04Z</time>
      </trkpt>
      <trkpt lat="46.35399" lon="6.78226">
        <ele>1703.59</ele>
        <time>2014-10-04T15:14:07Z</time>
      </trkpt>
      <trkpt lat="46.35399" lon="6.78212">
        <ele>1699.27</ele>
        <time>2014-10-04T15:14:17Z</time>
      </trkpt>
      <trkpt lat="46.35399" lon="6.78211">
        <ele>1699.27</ele>
        <time>2014-10-04T15:14:18Z</time>
      </trkpt>
      <trkpt lat="46.35404" lon="6.78196">
        <ele>1695.9</ele>
        <time>2014-10-04T15:14:30Z</time>
      </trkpt>
      <trkpt lat="46.35402" lon="6.78189">
        <ele>1692.54</ele>
        <time>2014-10-04T15:14:40Z</time>
      </trkpt>
      <trkpt lat="46.354" lon="6.78186">
        <ele>1691.58</ele>
        <time>2014-10-04T15:14:45Z</time>
      </trkpt>
      <trkpt lat="46.35397" lon="6.78178">
        <ele>1689.17</ele>
        <time>2014-10-04T15:14:54Z</time>
      </trkpt>
      <trkpt lat="46.35399" lon="6.78165">
        <ele>1685.81</ele>
        <time>2014-10-04T15:15:03Z</time>
      </trkpt>
      <trkpt lat="46.35401" lon="6.78149">
        <ele>1682.93</ele>
        <time>2014-10-04T15:15:15Z</time>
      </trkpt>
      <trkpt lat="46.35399" lon="6.78148">
        <ele>1681.48</ele>
        <time>2014-10-04T15:15:18Z</time>
      </trkpt>
      <trkpt lat="46.35396" lon="6.78138">
        <ele>1679.56</ele>
        <time>2014-10-04T15:15:26Z</time>
      </trkpt>
      <trkpt lat="46.35393" lon="6.78131">
        <ele>1677.16</ele>
        <time>2014-10-04T15:15:32Z</time>
      </trkpt>
      <trkpt lat="46.35388" lon="6.78121">
        <ele>1674.27</ele>
        <time>2014-10-04T15:15:49Z</time>
      </trkpt>
      <trkpt lat="46.35385" lon="6.78115">
        <ele>1672.83</ele>
        <time>2014-10-04T15:16:04Z</time>
      </trkpt>
      <trkpt lat="46.35385" lon="6.78112">
        <ele>1671.39</ele>
        <time>2014-10-04T15:16:07Z</time>
      </trkpt>
      <trkpt lat="46.35382" lon="6.78104">
        <ele>1668.02</ele>
        <time>2014-10-04T15:16:15Z</time>
      </trkpt>
      <trkpt lat="46.35375" lon="6.78093">
        <ele>1664.66</ele>
        <time>2014-10-04T15:16:25Z</time>
      </trkpt>
      <trkpt lat="46.35367" lon="6.7808">
        <ele>1661.3</ele>
        <time>2014-10-04T15:16:37Z</time>
      </trkpt>
      <trkpt lat="46.35366" lon="6.78077">
        <ele>1660.33</ele>
        <time>2014-10-04T15:16:39Z</time>
      </trkpt>
      <trkpt lat="46.35352" lon="6.78062">
        <ele>1657.93</ele>
        <time>2014-10-04T15:16:55Z</time>
      </trkpt>
      <trkpt lat="46.35345" lon="6.7805">
        <ele>1656.01</ele>
        <time>2014-10-04T15:17:04Z</time>
      </trkpt>
      <trkpt lat="46.3534" lon="6.7803">
        <ele>1653.12</ele>
        <time>2014-10-04T15:17:16Z</time>
      </trkpt>
      <trkpt lat="46.35336" lon="6.78015">
        <ele>1649.28</ele>
        <time>2014-10-04T15:17:26Z</time>
      </trkpt>
      <trkpt lat="46.35335" lon="6.78009">
        <ele>1648.32</ele>
        <time>2014-10-04T15:17:30Z</time>
      </trkpt>
      <trkpt lat="46.35333" lon="6.78002">
        <ele>1646.88</ele>
        <time>2014-10-04T15:17:34Z</time>
      </trkpt>
      <trkpt lat="46.35331" lon="6.77997">
        <ele>1644.47</ele>
        <time>2014-10-04T15:17:39Z</time>
      </trkpt>
      <trkpt lat="46.3533" lon="6.77987">
        <ele>1642.55</ele>
        <time>2014-10-04T15:17:46Z</time>
      </trkpt>
      <trkpt lat="46.35329" lon="6.77984">
        <ele>1641.59</ele>
        <time>2014-10-04T15:17:48Z</time>
      </trkpt>
      <trkpt lat="46.35324" lon="6.77974">
        <ele>1639.67</ele>
        <time>2014-10-04T15:17:57Z</time>
      </trkpt>
      <trkpt lat="46.35318" lon="6.7796">
        <ele>1636.3</ele>
        <time>2014-10-04T15:18:13Z</time>
      </trkpt>
      <trkpt lat="46.35317" lon="6.7796">
        <ele>1637.74</ele>
        <time>2014-10-04T15:18:31Z</time>
      </trkpt>
      <trkpt lat="46.35315" lon="6.77957">
        <ele>1637.74</ele>
        <time>2014-10-04T15:18:51Z</time>
      </trkpt>
      <trkpt lat="46.35317" lon="6.77956">
        <ele>1636.78</ele>
        <time>2014-10-04T15:19:07Z</time>
      </trkpt>
      <trkpt lat="46.35317" lon="6.77959">
        <ele>1636.78</ele>
        <time>2014-10-04T15:19:27Z</time>
      </trkpt>
      <trkpt lat="46.35315" lon="6.77959">
        <ele>1636.3</ele>
        <time>2014-10-04T15:19:51Z</time>
      </trkpt>
      <trkpt lat="46.35315" lon="6.77957">
        <ele>1636.3</ele>
        <time>2014-10-04T15:20:11Z</time>
      </trkpt>
      <trkpt lat="46.35315" lon="6.77945">
        <ele>1632.94</ele>
        <time>2014-10-04T15:20:23Z</time>
      </trkpt>
      <trkpt lat="46.35314" lon="6.77939">
        <ele>1631.01</ele>
        <time>2014-10-04T15:20:28Z</time>
      </trkpt>
      <trkpt lat="46.35314" lon="6.77929">
        <ele>1628.13</ele>
        <time>2014-10-04T15:20:42Z</time>
      </trkpt>
      <trkpt lat="46.35314" lon="6.7792">
        <ele>1624.77</ele>
        <time>2014-10-04T15:20:53Z</time>
      </trkpt>
      <trkpt lat="46.35317" lon="6.77913">
        <ele>1622.84</ele>
        <time>2014-10-04T15:20:59Z</time>
      </trkpt>
      <trkpt lat="46.35321" lon="6.77911">
        <ele>1619.96</ele>
        <time>2014-10-04T15:21:11Z</time>
      </trkpt>
      <trkpt lat="46.35328" lon="6.7792">
        <ele>1616.59</ele>
        <time>2014-10-04T15:21:23Z</time>
      </trkpt>
      <trkpt lat="46.35329" lon="6.77921">
        <ele>1615.63</ele>
        <time>2014-10-04T15:21:25Z</time>
      </trkpt>
      <trkpt lat="46.35339" lon="6.77933">
        <ele>1612.75</ele>
        <time>2014-10-04T15:21:38Z</time>
      </trkpt>
      <trkpt lat="46.35345" lon="6.77923">
        <ele>1609.38</ele>
        <time>2014-10-04T15:21:49Z</time>
      </trkpt>
      <trkpt lat="46.35348" lon="6.77909">
        <ele>1606.02</ele>
        <time>2014-10-04T15:22:00Z</time>
      </trkpt>
      <trkpt lat="46.35348" lon="6.77895">
        <ele>1602.66</ele>
        <time>2014-10-04T15:22:11Z</time>
      </trkpt>
      <trkpt lat="46.3535" lon="6.77882">
        <ele>1599.29</ele>
        <time>2014-10-04T15:22:20Z</time>
      </trkpt>
      <trkpt lat="46.35353" lon="6.77869">
        <ele>1595.93</ele>
        <time>2014-10-04T15:22:31Z</time>
      </trkpt>
      <trkpt lat="46.35355" lon="6.77867">
        <ele>1594.96</ele>
        <time>2014-10-04T15:22:34Z</time>
      </trkpt>
      <trkpt lat="46.35357" lon="6.77853">
        <ele>1591.12</ele>
        <time>2014-10-04T15:22:44Z</time>
      </trkpt>
      <trkpt lat="46.35358" lon="6.7785">
        <ele>1590.16</ele>
        <time>2014-10-04T15:22:47Z</time>
      </trkpt>
      <trkpt lat="46.35358" lon="6.77835">
        <ele>1587.27</ele>
        <time>2014-10-04T15:22:59Z</time>
      </trkpt>
      <trkpt lat="46.35365" lon="6.77832">
        <ele>1584.87</ele>
        <time>2014-10-04T15:23:10Z</time>
      </trkpt>
      <trkpt lat="46.35367" lon="6.77815">
        <ele>1581.51</ele>
        <time>2014-10-04T15:23:21Z</time>
      </trkpt>
      <trkpt lat="46.35365" lon="6.77798">
        <ele>1578.14</ele>
        <time>2014-10-04T15:23:33Z</time>
      </trkpt>
      <trkpt lat="46.3536" lon="6.77792">
        <ele>1576.22</ele>
        <time>2014-10-04T15:23:44Z</time>
      </trkpt>
      <trkpt lat="46.35355" lon="6.77783">
        <ele>1572.85</ele>
        <time>2014-10-04T15:23:54Z</time>
      </trkpt>
      <trkpt lat="46.35355" lon="6.7778">
        <ele>1571.89</ele>
        <time>2014-10-04T15:23:57Z</time>
      </trkpt>
      <trkpt lat="46.35357" lon="6.77774">
        <ele>1570.45</ele>
        <time>2014-10-04T15:24:01Z</time>
      </trkpt>
      <trkpt lat="46.35365" lon="6.77765">
        <ele>1567.09</ele>
        <time>2014-10-04T15:24:11Z</time>
      </trkpt>
      <trkpt lat="46.35365" lon="6.77763">
        <ele>1567.09</ele>
        <time>2014-10-04T15:24:12Z</time>
      </trkpt>
      <trkpt lat="46.35371" lon="6.77754">
        <ele>1563.72</ele>
        <time>2014-10-04T15:24:23Z</time>
      </trkpt>
      <trkpt lat="46.35373" lon="6.77751">
        <ele>1563.24</ele>
        <time>2014-10-04T15:24:27Z</time>
      </trkpt>
      <trkpt lat="46.35371" lon="6.77747">
        <ele>1562.76</ele>
        <time>2014-10-04T15:24:31Z</time>
      </trkpt>
      <trkpt lat="46.35364" lon="6.77742">
        <ele>1558.92</ele>
        <time>2014-10-04T15:24:42Z</time>
      </trkpt>
      <trkpt lat="46.35366" lon="6.7773">
        <ele>1555.07</ele>
        <time>2014-10-04T15:24:51Z</time>
      </trkpt>
      <trkpt lat="46.35372" lon="6.7772">
        <ele>1552.19</ele>
        <time>2014-10-04T15:25:03Z</time>
      </trkpt>
      <trkpt lat="46.35371" lon="6.7772">
        <ele>1552.19</ele>
        <time>2014-10-04T15:25:04Z</time>
      </trkpt>
      <trkpt lat="46.35368" lon="6.7772">
        <ele>1551.71</ele>
        <time>2014-10-04T15:25:08Z</time>
      </trkpt>
      <trkpt lat="46.35358" lon="6.77716">
        <ele>1546.9</ele>
        <time>2014-10-04T15:25:21Z</time>
      </trkpt>
      <trkpt lat="46.35353" lon="6.77716">
        <ele>1545.94</ele>
        <time>2014-10-04T15:25:27Z</time>
      </trkpt>
      <trkpt lat="46.35349" lon="6.77705">
        <ele>1542.09</ele>
        <time>2014-10-04T15:25:39Z</time>
      </trkpt>
      <trkpt lat="46.35349" lon="6.77697">
        <ele>1538.73</ele>
        <time>2014-10-04T15:25:50Z</time>
      </trkpt>
      <trkpt lat="46.3535" lon="6.77691">
        <ele>1535.36</ele>
        <time>2014-10-04T15:25:59Z</time>
      </trkpt>
      <trkpt lat="46.35349" lon="6.77683">
        <ele>1532.48</ele>
        <time>2014-10-04T15:26:09Z</time>
      </trkpt>
      <trkpt lat="46.35348" lon="6.77674">
        <ele>1529.11</ele>
        <time>2014-10-04T15:26:19Z</time>
      </trkpt>
      <trkpt lat="46.35348" lon="6.77665">
        <ele>1526.71</ele>
        <time>2014-10-04T15:26:26Z</time>
      </trkpt>
      <trkpt lat="46.35347" lon="6.77653">
        <ele>1522.87</ele>
        <time>2014-10-04T15:26:37Z</time>
      </trkpt>
      <trkpt lat="46.35347" lon="6.77639">
        <ele>1519.5</ele>
        <time>2014-10-04T15:26:49Z</time>
      </trkpt>
      <trkpt lat="46.35347" lon="6.77636">
        <ele>1519.02</ele>
        <time>2014-10-04T15:26:53Z</time>
      </trkpt>
      <trkpt lat="46.35353" lon="6.77626">
        <ele>1515.18</ele>
        <time>2014-10-04T15:27:04Z</time>
      </trkpt>
      <trkpt lat="46.35353" lon="6.77612">
        <ele>1511.33</ele>
        <time>2014-10-04T15:27:16Z</time>
      </trkpt>
      <trkpt lat="46.35357" lon="6.776">
        <ele>1507.97</ele>
        <time>2014-10-04T15:27:26Z</time>
      </trkpt>
      <trkpt lat="46.35365" lon="6.77587">
        <ele>1505.08</ele>
        <time>2014-10-04T15:27:37Z</time>
      </trkpt>
      <trkpt lat="46.35366" lon="6.77586">
        <ele>1505.08</ele>
        <time>2014-10-04T15:27:38Z</time>
      </trkpt>
      <trkpt lat="46.35374" lon="6.77577">
        <ele>1502.2</ele>
        <time>2014-10-04T15:27:55Z</time>
      </trkpt>
      <trkpt lat="46.35373" lon="6.77577">
        <ele>1502.2</ele>
        <time>2014-10-04T15:28:16Z</time>
      </trkpt>
      <trkpt lat="46.35371" lon="6.77574">
        <ele>1502.2</ele>
        <time>2014-10-04T15:28:35Z</time>
      </trkpt>
      <trkpt lat="46.35371" lon="6.77573">
        <ele>1502.2</ele>
        <time>2014-10-04T15:28:59Z</time>
      </trkpt>
      <trkpt lat="46.35374" lon="6.77569">
        <ele>1501.72</ele>
        <time>2014-10-04T15:29:16Z</time>
      </trkpt>
      <trkpt lat="46.35377" lon="6.77563">
        <ele>1498.83</ele>
        <time>2014-10-04T15:29:25Z</time>
      </trkpt>
      <trkpt lat="46.35378" lon="6.77555">
        <ele>1495.95</ele>
        <time>2014-10-04T15:29:33Z</time>
      </trkpt>
      <trkpt lat="46.35377" lon="6.7755">
        <ele>1494.99</ele>
        <time>2014-10-04T15:29:37Z</time>
      </trkpt>
      <trkpt lat="46.35372" lon="6.77544">
        <ele>1493.06</ele>
        <time>2014-10-04T15:29:44Z</time>
      </trkpt>
      <trkpt lat="46.35365" lon="6.77529">
        <ele>1489.22</ele>
        <time>2014-10-04T15:29:57Z</time>
      </trkpt>
      <trkpt lat="46.35362" lon="6.77521">
        <ele>1486.82</ele>
        <time>2014-10-04T15:30:06Z</time>
      </trkpt>
      <trkpt lat="46.35364" lon="6.77509">
        <ele>1483.45</ele>
        <time>2014-10-04T15:30:14Z</time>
      </trkpt>
      <trkpt lat="46.35371" lon="6.77497">
        <ele>1479.61</ele>
        <time>2014-10-04T15:30:25Z</time>
      </trkpt>
      <trkpt lat="46.35375" lon="6.77481">
        <ele>1476.24</ele>
        <time>2014-10-04T15:30:38Z</time>
      </trkpt>
      <trkpt lat="46.35377" lon="6.77466">
        <ele>1472.88</ele>
        <time>2014-10-04T15:30:52Z</time>
      </trkpt>
      <trkpt lat="46.35376" lon="6.77453">
        <ele>1469.51</ele>
        <time>2014-10-04T15:31:02Z</time>
      </trkpt>
      <trkpt lat="46.35379" lon="6.77433">
        <ele>1467.11</ele>
        <time>2014-10-04T15:31:15Z</time>
      </trkpt>
      <trkpt lat="46.35383" lon="6.77416">
        <ele>1465.19</ele>
        <time>2014-10-04T15:31:28Z</time>
      </trkpt>
      <trkpt lat="46.35387" lon="6.77403">
        <ele>1461.34</ele>
        <time>2014-10-04T15:31:42Z</time>
      </trkpt>
      <trkpt lat="46.35392" lon="6.77395">
        <ele>1457.98</ele>
        <time>2014-10-04T15:31:51Z</time>
      </trkpt>
      <trkpt lat="46.35397" lon="6.77384">
        <ele>1454.61</ele>
        <time>2014-10-04T15:32:00Z</time>
      </trkpt>
      <trkpt lat="46.354" lon="6.7737">
        <ele>1451.25</ele>
        <time>2014-10-04T15:32:08Z</time>
      </trkpt>
      <trkpt lat="46.35401" lon="6.77367">
        <ele>1451.25</ele>
        <time>2014-10-04T15:32:09Z</time>
      </trkpt>
      <trkpt lat="46.35408" lon="6.77343">
        <ele>1447.4</ele>
        <time>2014-10-04T15:32:21Z</time>
      </trkpt>
      <trkpt lat="46.35413" lon="6.77328">
        <ele>1444.04</ele>
        <time>2014-10-04T15:32:33Z</time>
      </trkpt>
      <trkpt lat="46.35417" lon="6.77316">
        <ele>1441.15</ele>
        <time>2014-10-04T15:32:42Z</time>
      </trkpt>
      <trkpt lat="46.35423" lon="6.77301">
        <ele>1437.79</ele>
        <time>2014-10-04T15:32:53Z</time>
      </trkpt>
      <trkpt lat="46.35427" lon="6.77297">
        <ele>1435.87</ele>
        <time>2014-10-04T15:32:58Z</time>
      </trkpt>
      <trkpt lat="46.35433" lon="6.77282">
        <ele>1432.5</ele>
        <time>2014-10-04T15:33:09Z</time>
      </trkpt>
      <trkpt lat="46.35431" lon="6.77268">
        <ele>1429.14</ele>
        <time>2014-10-04T15:33:21Z</time>
      </trkpt>
      <trkpt lat="46.35431" lon="6.77267">
        <ele>1429.14</ele>
        <time>2014-10-04T15:33:22Z</time>
      </trkpt>
      <trkpt lat="46.35435" lon="6.7725">
        <ele>1425.29</ele>
        <time>2014-10-04T15:33:33Z</time>
      </trkpt>
      <trkpt lat="46.35436" lon="6.77245">
        <ele>1424.33</ele>
        <time>2014-10-04T15:33:36Z</time>
      </trkpt>
      <trkpt lat="46.35438" lon="6.77235">
        <ele>1421.93</ele>
        <time>2014-10-04T15:33:44Z</time>
      </trkpt>
      <trkpt lat="46.35438" lon="6.77222">
        <ele>1419.04</ele>
        <time>2014-10-04T15:33:54Z</time>
      </trkpt>
      <trkpt lat="46.3544" lon="6.77212">
        <ele>1416.64</ele>
        <time>2014-10-04T15:34:00Z</time>
      </trkpt>
      <trkpt lat="46.35442" lon="6.77205">
        <ele>1414.72</ele>
        <time>2014-10-04T15:34:08Z</time>
      </trkpt>
      <trkpt lat="46.35451" lon="6.77215">
        <ele>1410.87</ele>
        <time>2014-10-04T15:34:20Z</time>
      </trkpt>
      <trkpt lat="46.35457" lon="6.77219">
        <ele>1407.51</ele>
        <time>2014-10-04T15:34:31Z</time>
      </trkpt>
      <trkpt lat="46.35458" lon="6.77211">
        <ele>1405.1</ele>
        <time>2014-10-04T15:34:38Z</time>
      </trkpt>
      <trkpt lat="46.35459" lon="6.77207">
        <ele>1404.14</ele>
        <time>2014-10-04T15:34:41Z</time>
      </trkpt>
      <trkpt lat="46.35461" lon="6.77202">
        <ele>1402.7</ele>
        <time>2014-10-04T15:34:45Z</time>
      </trkpt>
      <trkpt lat="46.35461" lon="6.77194">
        <ele>1400.78</ele>
        <time>2014-10-04T15:34:51Z</time>
      </trkpt>
      <trkpt lat="46.35465" lon="6.77188">
        <ele>1398.86</ele>
        <time>2014-10-04T15:34:58Z</time>
      </trkpt>
      <trkpt lat="46.3547" lon="6.77177">
        <ele>1394.53</ele>
        <time>2014-10-04T15:35:09Z</time>
      </trkpt>
      <trkpt lat="46.35474" lon="6.77172">
        <ele>1393.09</ele>
        <time>2014-10-04T15:35:14Z</time>
      </trkpt>
      <trkpt lat="46.35476" lon="6.7716">
        <ele>1389.72</ele>
        <time>2014-10-04T15:35:24Z</time>
      </trkpt>
      <trkpt lat="46.35476" lon="6.77155">
        <ele>1388.76</ele>
        <time>2014-10-04T15:35:28Z</time>
      </trkpt>
      <trkpt lat="46.35485" lon="6.77147">
        <ele>1385.4</ele>
        <time>2014-10-04T15:35:40Z</time>
      </trkpt>
      <trkpt lat="46.35487" lon="6.77139">
        <ele>1382.99</ele>
        <time>2014-10-04T15:35:53Z</time>
      </trkpt>
      <trkpt lat="46.35489" lon="6.77136">
        <ele>1382.51</ele>
        <time>2014-10-04T15:36:16Z</time>
      </trkpt>
      <trkpt lat="46.35489" lon="6.77137">
        <ele>1382.03</ele>
        <time>2014-10-04T15:36:34Z</time>
      </trkpt>
      <trkpt lat="46.3549" lon="6.77136">
        <ele>1382.03</ele>
        <time>2014-10-04T15:36:56Z</time>
      </trkpt>
      <trkpt lat="46.35489" lon="6.77136">
        <ele>1382.03</ele>
        <time>2014-10-04T15:37:24Z</time>
      </trkpt>
      <trkpt lat="46.35489" lon="6.77135">
        <ele>1382.03</ele>
        <time>2014-10-04T15:37:42Z</time>
      </trkpt>
      <trkpt lat="46.3549" lon="6.77134">
        <ele>1382.03</ele>
        <time>2014-10-04T15:38:10Z</time>
      </trkpt>
      <trkpt lat="46.3549" lon="6.77135">
        <ele>1382.03</ele>
        <time>2014-10-04T15:38:42Z</time>
      </trkpt>
      <trkpt lat="46.35489" lon="6.77134">
        <ele>1382.03</ele>
        <time>2014-10-04T15:39:04Z</time>
      </trkpt>
      <trkpt lat="46.35488" lon="6.77135">
        <ele>1382.03</ele>
        <time>2014-10-04T15:39:30Z</time>
      </trkpt>
      <trkpt lat="46.35487" lon="6.77139">
        <ele>1382.03</ele>
        <time>2014-10-04T15:39:54Z</time>
      </trkpt>
      <trkpt lat="46.35489" lon="6.77126">
        <ele>1380.59</ele>
        <time>2014-10-04T15:40:09Z</time>
      </trkpt>
      <trkpt lat="46.35496" lon="6.7711">
        <ele>1377.71</ele>
        <time>2014-10-04T15:40:23Z</time>
      </trkpt>
      <trkpt lat="46.35498" lon="6.77097">
        <ele>1375.3</ele>
        <time>2014-10-04T15:40:35Z</time>
      </trkpt>
      <trkpt lat="46.35504" lon="6.77091">
        <ele>1372.42</ele>
        <time>2014-10-04T15:40:46Z</time>
      </trkpt>
      <trkpt lat="46.3551" lon="6.77086">
        <ele>1369.05</ele>
        <time>2014-10-04T15:40:56Z</time>
      </trkpt>
      <trkpt lat="46.35517" lon="6.77078">
        <ele>1365.69</ele>
        <time>2014-10-04T15:41:07Z</time>
      </trkpt>
      <trkpt lat="46.35524" lon="6.77074">
        <ele>1363.77</ele>
        <time>2014-10-04T15:41:16Z</time>
      </trkpt>
      <trkpt lat="46.35534" lon="6.77069">
        <ele>1359.92</ele>
        <time>2014-10-04T15:41:28Z</time>
      </trkpt>
      <trkpt lat="46.35541" lon="6.77066">
        <ele>1356.56</ele>
        <time>2014-10-04T15:41:39Z</time>
      </trkpt>
      <trkpt lat="46.35547" lon="6.77062">
        <ele>1352.71</ele>
        <time>2014-10-04T15:41:51Z</time>
      </trkpt>
      <trkpt lat="46.35554" lon="6.77056">
        <ele>1349.35</ele>
        <time>2014-10-04T15:42:01Z</time>
      </trkpt>
      <trkpt lat="46.35562" lon="6.77056">
        <ele>1346.46</ele>
        <time>2014-10-04T15:42:11Z</time>
      </trkpt>
      <trkpt lat="46.35569" lon="6.77063">
        <ele>1343.1</ele>
        <time>2014-10-04T15:42:24Z</time>
      </trkpt>
      <trkpt lat="46.35577" lon="6.77067">
        <ele>1339.73</ele>
        <time>2014-10-04T15:42:35Z</time>
      </trkpt>
      <trkpt lat="46.35583" lon="6.77068">
        <ele>1335.89</ele>
        <time>2014-10-04T15:42:49Z</time>
      </trkpt>
      <trkpt lat="46.35574" lon="6.77064">
        <ele>1335.41</ele>
        <time>2014-10-04T15:43:00Z</time>
      </trkpt>
      <trkpt lat="46.35566" lon="6.77056">
        <ele>1336.37</ele>
        <time>2014-10-04T15:43:14Z</time>
      </trkpt>
      <trkpt lat="46.35566" lon="6.77055">
        <ele>1336.85</ele>
        <time>2014-10-04T15:43:15Z</time>
      </trkpt>
      <trkpt lat="46.35564" lon="6.77042">
        <ele>1338.29</ele>
        <time>2014-10-04T15:43:28Z</time>
      </trkpt>
      <trkpt lat="46.35565" lon="6.77032">
        <ele>1338.29</ele>
        <time>2014-10-04T15:43:36Z</time>
      </trkpt>
      <trkpt lat="46.35572" lon="6.77003">
        <ele>1334.93</ele>
        <time>2014-10-04T15:43:51Z</time>
      </trkpt>
      <trkpt lat="46.35575" lon="6.76998">
        <ele>1334.45</ele>
        <time>2014-10-04T15:44:05Z</time>
      </trkpt>
      <trkpt lat="46.35583" lon="6.76994">
        <ele>1332.52</ele>
        <time>2014-10-04T15:44:22Z</time>
      </trkpt>
      <trkpt lat="46.35593" lon="6.76992">
        <ele>1329.16</ele>
        <time>2014-10-04T15:44:33Z</time>
      </trkpt>
      <trkpt lat="46.35602" lon="6.76988">
        <ele>1325.8</ele>
        <time>2014-10-04T15:44:45Z</time>
      </trkpt>
      <trkpt lat="46.35607" lon="6.76977">
        <ele>1322.43</ele>
        <time>2014-10-04T15:44:55Z</time>
      </trkpt>
      <trkpt lat="46.35615" lon="6.76966">
        <ele>1319.07</ele>
        <time>2014-10-04T15:45:07Z</time>
      </trkpt>
      <trkpt lat="46.35621" lon="6.7696">
        <ele>1316.66</ele>
        <time>2014-10-04T15:45:18Z</time>
      </trkpt>
      <trkpt lat="46.3563" lon="6.76953">
        <ele>1313.3</ele>
        <time>2014-10-04T15:45:30Z</time>
      </trkpt>
      <trkpt lat="46.35626" lon="6.76944">
        <ele>1310.41</ele>
        <time>2014-10-04T15:45:42Z</time>
      </trkpt>
      <trkpt lat="46.35626" lon="6.76927">
        <ele>1307.05</ele>
        <time>2014-10-04T15:45:55Z</time>
      </trkpt>
      <trkpt lat="46.3563" lon="6.7692">
        <ele>1304.17</ele>
        <time>2014-10-04T15:46:06Z</time>
      </trkpt>
      <trkpt lat="46.35635" lon="6.76918">
        <ele>1301.28</ele>
        <time>2014-10-04T15:46:15Z</time>
      </trkpt>
      <trkpt lat="46.35644" lon="6.7691">
        <ele>1297.92</ele>
        <time>2014-10-04T15:46:28Z</time>
      </trkpt>
      <trkpt lat="46.35658" lon="6.76899">
        <ele>1294.55</ele>
        <time>2014-10-04T15:46:43Z</time>
      </trkpt>
      <trkpt lat="46.35672" lon="6.76893">
        <ele>1292.15</ele>
        <time>2014-10-04T15:46:55Z</time>
      </trkpt>
      <trkpt lat="46.35677" lon="6.7689">
        <ele>1290.23</ele>
        <time>2014-10-04T15:47:01Z</time>
      </trkpt>
      <trkpt lat="46.35688" lon="6.76883">
        <ele>1287.82</ele>
        <time>2014-10-04T15:47:14Z</time>
      </trkpt>
      <trkpt lat="46.35693" lon="6.76875">
        <ele>1284.94</ele>
        <time>2014-10-04T15:47:26Z</time>
      </trkpt>
      <trkpt lat="46.35699" lon="6.76866">
        <ele>1282.54</ele>
        <time>2014-10-04T15:47:39Z</time>
      </trkpt>
      <trkpt lat="46.357" lon="6.76864">
        <ele>1282.06</ele>
        <time>2014-10-04T15:47:41Z</time>
      </trkpt>
      <trkpt lat="46.3571" lon="6.7685">
        <ele>1279.65</ele>
        <time>2014-10-04T15:47:53Z</time>
      </trkpt>
      <trkpt lat="46.35721" lon="6.76842">
        <ele>1277.25</ele>
        <time>2014-10-04T15:48:05Z</time>
      </trkpt>
      <trkpt lat="46.35731" lon="6.7684">
        <ele>1275.33</ele>
        <time>2014-10-04T15:48:19Z</time>
      </trkpt>
      <trkpt lat="46.35737" lon="6.76844">
        <ele>1273.88</ele>
        <time>2014-10-04T15:48:27Z</time>
      </trkpt>
      <trkpt lat="46.35748" lon="6.76846">
        <ele>1271</ele>
        <time>2014-10-04T15:48:42Z</time>
      </trkpt>
      <trkpt lat="46.35762" lon="6.76842">
        <ele>1267.64</ele>
        <time>2014-10-04T15:48:55Z</time>
      </trkpt>
      <trkpt lat="46.35781" lon="6.76844">
        <ele>1265.71</ele>
        <time>2014-10-04T15:49:10Z</time>
      </trkpt>
      <trkpt lat="46.35783" lon="6.76844">
        <ele>1265.71</ele>
        <time>2014-10-04T15:49:11Z</time>
      </trkpt>
      <trkpt lat="46.35798" lon="6.76855">
        <ele>1262.83</ele>
        <time>2014-10-04T15:49:25Z</time>
      </trkpt>
      <trkpt lat="46.3581" lon="6.7687">
        <ele>1261.39</ele>
        <time>2014-10-04T15:49:38Z</time>
      </trkpt>
      <trkpt lat="46.35819" lon="6.76884">
        <ele>1258.5</ele>
        <time>2014-10-04T15:49:50Z</time>
      </trkpt>
      <trkpt lat="46.35827" lon="6.769">
        <ele>1255.14</ele>
        <time>2014-10-04T15:50:04Z</time>
      </trkpt>
      <trkpt lat="46.35838" lon="6.76901">
        <ele>1251.77</ele>
        <time>2014-10-04T15:50:17Z</time>
      </trkpt>
      <trkpt lat="46.35851" lon="6.76902">
        <ele>1248.89</ele>
        <time>2014-10-04T15:50:31Z</time>
      </trkpt>
      <trkpt lat="46.35856" lon="6.76903">
        <ele>1250.81</ele>
        <time>2014-10-04T15:50:50Z</time>
      </trkpt>
      <trkpt lat="46.35857" lon="6.76901">
        <ele>1248.89</ele>
        <time>2014-10-04T15:51:10Z</time>
      </trkpt>
      <trkpt lat="46.35858" lon="6.76902">
        <ele>1248.89</ele>
        <time>2014-10-04T15:51:14Z</time>
      </trkpt>
      <trkpt lat="46.3586" lon="6.76901">
        <ele>1248.89</ele>
        <time>2014-10-04T15:51:17Z</time>
      </trkpt>
      <trkpt lat="46.35875" lon="6.76894">
        <ele>1245.53</ele>
        <time>2014-10-04T15:51:32Z</time>
      </trkpt>
      <trkpt lat="46.35887" lon="6.76889">
        <ele>1242.64</ele>
        <time>2014-10-04T15:51:46Z</time>
      </trkpt>
      <trkpt lat="46.35905" lon="6.76877">
        <ele>1239.76</ele>
        <time>2014-10-04T15:51:59Z</time>
      </trkpt>
      <trkpt lat="46.35919" lon="6.76867">
        <ele>1237.35</ele>
        <time>2014-10-04T15:52:13Z</time>
      </trkpt>
      <trkpt lat="46.35929" lon="6.76858">
        <ele>1234.95</ele>
        <time>2014-10-04T15:52:25Z</time>
      </trkpt>
      <trkpt lat="46.35937" lon="6.76853">
        <ele>1233.03</ele>
        <time>2014-10-04T15:52:36Z</time>
      </trkpt>
      <trkpt lat="46.35951" lon="6.76853">
        <ele>1231.59</ele>
        <time>2014-10-04T15:52:51Z</time>
      </trkpt>
      <trkpt lat="46.35965" lon="6.76865">
        <ele>1229.18</ele>
        <time>2014-10-04T15:53:03Z</time>
      </trkpt>
      <trkpt lat="46.35978" lon="6.76882">
        <ele>1227.74</ele>
        <time>2014-10-04T15:53:18Z</time>
      </trkpt>
      <trkpt lat="46.35992" lon="6.769">
        <ele>1225.82</ele>
        <time>2014-10-04T15:53:34Z</time>
      </trkpt>
      <trkpt lat="46.36007" lon="6.76918">
        <ele>1223.42</ele>
        <time>2014-10-04T15:53:51Z</time>
      </trkpt>
      <trkpt lat="46.36009" lon="6.76921">
        <ele>1222.93</ele>
        <time>2014-10-04T15:53:54Z</time>
      </trkpt>
      <trkpt lat="46.36013" lon="6.76924">
        <ele>1222.45</ele>
        <time>2014-10-04T15:53:57Z</time>
      </trkpt>
      <trkpt lat="46.36027" lon="6.76951">
        <ele>1219.09</ele>
        <time>2014-10-04T15:54:16Z</time>
      </trkpt>
      <trkpt lat="46.36033" lon="6.76958">
        <ele>1217.65</ele>
        <time>2014-10-04T15:54:24Z</time>
      </trkpt>
      <trkpt lat="46.36052" lon="6.7695">
        <ele>1214.76</ele>
        <time>2014-10-04T15:54:43Z</time>
      </trkpt>
      <trkpt lat="46.36068" lon="6.76951">
        <ele>1213.8</ele>
        <time>2014-10-04T15:55:00Z</time>
      </trkpt>
      <trkpt lat="46.36082" lon="6.76948">
        <ele>1212.36</ele>
        <time>2014-10-04T15:55:14Z</time>
      </trkpt>
      <trkpt lat="46.36094" lon="6.76949">
        <ele>1211.88</ele>
        <time>2014-10-04T15:55:24Z</time>
      </trkpt>
      <trkpt lat="46.36109" lon="6.76965">
        <ele>1212.84</ele>
        <time>2014-10-04T15:55:40Z</time>
      </trkpt>
      <trkpt lat="46.36119" lon="6.76963">
        <ele>1214.76</ele>
        <time>2014-10-04T15:55:54Z</time>
      </trkpt>
      <trkpt lat="46.36131" lon="6.76959">
        <ele>1217.65</ele>
        <time>2014-10-04T15:56:06Z</time>
      </trkpt>
      <trkpt lat="46.36147" lon="6.76962">
        <ele>1216.69</ele>
        <time>2014-10-04T15:56:22Z</time>
      </trkpt>
      <trkpt lat="46.36161" lon="6.76949">
        <ele>1215.24</ele>
        <time>2014-10-04T15:56:36Z</time>
      </trkpt>
      <trkpt lat="46.36174" lon="6.76932">
        <ele>1216.21</ele>
        <time>2014-10-04T15:56:53Z</time>
      </trkpt>
      <trkpt lat="46.36182" lon="6.76912">
        <ele>1215.24</ele>
        <time>2014-10-04T15:57:07Z</time>
      </trkpt>
      <trkpt lat="46.36183" lon="6.76894">
        <ele>1213.32</ele>
        <time>2014-10-04T15:57:20Z</time>
      </trkpt>
      <trkpt lat="46.36192" lon="6.76873">
        <ele>1209.96</ele>
        <time>2014-10-04T15:57:34Z</time>
      </trkpt>
      <trkpt lat="46.36202" lon="6.76856">
        <ele>1207.55</ele>
        <time>2014-10-04T15:57:50Z</time>
      </trkpt>
      <trkpt lat="46.36211" lon="6.76838">
        <ele>1207.07</ele>
        <time>2014-10-04T15:58:02Z</time>
      </trkpt>
      <trkpt lat="46.36214" lon="6.7682">
        <ele>1208.51</ele>
        <time>2014-10-04T15:58:13Z</time>
      </trkpt>
      <trkpt lat="46.36218" lon="6.76803">
        <ele>1210.44</ele>
        <time>2014-10-04T15:58:27Z</time>
      </trkpt>
      <trkpt lat="46.36222" lon="6.76796">
        <ele>1210.44</ele>
        <time>2014-10-04T15:58:35Z</time>
      </trkpt>
      <trkpt lat="46.36226" lon="6.76788">
        <ele>1212.36</ele>
        <time>2014-10-04T15:58:48Z</time>
      </trkpt>
    </trkseg>
  </trk>
</gpx>